<?xml version="1.0" encoding="UTF-8" standalone="no" ?>
<gpx xmlns="http://www.topografix.com/GPX/1/1" xmlns:xsi="http://www.w3.org/2001/XMLSchema-instance" xsi:schemaLocation="http://www.topografix.com/GPX/1/1 http://www.topografix.com/GPX/1/1/gpx.xsd" version="1.1" creator="VisuGPX - https://www.visugpx.com">
  <metadata>
    <name>Etang Rompu, Etang de Hollande</name>
    <desc><![CDATA[Près de l\'étang Rompu, je tourne et retourne pour trouver le GR ! C\'est en fait un petit chemin qui monte bien, avec racines et pierres apparents !
Ensuite je préfère quitter le GR après avoir traverser la route (après le point 155), car le GR fait prendre un bout de la route mais qui est très dangereuse ! Peu de visibilité à cause de nombreux virages serrés et les voitures vont vite.
Le premier chemin à gauche est moins visible que sur la carte, étant au trot je l\'ai dépassé.. j\'ai donc récupéré le GR plus loin.]]></desc>
  </metadata>
  <trk>
    <name><![CDATA[Saint-Léger-en-Yvelines Autre]]></name>
    <trkseg>
      <trkpt lat="48.7071" lon="1.75471">
        <ele>173</ele>
        <time>2015-06-19T09:03:08.000Z</time>
      </trkpt>
      <trkpt lat="48.70716" lon="1.75457">
        <ele>173</ele>
        <time>2015-06-19T09:03:16.000Z</time>
      </trkpt>
      <trkpt lat="48.70718" lon="1.75449">
        <ele>173</ele>
        <time>2015-06-19T09:03:21.000Z</time>
      </trkpt>
      <trkpt lat="48.70722" lon="1.75439">
        <ele>173</ele>
        <time>2015-06-19T09:03:27.000Z</time>
      </trkpt>
      <trkpt lat="48.70723" lon="1.75438">
        <ele>173</ele>
        <time>2015-06-19T09:03:28.000Z</time>
      </trkpt>
      <trkpt lat="48.70731" lon="1.75421">
        <ele>173</ele>
        <time>2015-06-19T09:03:38.000Z</time>
      </trkpt>
      <trkpt lat="48.70736" lon="1.75407">
        <ele>173.2</ele>
        <time>2015-06-19T09:03:46.000Z</time>
      </trkpt>
      <trkpt lat="48.70742" lon="1.75392">
        <ele>173.2</ele>
        <time>2015-06-19T09:03:55.000Z</time>
      </trkpt>
      <trkpt lat="48.7075" lon="1.7537">
        <ele>173.7</ele>
        <time>2015-06-19T09:04:07.000Z</time>
      </trkpt>
      <trkpt lat="48.70756" lon="1.75356">
        <ele>174</ele>
        <time>2015-06-19T09:04:15.000Z</time>
      </trkpt>
      <trkpt lat="48.70762" lon="1.7534">
        <ele>174</ele>
        <time>2015-06-19T09:04:25.000Z</time>
      </trkpt>
      <trkpt lat="48.70769" lon="1.75324">
        <ele>174</ele>
        <time>2015-06-19T09:04:35.000Z</time>
      </trkpt>
      <trkpt lat="48.70771" lon="1.75315">
        <ele>174</ele>
        <time>2015-06-19T09:04:42.000Z</time>
      </trkpt>
      <trkpt lat="48.70779" lon="1.75301">
        <ele>174</ele>
        <time>2015-06-19T09:04:58.000Z</time>
      </trkpt>
      <trkpt lat="48.70781" lon="1.75295">
        <ele>174</ele>
        <time>2015-06-19T09:05:00.000Z</time>
      </trkpt>
      <trkpt lat="48.70788" lon="1.75279">
        <ele>174.3</ele>
        <time>2015-06-19T09:05:10.000Z</time>
      </trkpt>
      <trkpt lat="48.70795" lon="1.7526">
        <ele>174.6</ele>
        <time>2015-06-19T09:05:21.000Z</time>
      </trkpt>
      <trkpt lat="48.70803" lon="1.75244">
        <ele>174.9</ele>
        <time>2015-06-19T09:05:31.000Z</time>
      </trkpt>
      <trkpt lat="48.7081" lon="1.75226">
        <ele>175</ele>
        <time>2015-06-19T09:05:41.000Z</time>
      </trkpt>
      <trkpt lat="48.70815" lon="1.75214">
        <ele>175</ele>
        <time>2015-06-19T09:05:48.000Z</time>
      </trkpt>
      <trkpt lat="48.70821" lon="1.752">
        <ele>175</ele>
        <time>2015-06-19T09:05:56.000Z</time>
      </trkpt>
      <trkpt lat="48.70824" lon="1.75191">
        <ele>175</ele>
        <time>2015-06-19T09:06:04.000Z</time>
      </trkpt>
      <trkpt lat="48.70836" lon="1.75164">
        <ele>175</ele>
        <time>2015-06-19T09:19:32.000Z</time>
      </trkpt>
      <trkpt lat="48.70844" lon="1.75147">
        <ele>175</ele>
        <time>2015-06-19T09:19:40.000Z</time>
      </trkpt>
      <trkpt lat="48.7085" lon="1.75135">
        <ele>175</ele>
        <time>2015-06-19T09:19:47.000Z</time>
      </trkpt>
      <trkpt lat="48.70858" lon="1.7512">
        <ele>175</ele>
        <time>2015-06-19T09:19:55.000Z</time>
      </trkpt>
      <trkpt lat="48.70864" lon="1.75108">
        <ele>175</ele>
        <time>2015-06-19T09:20:02.000Z</time>
      </trkpt>
      <trkpt lat="48.70869" lon="1.75092">
        <ele>175</ele>
        <time>2015-06-19T09:20:10.000Z</time>
      </trkpt>
      <trkpt lat="48.70879" lon="1.75073">
        <ele>175</ele>
        <time>2015-06-19T09:20:20.000Z</time>
      </trkpt>
      <trkpt lat="48.70884" lon="1.75062">
        <ele>175</ele>
        <time>2015-06-19T09:20:26.000Z</time>
      </trkpt>
      <trkpt lat="48.7089" lon="1.75051">
        <ele>175</ele>
        <time>2015-06-19T09:20:33.000Z</time>
      </trkpt>
      <trkpt lat="48.70898" lon="1.75034">
        <ele>175.2</ele>
        <time>2015-06-19T09:20:42.000Z</time>
      </trkpt>
      <trkpt lat="48.70906" lon="1.75016">
        <ele>175.4</ele>
        <time>2015-06-19T09:20:52.000Z</time>
      </trkpt>
      <trkpt lat="48.70914" lon="1.75001">
        <ele>175</ele>
        <time>2015-06-19T09:21:01.000Z</time>
      </trkpt>
      <trkpt lat="48.70922" lon="1.74982">
        <ele>175.2</ele>
        <time>2015-06-19T09:21:11.000Z</time>
      </trkpt>
      <trkpt lat="48.7093" lon="1.74965">
        <ele>175.6</ele>
        <time>2015-06-19T09:21:20.000Z</time>
      </trkpt>
      <trkpt lat="48.70936" lon="1.74955">
        <ele>175.9</ele>
        <time>2015-06-19T09:21:27.000Z</time>
      </trkpt>
      <trkpt lat="48.70941" lon="1.74945">
        <ele>176</ele>
        <time>2015-06-19T09:21:33.000Z</time>
      </trkpt>
      <trkpt lat="48.70948" lon="1.74933">
        <ele>176</ele>
        <time>2015-06-19T09:21:41.000Z</time>
      </trkpt>
      <trkpt lat="48.70951" lon="1.74927">
        <ele>176</ele>
        <time>2015-06-19T09:21:45.000Z</time>
      </trkpt>
      <trkpt lat="48.70957" lon="1.74916">
        <ele>176</ele>
        <time>2015-06-19T09:21:52.000Z</time>
      </trkpt>
      <trkpt lat="48.7096" lon="1.74913">
        <ele>176</ele>
        <time>2015-06-19T09:21:55.000Z</time>
      </trkpt>
      <trkpt lat="48.70967" lon="1.74904">
        <ele>176</ele>
        <time>2015-06-19T09:22:01.000Z</time>
      </trkpt>
      <trkpt lat="48.70975" lon="1.74896">
        <ele>176</ele>
        <time>2015-06-19T09:22:08.000Z</time>
      </trkpt>
      <trkpt lat="48.70978" lon="1.74893">
        <ele>176</ele>
        <time>2015-06-19T09:22:11.000Z</time>
      </trkpt>
      <trkpt lat="48.7098" lon="1.74891">
        <ele>176</ele>
        <time>2015-06-19T09:22:13.000Z</time>
      </trkpt>
      <trkpt lat="48.70986" lon="1.74883">
        <ele>176</ele>
        <time>2015-06-19T09:22:18.000Z</time>
      </trkpt>
      <trkpt lat="48.70994" lon="1.74873">
        <ele>176</ele>
        <time>2015-06-19T09:22:25.000Z</time>
      </trkpt>
      <trkpt lat="48.71001" lon="1.74859">
        <ele>176</ele>
        <time>2015-06-19T09:22:33.000Z</time>
      </trkpt>
      <trkpt lat="48.71008" lon="1.74852">
        <ele>176</ele>
        <time>2015-06-19T09:22:40.000Z</time>
      </trkpt>
      <trkpt lat="48.7101" lon="1.74837">
        <ele>176</ele>
        <time>2015-06-19T09:22:48.000Z</time>
      </trkpt>
      <trkpt lat="48.71009" lon="1.74829">
        <ele>176</ele>
        <time>2015-06-19T09:22:53.000Z</time>
      </trkpt>
      <trkpt lat="48.71002" lon="1.74821">
        <ele>176</ele>
        <time>2015-06-19T09:23:00.000Z</time>
      </trkpt>
      <trkpt lat="48.71001" lon="1.7482">
        <ele>176</ele>
        <time>2015-06-19T09:23:01.000Z</time>
      </trkpt>
      <trkpt lat="48.70993" lon="1.74809">
        <ele>176</ele>
        <time>2015-06-19T09:23:09.000Z</time>
      </trkpt>
      <trkpt lat="48.70986" lon="1.74796">
        <ele>176</ele>
        <time>2015-06-19T09:23:17.000Z</time>
      </trkpt>
      <trkpt lat="48.70979" lon="1.74785">
        <ele>176</ele>
        <time>2015-06-19T09:23:24.000Z</time>
      </trkpt>
      <trkpt lat="48.70971" lon="1.74774">
        <ele>176</ele>
        <time>2015-06-19T09:23:33.000Z</time>
      </trkpt>
      <trkpt lat="48.70965" lon="1.74764">
        <ele>176</ele>
        <time>2015-06-19T09:23:39.000Z</time>
      </trkpt>
      <trkpt lat="48.70957" lon="1.74758">
        <ele>176</ele>
        <time>2015-06-19T09:23:47.000Z</time>
      </trkpt>
      <trkpt lat="48.70946" lon="1.74743">
        <ele>176</ele>
        <time>2015-06-19T09:23:57.000Z</time>
      </trkpt>
      <trkpt lat="48.70937" lon="1.74733">
        <ele>176</ele>
        <time>2015-06-19T09:24:06.000Z</time>
      </trkpt>
      <trkpt lat="48.70929" lon="1.74721">
        <ele>176</ele>
        <time>2015-06-19T09:24:14.000Z</time>
      </trkpt>
      <trkpt lat="48.70921" lon="1.7471">
        <ele>175.6</ele>
        <time>2015-06-19T09:24:23.000Z</time>
      </trkpt>
      <trkpt lat="48.70914" lon="1.74702">
        <ele>175.3</ele>
        <time>2015-06-19T09:24:31.000Z</time>
      </trkpt>
      <trkpt lat="48.70909" lon="1.74695">
        <ele>175.3</ele>
        <time>2015-06-19T09:24:36.000Z</time>
      </trkpt>
      <trkpt lat="48.70904" lon="1.74688">
        <ele>175.5</ele>
        <time>2015-06-19T09:24:42.000Z</time>
      </trkpt>
      <trkpt lat="48.70897" lon="1.74679">
        <ele>175.5</ele>
        <time>2015-06-19T09:24:49.000Z</time>
      </trkpt>
      <trkpt lat="48.70887" lon="1.74667">
        <ele>175.1</ele>
        <time>2015-06-19T09:24:58.000Z</time>
      </trkpt>
      <trkpt lat="48.70879" lon="1.74656">
        <ele>175.5</ele>
        <time>2015-06-19T09:25:07.000Z</time>
      </trkpt>
      <trkpt lat="48.7087" lon="1.74645">
        <ele>175.4</ele>
        <time>2015-06-19T09:25:17.000Z</time>
      </trkpt>
      <trkpt lat="48.70864" lon="1.74635">
        <ele>175.2</ele>
        <time>2015-06-19T09:25:24.000Z</time>
      </trkpt>
      <trkpt lat="48.70855" lon="1.74626">
        <ele>175.6</ele>
        <time>2015-06-19T09:25:33.000Z</time>
      </trkpt>
      <trkpt lat="48.70847" lon="1.74614">
        <ele>175.9</ele>
        <time>2015-06-19T09:25:43.000Z</time>
      </trkpt>
      <trkpt lat="48.70838" lon="1.74603">
        <ele>176</ele>
        <time>2015-06-19T09:25:52.000Z</time>
      </trkpt>
      <trkpt lat="48.70828" lon="1.74587">
        <ele>176</ele>
        <time>2015-06-19T09:26:02.000Z</time>
      </trkpt>
      <trkpt lat="48.70819" lon="1.74574">
        <ele>176</ele>
        <time>2015-06-19T09:26:12.000Z</time>
      </trkpt>
      <trkpt lat="48.70812" lon="1.74567">
        <ele>176</ele>
        <time>2015-06-19T09:26:20.000Z</time>
      </trkpt>
      <trkpt lat="48.70812" lon="1.74567">
        <ele>176</ele>
        <time>2015-06-19T09:26:21.000Z</time>
      </trkpt>
      <trkpt lat="48.70801" lon="1.74558">
        <ele>176.2</ele>
        <time>2015-06-19T09:26:34.000Z</time>
      </trkpt>
      <trkpt lat="48.70794" lon="1.74551">
        <ele>176.3</ele>
        <time>2015-06-19T09:26:41.000Z</time>
      </trkpt>
      <trkpt lat="48.70789" lon="1.74543">
        <ele>176.3</ele>
        <time>2015-06-19T09:26:48.000Z</time>
      </trkpt>
      <trkpt lat="48.70788" lon="1.74542">
        <ele>176.3</ele>
        <time>2015-06-19T09:26:49.000Z</time>
      </trkpt>
      <trkpt lat="48.70784" lon="1.74537">
        <ele>176.3</ele>
        <time>2015-06-19T09:26:56.000Z</time>
      </trkpt>
      <trkpt lat="48.70778" lon="1.74534">
        <ele>176.2</ele>
        <time>2015-06-19T09:27:03.000Z</time>
      </trkpt>
      <trkpt lat="48.70771" lon="1.74523">
        <ele>176</ele>
        <time>2015-06-19T09:27:12.000Z</time>
      </trkpt>
      <trkpt lat="48.70763" lon="1.74512">
        <ele>176</ele>
        <time>2015-06-19T09:27:22.000Z</time>
      </trkpt>
      <trkpt lat="48.70755" lon="1.74504">
        <ele>176</ele>
        <time>2015-06-19T09:27:31.000Z</time>
      </trkpt>
      <trkpt lat="48.7075" lon="1.74498">
        <ele>176</ele>
        <time>2015-06-19T09:27:37.000Z</time>
      </trkpt>
      <trkpt lat="48.70743" lon="1.74487">
        <ele>176</ele>
        <time>2015-06-19T09:27:46.000Z</time>
      </trkpt>
      <trkpt lat="48.70734" lon="1.74476">
        <ele>176</ele>
        <time>2015-06-19T09:27:56.000Z</time>
      </trkpt>
      <trkpt lat="48.7073" lon="1.7447">
        <ele>176</ele>
        <time>2015-06-19T09:28:03.000Z</time>
      </trkpt>
      <trkpt lat="48.7073" lon="1.7447">
        <ele>176</ele>
        <time>2015-06-19T09:28:05.000Z</time>
      </trkpt>
      <trkpt lat="48.70736" lon="1.74455">
        <ele>176</ele>
        <time>2015-06-19T09:35:09.000Z</time>
      </trkpt>
      <trkpt lat="48.70742" lon="1.74451">
        <ele>176</ele>
        <time>2015-06-19T09:35:12.000Z</time>
      </trkpt>
      <trkpt lat="48.70748" lon="1.74446">
        <ele>176</ele>
        <time>2015-06-19T09:35:17.000Z</time>
      </trkpt>
      <trkpt lat="48.7076" lon="1.74438">
        <ele>176</ele>
        <time>2015-06-19T09:35:26.000Z</time>
      </trkpt>
      <trkpt lat="48.70774" lon="1.74428">
        <ele>176</ele>
        <time>2015-06-19T09:35:36.000Z</time>
      </trkpt>
      <trkpt lat="48.70783" lon="1.74422">
        <ele>176</ele>
        <time>2015-06-19T09:35:43.000Z</time>
      </trkpt>
      <trkpt lat="48.70796" lon="1.74412">
        <ele>176</ele>
        <time>2015-06-19T09:35:53.000Z</time>
      </trkpt>
      <trkpt lat="48.70809" lon="1.74404">
        <ele>176</ele>
        <time>2015-06-19T09:36:02.000Z</time>
      </trkpt>
      <trkpt lat="48.7082" lon="1.74397">
        <ele>176</ele>
        <time>2015-06-19T09:36:11.000Z</time>
      </trkpt>
      <trkpt lat="48.7083" lon="1.74388">
        <ele>176</ele>
        <time>2015-06-19T09:36:18.000Z</time>
      </trkpt>
      <trkpt lat="48.70838" lon="1.74375">
        <ele>176</ele>
        <time>2015-06-19T09:36:26.000Z</time>
      </trkpt>
      <trkpt lat="48.70846" lon="1.74364">
        <ele>176</ele>
        <time>2015-06-19T09:36:34.000Z</time>
      </trkpt>
      <trkpt lat="48.70853" lon="1.74355">
        <ele>176</ele>
        <time>2015-06-19T09:36:42.000Z</time>
      </trkpt>
      <trkpt lat="48.70854" lon="1.74353">
        <ele>176</ele>
        <time>2015-06-19T09:36:45.000Z</time>
      </trkpt>
      <trkpt lat="48.70854" lon="1.74349">
        <ele>176</ele>
        <time>2015-06-19T09:37:13.000Z</time>
      </trkpt>
      <trkpt lat="48.70854" lon="1.74351">
        <ele>176</ele>
        <time>2015-06-19T09:37:14.000Z</time>
      </trkpt>
      <trkpt lat="48.70859" lon="1.7434">
        <ele>176</ele>
        <time>2015-06-19T09:37:21.000Z</time>
      </trkpt>
      <trkpt lat="48.70862" lon="1.74333">
        <ele>176</ele>
        <time>2015-06-19T09:37:26.000Z</time>
      </trkpt>
      <trkpt lat="48.70869" lon="1.74324">
        <ele>176</ele>
        <time>2015-06-19T09:37:34.000Z</time>
      </trkpt>
      <trkpt lat="48.70875" lon="1.74316">
        <ele>176</ele>
        <time>2015-06-19T09:37:40.000Z</time>
      </trkpt>
      <trkpt lat="48.70875" lon="1.74315">
        <ele>176</ele>
        <time>2015-06-19T09:37:41.000Z</time>
      </trkpt>
      <trkpt lat="48.70878" lon="1.74305">
        <ele>176</ele>
        <time>2015-06-19T09:37:47.000Z</time>
      </trkpt>
      <trkpt lat="48.70882" lon="1.74296">
        <ele>176.1</ele>
        <time>2015-06-19T09:37:53.000Z</time>
      </trkpt>
      <trkpt lat="48.70884" lon="1.74292">
        <ele>176.1</ele>
        <time>2015-06-19T09:37:55.000Z</time>
      </trkpt>
      <trkpt lat="48.70888" lon="1.74286">
        <ele>176</ele>
        <time>2015-06-19T09:38:01.000Z</time>
      </trkpt>
      <trkpt lat="48.70891" lon="1.74278">
        <ele>176</ele>
        <time>2015-06-19T09:38:06.000Z</time>
      </trkpt>
      <trkpt lat="48.70895" lon="1.74271">
        <ele>176.2</ele>
        <time>2015-06-19T09:38:10.000Z</time>
      </trkpt>
      <trkpt lat="48.709" lon="1.74263">
        <ele>176.3</ele>
        <time>2015-06-19T09:38:15.000Z</time>
      </trkpt>
      <trkpt lat="48.70901" lon="1.74258">
        <ele>176.4</ele>
        <time>2015-06-19T09:38:18.000Z</time>
      </trkpt>
      <trkpt lat="48.70903" lon="1.7425">
        <ele>176.5</ele>
        <time>2015-06-19T09:38:23.000Z</time>
      </trkpt>
      <trkpt lat="48.70904" lon="1.74245">
        <ele>176.6</ele>
        <time>2015-06-19T09:38:26.000Z</time>
      </trkpt>
      <trkpt lat="48.70903" lon="1.74236">
        <ele>176.8</ele>
        <time>2015-06-19T09:38:32.000Z</time>
      </trkpt>
      <trkpt lat="48.70901" lon="1.74233">
        <ele>176.8</ele>
        <time>2015-06-19T09:38:37.000Z</time>
      </trkpt>
      <trkpt lat="48.70901" lon="1.74233">
        <ele>176.8</ele>
        <time>2015-06-19T09:38:38.000Z</time>
      </trkpt>
      <trkpt lat="48.70909" lon="1.74208">
        <ele>177</ele>
        <time>2015-06-19T09:40:20.000Z</time>
      </trkpt>
      <trkpt lat="48.70912" lon="1.74203">
        <ele>177</ele>
        <time>2015-06-19T09:40:24.000Z</time>
      </trkpt>
      <trkpt lat="48.70913" lon="1.74204">
        <ele>177</ele>
        <time>2015-06-19T09:40:26.000Z</time>
      </trkpt>
      <trkpt lat="48.70917" lon="1.74208">
        <ele>177</ele>
        <time>2015-06-19T09:40:31.000Z</time>
      </trkpt>
      <trkpt lat="48.70919" lon="1.742">
        <ele>177</ele>
        <time>2015-06-19T09:40:36.000Z</time>
      </trkpt>
      <trkpt lat="48.70919" lon="1.74193">
        <ele>177</ele>
        <time>2015-06-19T09:40:40.000Z</time>
      </trkpt>
      <trkpt lat="48.70919" lon="1.74176">
        <ele>177</ele>
        <time>2015-06-19T09:40:48.000Z</time>
      </trkpt>
      <trkpt lat="48.70923" lon="1.74164">
        <ele>177</ele>
        <time>2015-06-19T09:40:55.000Z</time>
      </trkpt>
      <trkpt lat="48.70929" lon="1.74151">
        <ele>177</ele>
        <time>2015-06-19T09:41:04.000Z</time>
      </trkpt>
      <trkpt lat="48.70931" lon="1.74139">
        <ele>177</ele>
        <time>2015-06-19T09:41:10.000Z</time>
      </trkpt>
      <trkpt lat="48.70933" lon="1.74134">
        <ele>177</ele>
        <time>2015-06-19T09:41:13.000Z</time>
      </trkpt>
      <trkpt lat="48.70935" lon="1.74124">
        <ele>177</ele>
        <time>2015-06-19T09:41:19.000Z</time>
      </trkpt>
      <trkpt lat="48.70937" lon="1.74115">
        <ele>177</ele>
        <time>2015-06-19T09:41:24.000Z</time>
      </trkpt>
      <trkpt lat="48.70937" lon="1.74094">
        <ele>177.2</ele>
        <time>2015-06-19T09:41:33.000Z</time>
      </trkpt>
      <trkpt lat="48.7094" lon="1.74079">
        <ele>177.1</ele>
        <time>2015-06-19T09:41:42.000Z</time>
      </trkpt>
      <trkpt lat="48.70942" lon="1.74074">
        <ele>177.1</ele>
        <time>2015-06-19T09:41:45.000Z</time>
      </trkpt>
      <trkpt lat="48.70948" lon="1.74061">
        <ele>177.1</ele>
        <time>2015-06-19T09:41:54.000Z</time>
      </trkpt>
      <trkpt lat="48.70952" lon="1.74046">
        <ele>177.5</ele>
        <time>2015-06-19T09:42:03.000Z</time>
      </trkpt>
      <trkpt lat="48.70954" lon="1.74034">
        <ele>177.9</ele>
        <time>2015-06-19T09:42:10.000Z</time>
      </trkpt>
      <trkpt lat="48.70957" lon="1.74023">
        <ele>178</ele>
        <time>2015-06-19T09:42:17.000Z</time>
      </trkpt>
      <trkpt lat="48.70962" lon="1.74008">
        <ele>178</ele>
        <time>2015-06-19T09:42:26.000Z</time>
      </trkpt>
      <trkpt lat="48.70966" lon="1.73994">
        <ele>178</ele>
        <time>2015-06-19T09:42:34.000Z</time>
      </trkpt>
      <trkpt lat="48.70968" lon="1.73983">
        <ele>178</ele>
        <time>2015-06-19T09:42:40.000Z</time>
      </trkpt>
      <trkpt lat="48.70971" lon="1.73967">
        <ele>177.8</ele>
        <time>2015-06-19T09:42:48.000Z</time>
      </trkpt>
      <trkpt lat="48.70973" lon="1.73957">
        <ele>177.5</ele>
        <time>2015-06-19T09:42:54.000Z</time>
      </trkpt>
      <trkpt lat="48.70973" lon="1.7395">
        <ele>177.2</ele>
        <time>2015-06-19T09:42:58.000Z</time>
      </trkpt>
      <trkpt lat="48.70977" lon="1.73932">
        <ele>177.5</ele>
        <time>2015-06-19T09:43:07.000Z</time>
      </trkpt>
      <trkpt lat="48.70979" lon="1.73922">
        <ele>177.9</ele>
        <time>2015-06-19T09:43:13.000Z</time>
      </trkpt>
      <trkpt lat="48.70981" lon="1.73916">
        <ele>178</ele>
        <time>2015-06-19T09:43:19.000Z</time>
      </trkpt>
      <trkpt lat="48.70982" lon="1.73909">
        <ele>178</ele>
        <time>2015-06-19T09:43:26.000Z</time>
      </trkpt>
      <trkpt lat="48.70984" lon="1.73905">
        <ele>178</ele>
        <time>2015-06-19T09:43:28.000Z</time>
      </trkpt>
      <trkpt lat="48.70986" lon="1.73896">
        <ele>178</ele>
        <time>2015-06-19T09:43:34.000Z</time>
      </trkpt>
      <trkpt lat="48.70989" lon="1.73886">
        <ele>178</ele>
        <time>2015-06-19T09:43:40.000Z</time>
      </trkpt>
      <trkpt lat="48.70991" lon="1.73883">
        <ele>178</ele>
        <time>2015-06-19T09:43:42.000Z</time>
      </trkpt>
      <trkpt lat="48.70992" lon="1.73869">
        <ele>178</ele>
        <time>2015-06-19T09:43:49.000Z</time>
      </trkpt>
      <trkpt lat="48.70995" lon="1.73851">
        <ele>178</ele>
        <time>2015-06-19T09:43:56.000Z</time>
      </trkpt>
      <trkpt lat="48.70997" lon="1.73839">
        <ele>178</ele>
        <time>2015-06-19T09:44:02.000Z</time>
      </trkpt>
      <trkpt lat="48.71" lon="1.73826">
        <ele>178</ele>
        <time>2015-06-19T09:44:08.000Z</time>
      </trkpt>
      <trkpt lat="48.71" lon="1.73823">
        <ele>178</ele>
        <time>2015-06-19T09:44:10.000Z</time>
      </trkpt>
      <trkpt lat="48.71003" lon="1.73812">
        <ele>178</ele>
        <time>2015-06-19T09:44:17.000Z</time>
      </trkpt>
      <trkpt lat="48.71004" lon="1.73811">
        <ele>178</ele>
        <time>2015-06-19T09:44:18.000Z</time>
      </trkpt>
      <trkpt lat="48.71013" lon="1.73802">
        <ele>178</ele>
        <time>2015-06-19T09:44:27.000Z</time>
      </trkpt>
      <trkpt lat="48.71018" lon="1.73798">
        <ele>178</ele>
        <time>2015-06-19T09:44:31.000Z</time>
      </trkpt>
      <trkpt lat="48.71025" lon="1.7379">
        <ele>178</ele>
        <time>2015-06-19T09:44:38.000Z</time>
      </trkpt>
      <trkpt lat="48.71032" lon="1.73783">
        <ele>177.9</ele>
        <time>2015-06-19T09:44:45.000Z</time>
      </trkpt>
      <trkpt lat="48.71039" lon="1.73771">
        <ele>177.6</ele>
        <time>2015-06-19T09:44:53.000Z</time>
      </trkpt>
      <trkpt lat="48.71044" lon="1.73763">
        <ele>177.4</ele>
        <time>2015-06-19T09:44:58.000Z</time>
      </trkpt>
      <trkpt lat="48.71047" lon="1.73761">
        <ele>177.3</ele>
        <time>2015-06-19T09:45:00.000Z</time>
      </trkpt>
      <trkpt lat="48.71053" lon="1.73752">
        <ele>177.1</ele>
        <time>2015-06-19T09:45:07.000Z</time>
      </trkpt>
      <trkpt lat="48.71059" lon="1.73748">
        <ele>177.1</ele>
        <time>2015-06-19T09:45:12.000Z</time>
      </trkpt>
      <trkpt lat="48.71065" lon="1.73745">
        <ele>177.1</ele>
        <time>2015-06-19T09:45:19.000Z</time>
      </trkpt>
      <trkpt lat="48.71069" lon="1.73743">
        <ele>177.1</ele>
        <time>2015-06-19T09:45:23.000Z</time>
      </trkpt>
      <trkpt lat="48.71078" lon="1.73732">
        <ele>177.1</ele>
        <time>2015-06-19T09:45:30.000Z</time>
      </trkpt>
      <trkpt lat="48.71081" lon="1.73727">
        <ele>177.1</ele>
        <time>2015-06-19T09:45:33.000Z</time>
      </trkpt>
      <trkpt lat="48.7109" lon="1.7372">
        <ele>177.1</ele>
        <time>2015-06-19T09:45:39.000Z</time>
      </trkpt>
      <trkpt lat="48.71098" lon="1.73713">
        <ele>177.3</ele>
        <time>2015-06-19T09:45:46.000Z</time>
      </trkpt>
      <trkpt lat="48.71103" lon="1.73705">
        <ele>177.6</ele>
        <time>2015-06-19T09:45:51.000Z</time>
      </trkpt>
      <trkpt lat="48.71104" lon="1.73703">
        <ele>177.7</ele>
        <time>2015-06-19T09:45:52.000Z</time>
      </trkpt>
      <trkpt lat="48.71106" lon="1.73699">
        <ele>177.8</ele>
        <time>2015-06-19T09:45:55.000Z</time>
      </trkpt>
      <trkpt lat="48.71117" lon="1.7369">
        <ele>178</ele>
        <time>2015-06-19T09:46:03.000Z</time>
      </trkpt>
      <trkpt lat="48.71118" lon="1.73689">
        <ele>178</ele>
        <time>2015-06-19T09:46:04.000Z</time>
      </trkpt>
      <trkpt lat="48.71124" lon="1.73683">
        <ele>178</ele>
        <time>2015-06-19T09:46:12.000Z</time>
      </trkpt>
      <trkpt lat="48.71127" lon="1.73682">
        <ele>178</ele>
        <time>2015-06-19T09:46:14.000Z</time>
      </trkpt>
      <trkpt lat="48.71132" lon="1.73673">
        <ele>178</ele>
        <time>2015-06-19T09:46:21.000Z</time>
      </trkpt>
      <trkpt lat="48.71134" lon="1.73672">
        <ele>178</ele>
        <time>2015-06-19T09:46:22.000Z</time>
      </trkpt>
      <trkpt lat="48.71143" lon="1.73663">
        <ele>178</ele>
        <time>2015-06-19T09:46:28.000Z</time>
      </trkpt>
      <trkpt lat="48.7115" lon="1.73655">
        <ele>178</ele>
        <time>2015-06-19T09:46:34.000Z</time>
      </trkpt>
      <trkpt lat="48.71152" lon="1.73653">
        <ele>178</ele>
        <time>2015-06-19T09:46:36.000Z</time>
      </trkpt>
      <trkpt lat="48.71158" lon="1.73646">
        <ele>178</ele>
        <time>2015-06-19T09:46:42.000Z</time>
      </trkpt>
      <trkpt lat="48.71168" lon="1.7364">
        <ele>178</ele>
        <time>2015-06-19T09:46:50.000Z</time>
      </trkpt>
      <trkpt lat="48.71176" lon="1.73633">
        <ele>178</ele>
        <time>2015-06-19T09:46:56.000Z</time>
      </trkpt>
      <trkpt lat="48.71184" lon="1.73624">
        <ele>178</ele>
        <time>2015-06-19T09:47:03.000Z</time>
      </trkpt>
      <trkpt lat="48.71184" lon="1.73623">
        <ele>178</ele>
        <time>2015-06-19T09:47:04.000Z</time>
      </trkpt>
      <trkpt lat="48.71188" lon="1.73617">
        <ele>178</ele>
        <time>2015-06-19T09:47:08.000Z</time>
      </trkpt>
      <trkpt lat="48.71195" lon="1.73609">
        <ele>178</ele>
        <time>2015-06-19T09:47:14.000Z</time>
      </trkpt>
      <trkpt lat="48.71199" lon="1.73607">
        <ele>178</ele>
        <time>2015-06-19T09:47:16.000Z</time>
      </trkpt>
      <trkpt lat="48.71209" lon="1.73613">
        <ele>178</ele>
        <time>2015-06-19T09:47:23.000Z</time>
      </trkpt>
      <trkpt lat="48.7121" lon="1.73614">
        <ele>178</ele>
        <time>2015-06-19T09:47:24.000Z</time>
      </trkpt>
      <trkpt lat="48.71221" lon="1.73615">
        <ele>178</ele>
        <time>2015-06-19T09:47:32.000Z</time>
      </trkpt>
      <trkpt lat="48.71222" lon="1.73615">
        <ele>178</ele>
        <time>2015-06-19T09:47:33.000Z</time>
      </trkpt>
      <trkpt lat="48.71231" lon="1.73616">
        <ele>177.7</ele>
        <time>2015-06-19T09:47:40.000Z</time>
      </trkpt>
      <trkpt lat="48.71238" lon="1.73617">
        <ele>177.4</ele>
        <time>2015-06-19T09:47:46.000Z</time>
      </trkpt>
      <trkpt lat="48.7124" lon="1.73617">
        <ele>177.4</ele>
        <time>2015-06-19T09:47:47.000Z</time>
      </trkpt>
      <trkpt lat="48.71243" lon="1.73617">
        <ele>177.3</ele>
        <time>2015-06-19T09:47:49.000Z</time>
      </trkpt>
      <trkpt lat="48.71249" lon="1.73617">
        <ele>177</ele>
        <time>2015-06-19T09:47:54.000Z</time>
      </trkpt>
      <trkpt lat="48.71257" lon="1.73616">
        <ele>176.6</ele>
        <time>2015-06-19T09:48:00.000Z</time>
      </trkpt>
      <trkpt lat="48.71262" lon="1.73615">
        <ele>176.2</ele>
        <time>2015-06-19T09:48:04.000Z</time>
      </trkpt>
      <trkpt lat="48.71264" lon="1.73616">
        <ele>176.1</ele>
        <time>2015-06-19T09:48:06.000Z</time>
      </trkpt>
      <trkpt lat="48.71271" lon="1.73613">
        <ele>175.5</ele>
        <time>2015-06-19T09:48:12.000Z</time>
      </trkpt>
      <trkpt lat="48.71272" lon="1.73611">
        <ele>175.4</ele>
        <time>2015-06-19T09:48:13.000Z</time>
      </trkpt>
      <trkpt lat="48.7128" lon="1.73602">
        <ele>174.8</ele>
        <time>2015-06-19T09:48:20.000Z</time>
      </trkpt>
      <trkpt lat="48.71287" lon="1.73592">
        <ele>173.6</ele>
        <time>2015-06-19T09:48:27.000Z</time>
      </trkpt>
      <trkpt lat="48.71289" lon="1.73588">
        <ele>173.4</ele>
        <time>2015-06-19T09:48:29.000Z</time>
      </trkpt>
      <trkpt lat="48.71293" lon="1.7358">
        <ele>172.8</ele>
        <time>2015-06-19T09:48:34.000Z</time>
      </trkpt>
      <trkpt lat="48.71297" lon="1.7357">
        <ele>172.5</ele>
        <time>2015-06-19T09:48:39.000Z</time>
      </trkpt>
      <trkpt lat="48.713" lon="1.73566">
        <ele>172.3</ele>
        <time>2015-06-19T09:48:42.000Z</time>
      </trkpt>
      <trkpt lat="48.71301" lon="1.7356">
        <ele>172.4</ele>
        <time>2015-06-19T09:48:45.000Z</time>
      </trkpt>
      <trkpt lat="48.71301" lon="1.73554">
        <ele>172.7</ele>
        <time>2015-06-19T09:48:50.000Z</time>
      </trkpt>
      <trkpt lat="48.71302" lon="1.73551">
        <ele>172.8</ele>
        <time>2015-06-19T09:48:53.000Z</time>
      </trkpt>
      <trkpt lat="48.71306" lon="1.73547">
        <ele>172.6</ele>
        <time>2015-06-19T09:48:56.000Z</time>
      </trkpt>
      <trkpt lat="48.71313" lon="1.73541">
        <ele>170.7</ele>
        <time>2015-06-19T09:49:03.000Z</time>
      </trkpt>
      <trkpt lat="48.71318" lon="1.73536">
        <ele>170</ele>
        <time>2015-06-19T09:49:07.000Z</time>
      </trkpt>
      <trkpt lat="48.71322" lon="1.73532">
        <ele>169.6</ele>
        <time>2015-06-19T09:49:11.000Z</time>
      </trkpt>
      <trkpt lat="48.71334" lon="1.73528">
        <ele>168</ele>
        <time>2015-06-19T09:49:19.000Z</time>
      </trkpt>
      <trkpt lat="48.71338" lon="1.73528">
        <ele>168.4</ele>
        <time>2015-06-19T09:49:22.000Z</time>
      </trkpt>
      <trkpt lat="48.71342" lon="1.73531">
        <ele>168.3</ele>
        <time>2015-06-19T09:49:26.000Z</time>
      </trkpt>
      <trkpt lat="48.71347" lon="1.73535">
        <ele>167.7</ele>
        <time>2015-06-19T09:49:32.000Z</time>
      </trkpt>
      <trkpt lat="48.7135" lon="1.7354">
        <ele>166.9</ele>
        <time>2015-06-19T09:49:35.000Z</time>
      </trkpt>
      <trkpt lat="48.71358" lon="1.73547">
        <ele>166.4</ele>
        <time>2015-06-19T09:49:41.000Z</time>
      </trkpt>
      <trkpt lat="48.7136" lon="1.7355">
        <ele>166.1</ele>
        <time>2015-06-19T09:49:43.000Z</time>
      </trkpt>
      <trkpt lat="48.71365" lon="1.73554">
        <ele>165.4</ele>
        <time>2015-06-19T09:49:46.000Z</time>
      </trkpt>
      <trkpt lat="48.71376" lon="1.73561">
        <ele>164.3</ele>
        <time>2015-06-19T09:49:53.000Z</time>
      </trkpt>
      <trkpt lat="48.71383" lon="1.73572">
        <ele>163.5</ele>
        <time>2015-06-19T09:50:01.000Z</time>
      </trkpt>
      <trkpt lat="48.71391" lon="1.73575">
        <ele>163.5</ele>
        <time>2015-06-19T09:50:06.000Z</time>
      </trkpt>
      <trkpt lat="48.71402" lon="1.73576">
        <ele>162.5</ele>
        <time>2015-06-19T09:50:14.000Z</time>
      </trkpt>
      <trkpt lat="48.71406" lon="1.73576">
        <ele>162.2</ele>
        <time>2015-06-19T09:50:19.000Z</time>
      </trkpt>
      <trkpt lat="48.71409" lon="1.73575">
        <ele>161.9</ele>
        <time>2015-06-19T09:50:23.000Z</time>
      </trkpt>
      <trkpt lat="48.71418" lon="1.73574">
        <ele>161.1</ele>
        <time>2015-06-19T09:50:29.000Z</time>
      </trkpt>
      <trkpt lat="48.71425" lon="1.73574">
        <ele>160.2</ele>
        <time>2015-06-19T09:50:36.000Z</time>
      </trkpt>
      <trkpt lat="48.71437" lon="1.73575">
        <ele>158.7</ele>
        <time>2015-06-19T09:50:45.000Z</time>
      </trkpt>
      <trkpt lat="48.71443" lon="1.73572">
        <ele>157.8</ele>
        <time>2015-06-19T09:50:51.000Z</time>
      </trkpt>
      <trkpt lat="48.71451" lon="1.73569">
        <ele>156.4</ele>
        <time>2015-06-19T09:50:59.000Z</time>
      </trkpt>
      <trkpt lat="48.71458" lon="1.73566">
        <ele>155.3</ele>
        <time>2015-06-19T09:51:06.000Z</time>
      </trkpt>
      <trkpt lat="48.71471" lon="1.73563">
        <ele>153.3</ele>
        <time>2015-06-19T09:51:14.000Z</time>
      </trkpt>
      <trkpt lat="48.71483" lon="1.73559">
        <ele>151.7</ele>
        <time>2015-06-19T09:51:22.000Z</time>
      </trkpt>
      <trkpt lat="48.71495" lon="1.73556">
        <ele>150.6</ele>
        <time>2015-06-19T09:51:30.000Z</time>
      </trkpt>
      <trkpt lat="48.71503" lon="1.73552">
        <ele>149.6</ele>
        <time>2015-06-19T09:51:38.000Z</time>
      </trkpt>
      <trkpt lat="48.71511" lon="1.7355">
        <ele>148.8</ele>
        <time>2015-06-19T09:51:45.000Z</time>
      </trkpt>
      <trkpt lat="48.71519" lon="1.73549">
        <ele>148.2</ele>
        <time>2015-06-19T09:51:51.000Z</time>
      </trkpt>
      <trkpt lat="48.71534" lon="1.73548">
        <ele>147.2</ele>
        <time>2015-06-19T09:52:01.000Z</time>
      </trkpt>
      <trkpt lat="48.71544" lon="1.73546">
        <ele>146.7</ele>
        <time>2015-06-19T09:52:09.000Z</time>
      </trkpt>
      <trkpt lat="48.71558" lon="1.73544">
        <ele>146</ele>
        <time>2015-06-19T09:52:19.000Z</time>
      </trkpt>
      <trkpt lat="48.71568" lon="1.73541">
        <ele>145.3</ele>
        <time>2015-06-19T09:52:26.000Z</time>
      </trkpt>
      <trkpt lat="48.71569" lon="1.7354">
        <ele>145.2</ele>
        <time>2015-06-19T09:52:28.000Z</time>
      </trkpt>
      <trkpt lat="48.71573" lon="1.73541">
        <ele>144.7</ele>
        <time>2015-06-19T09:52:31.000Z</time>
      </trkpt>
      <trkpt lat="48.71583" lon="1.73536">
        <ele>143.7</ele>
        <time>2015-06-19T09:52:38.000Z</time>
      </trkpt>
      <trkpt lat="48.71591" lon="1.73535">
        <ele>143.2</ele>
        <time>2015-06-19T09:52:45.000Z</time>
      </trkpt>
      <trkpt lat="48.71597" lon="1.73537">
        <ele>142.7</ele>
        <time>2015-06-19T09:52:50.000Z</time>
      </trkpt>
      <trkpt lat="48.71608" lon="1.73535">
        <ele>141.9</ele>
        <time>2015-06-19T09:52:59.000Z</time>
      </trkpt>
      <trkpt lat="48.71613" lon="1.73533">
        <ele>141.8</ele>
        <time>2015-06-19T09:53:02.000Z</time>
      </trkpt>
      <trkpt lat="48.71625" lon="1.73524">
        <ele>141.6</ele>
        <time>2015-06-19T09:53:10.000Z</time>
      </trkpt>
      <trkpt lat="48.71637" lon="1.7352">
        <ele>141.4</ele>
        <time>2015-06-19T09:53:18.000Z</time>
      </trkpt>
      <trkpt lat="48.71645" lon="1.73518">
        <ele>141.1</ele>
        <time>2015-06-19T09:53:24.000Z</time>
      </trkpt>
      <trkpt lat="48.71654" lon="1.73514">
        <ele>140.7</ele>
        <time>2015-06-19T09:53:30.000Z</time>
      </trkpt>
      <trkpt lat="48.71662" lon="1.73516">
        <ele>140.3</ele>
        <time>2015-06-19T09:53:36.000Z</time>
      </trkpt>
      <trkpt lat="48.71671" lon="1.73513">
        <ele>139.7</ele>
        <time>2015-06-19T09:53:43.000Z</time>
      </trkpt>
      <trkpt lat="48.71681" lon="1.73511">
        <ele>139</ele>
        <time>2015-06-19T09:53:50.000Z</time>
      </trkpt>
      <trkpt lat="48.7169" lon="1.73509">
        <ele>138.3</ele>
        <time>2015-06-19T09:53:57.000Z</time>
      </trkpt>
      <trkpt lat="48.71698" lon="1.73507">
        <ele>137.7</ele>
        <time>2015-06-19T09:54:03.000Z</time>
      </trkpt>
      <trkpt lat="48.71711" lon="1.73506">
        <ele>136.5</ele>
        <time>2015-06-19T09:54:12.000Z</time>
      </trkpt>
      <trkpt lat="48.71721" lon="1.73504">
        <ele>135.4</ele>
        <time>2015-06-19T09:54:19.000Z</time>
      </trkpt>
      <trkpt lat="48.71722" lon="1.73504">
        <ele>135.3</ele>
        <time>2015-06-19T09:54:21.000Z</time>
      </trkpt>
      <trkpt lat="48.7173" lon="1.73504">
        <ele>134.7</ele>
        <time>2015-06-19T09:54:27.000Z</time>
      </trkpt>
      <trkpt lat="48.71742" lon="1.735">
        <ele>133.6</ele>
        <time>2015-06-19T09:54:35.000Z</time>
      </trkpt>
      <trkpt lat="48.71754" lon="1.73499">
        <ele>132.9</ele>
        <time>2015-06-19T09:54:43.000Z</time>
      </trkpt>
      <trkpt lat="48.7176" lon="1.73498">
        <ele>132.7</ele>
        <time>2015-06-19T09:54:48.000Z</time>
      </trkpt>
      <trkpt lat="48.71768" lon="1.73494">
        <ele>132.4</ele>
        <time>2015-06-19T09:54:55.000Z</time>
      </trkpt>
      <trkpt lat="48.71774" lon="1.73489">
        <ele>132.2</ele>
        <time>2015-06-19T09:55:00.000Z</time>
      </trkpt>
      <trkpt lat="48.71783" lon="1.73484">
        <ele>131.9</ele>
        <time>2015-06-19T09:55:08.000Z</time>
      </trkpt>
      <trkpt lat="48.71792" lon="1.73484">
        <ele>131.7</ele>
        <time>2015-06-19T09:55:15.000Z</time>
      </trkpt>
      <trkpt lat="48.718" lon="1.73482">
        <ele>131.5</ele>
        <time>2015-06-19T09:55:21.000Z</time>
      </trkpt>
      <trkpt lat="48.71807" lon="1.73478">
        <ele>131.2</ele>
        <time>2015-06-19T09:55:27.000Z</time>
      </trkpt>
      <trkpt lat="48.7181" lon="1.73477">
        <ele>131.2</ele>
        <time>2015-06-19T09:55:29.000Z</time>
      </trkpt>
      <trkpt lat="48.71816" lon="1.73473">
        <ele>131</ele>
        <time>2015-06-19T09:55:35.000Z</time>
      </trkpt>
      <trkpt lat="48.71823" lon="1.73471">
        <ele>131</ele>
        <time>2015-06-19T09:55:40.000Z</time>
      </trkpt>
      <trkpt lat="48.71838" lon="1.73465">
        <ele>130.8</ele>
        <time>2015-06-19T09:55:50.000Z</time>
      </trkpt>
      <trkpt lat="48.71842" lon="1.73467">
        <ele>130.8</ele>
        <time>2015-06-19T09:55:55.000Z</time>
      </trkpt>
      <trkpt lat="48.71843" lon="1.73469">
        <ele>130.9</ele>
        <time>2015-06-19T09:55:59.000Z</time>
      </trkpt>
      <trkpt lat="48.71879" lon="1.73468">
        <ele>130.9</ele>
        <time>2015-06-19T09:56:53.000Z</time>
      </trkpt>
      <trkpt lat="48.71889" lon="1.73461">
        <ele>130.6</ele>
        <time>2015-06-19T09:56:58.000Z</time>
      </trkpt>
      <trkpt lat="48.71896" lon="1.7346">
        <ele>130.3</ele>
        <time>2015-06-19T09:57:03.000Z</time>
      </trkpt>
      <trkpt lat="48.71902" lon="1.73459">
        <ele>130</ele>
        <time>2015-06-19T09:57:09.000Z</time>
      </trkpt>
      <trkpt lat="48.71905" lon="1.73459">
        <ele>129.9</ele>
        <time>2015-06-19T09:57:12.000Z</time>
      </trkpt>
      <trkpt lat="48.7191" lon="1.73458">
        <ele>129.7</ele>
        <time>2015-06-19T09:57:17.000Z</time>
      </trkpt>
      <trkpt lat="48.71919" lon="1.73458">
        <ele>129.4</ele>
        <time>2015-06-19T09:57:23.000Z</time>
      </trkpt>
      <trkpt lat="48.71927" lon="1.73456">
        <ele>129</ele>
        <time>2015-06-19T09:57:30.000Z</time>
      </trkpt>
      <trkpt lat="48.71936" lon="1.7345">
        <ele>128.5</ele>
        <time>2015-06-19T09:57:36.000Z</time>
      </trkpt>
      <trkpt lat="48.71937" lon="1.73451">
        <ele>128.5</ele>
        <time>2015-06-19T09:57:37.000Z</time>
      </trkpt>
      <trkpt lat="48.71945" lon="1.73449">
        <ele>128.2</ele>
        <time>2015-06-19T09:57:44.000Z</time>
      </trkpt>
      <trkpt lat="48.71957" lon="1.73447">
        <ele>127.6</ele>
        <time>2015-06-19T09:57:53.000Z</time>
      </trkpt>
      <trkpt lat="48.71963" lon="1.73445">
        <ele>127.4</ele>
        <time>2015-06-19T09:57:58.000Z</time>
      </trkpt>
      <trkpt lat="48.7197" lon="1.73442">
        <ele>127.1</ele>
        <time>2015-06-19T09:58:03.000Z</time>
      </trkpt>
      <trkpt lat="48.71973" lon="1.73442">
        <ele>127</ele>
        <time>2015-06-19T09:58:05.000Z</time>
      </trkpt>
      <trkpt lat="48.7198" lon="1.7344">
        <ele>126.7</ele>
        <time>2015-06-19T09:58:10.000Z</time>
      </trkpt>
      <trkpt lat="48.71991" lon="1.73433">
        <ele>126.3</ele>
        <time>2015-06-19T09:58:19.000Z</time>
      </trkpt>
      <trkpt lat="48.71999" lon="1.73433">
        <ele>126</ele>
        <time>2015-06-19T09:58:26.000Z</time>
      </trkpt>
      <trkpt lat="48.72009" lon="1.73431">
        <ele>125.7</ele>
        <time>2015-06-19T09:58:34.000Z</time>
      </trkpt>
      <trkpt lat="48.72019" lon="1.73428">
        <ele>125.3</ele>
        <time>2015-06-19T09:58:42.000Z</time>
      </trkpt>
      <trkpt lat="48.72028" lon="1.73422">
        <ele>125</ele>
        <time>2015-06-19T09:58:49.000Z</time>
      </trkpt>
      <trkpt lat="48.72035" lon="1.73419">
        <ele>124.8</ele>
        <time>2015-06-19T09:58:56.000Z</time>
      </trkpt>
      <trkpt lat="48.72044" lon="1.73417">
        <ele>124.4</ele>
        <time>2015-06-19T09:59:03.000Z</time>
      </trkpt>
      <trkpt lat="48.72046" lon="1.73417">
        <ele>124.3</ele>
        <time>2015-06-19T09:59:05.000Z</time>
      </trkpt>
      <trkpt lat="48.72055" lon="1.73418">
        <ele>124</ele>
        <time>2015-06-19T09:59:11.000Z</time>
      </trkpt>
      <trkpt lat="48.72058" lon="1.73418">
        <ele>124</ele>
        <time>2015-06-19T09:59:13.000Z</time>
      </trkpt>
      <trkpt lat="48.72061" lon="1.73417">
        <ele>124</ele>
        <time>2015-06-19T09:59:16.000Z</time>
      </trkpt>
      <trkpt lat="48.7207" lon="1.73415">
        <ele>124</ele>
        <time>2015-06-19T09:59:21.000Z</time>
      </trkpt>
      <trkpt lat="48.72072" lon="1.73414">
        <ele>124</ele>
        <time>2015-06-19T09:59:23.000Z</time>
      </trkpt>
      <trkpt lat="48.72082" lon="1.73409">
        <ele>124</ele>
        <time>2015-06-19T09:59:29.000Z</time>
      </trkpt>
      <trkpt lat="48.72083" lon="1.73408">
        <ele>124</ele>
        <time>2015-06-19T09:59:30.000Z</time>
      </trkpt>
      <trkpt lat="48.72093" lon="1.73406">
        <ele>123.7</ele>
        <time>2015-06-19T09:59:35.000Z</time>
      </trkpt>
      <trkpt lat="48.72103" lon="1.73407">
        <ele>123.3</ele>
        <time>2015-06-19T09:59:41.000Z</time>
      </trkpt>
      <trkpt lat="48.7211" lon="1.73406">
        <ele>123</ele>
        <time>2015-06-19T09:59:47.000Z</time>
      </trkpt>
      <trkpt lat="48.72119" lon="1.73403">
        <ele>123</ele>
        <time>2015-06-19T09:59:54.000Z</time>
      </trkpt>
      <trkpt lat="48.72128" lon="1.734">
        <ele>123</ele>
        <time>2015-06-19T10:00:00.000Z</time>
      </trkpt>
      <trkpt lat="48.72129" lon="1.734">
        <ele>123</ele>
        <time>2015-06-19T10:00:01.000Z</time>
      </trkpt>
      <trkpt lat="48.72139" lon="1.73401">
        <ele>123</ele>
        <time>2015-06-19T10:00:06.000Z</time>
      </trkpt>
      <trkpt lat="48.72144" lon="1.73399">
        <ele>122.8</ele>
        <time>2015-06-19T10:00:10.000Z</time>
      </trkpt>
      <trkpt lat="48.72151" lon="1.73402">
        <ele>122.5</ele>
        <time>2015-06-19T10:00:18.000Z</time>
      </trkpt>
      <trkpt lat="48.72156" lon="1.73402">
        <ele>122.4</ele>
        <time>2015-06-19T10:00:21.000Z</time>
      </trkpt>
      <trkpt lat="48.72165" lon="1.73398">
        <ele>122.1</ele>
        <time>2015-06-19T10:00:27.000Z</time>
      </trkpt>
      <trkpt lat="48.72172" lon="1.73398">
        <ele>121.9</ele>
        <time>2015-06-19T10:00:31.000Z</time>
      </trkpt>
      <trkpt lat="48.72182" lon="1.73398">
        <ele>121.6</ele>
        <time>2015-06-19T10:00:38.000Z</time>
      </trkpt>
      <trkpt lat="48.72183" lon="1.73398">
        <ele>121.6</ele>
        <time>2015-06-19T10:00:39.000Z</time>
      </trkpt>
      <trkpt lat="48.72189" lon="1.73396">
        <ele>121.4</ele>
        <time>2015-06-19T10:00:43.000Z</time>
      </trkpt>
      <trkpt lat="48.72199" lon="1.7339">
        <ele>121</ele>
        <time>2015-06-19T10:00:50.000Z</time>
      </trkpt>
      <trkpt lat="48.72205" lon="1.73393">
        <ele>121.1</ele>
        <time>2015-06-19T10:00:55.000Z</time>
      </trkpt>
      <trkpt lat="48.72206" lon="1.73394">
        <ele>121.1</ele>
        <time>2015-06-19T10:00:56.000Z</time>
      </trkpt>
      <trkpt lat="48.72216" lon="1.73387">
        <ele>121</ele>
        <time>2015-06-19T10:01:04.000Z</time>
      </trkpt>
      <trkpt lat="48.72219" lon="1.73386">
        <ele>121</ele>
        <time>2015-06-19T10:01:06.000Z</time>
      </trkpt>
      <trkpt lat="48.72228" lon="1.73386">
        <ele>120.8</ele>
        <time>2015-06-19T10:01:12.000Z</time>
      </trkpt>
      <trkpt lat="48.72235" lon="1.73382">
        <ele>120.5</ele>
        <time>2015-06-19T10:01:19.000Z</time>
      </trkpt>
      <trkpt lat="48.7225" lon="1.73388">
        <ele>120</ele>
        <time>2015-06-19T10:01:26.000Z</time>
      </trkpt>
      <trkpt lat="48.72251" lon="1.73389">
        <ele>120</ele>
        <time>2015-06-19T10:01:27.000Z</time>
      </trkpt>
      <trkpt lat="48.7226" lon="1.7339">
        <ele>120</ele>
        <time>2015-06-19T10:01:34.000Z</time>
      </trkpt>
      <trkpt lat="48.72266" lon="1.73393">
        <ele>120</ele>
        <time>2015-06-19T10:01:39.000Z</time>
      </trkpt>
      <trkpt lat="48.72272" lon="1.73396">
        <ele>120</ele>
        <time>2015-06-19T10:01:45.000Z</time>
      </trkpt>
      <trkpt lat="48.72282" lon="1.73401">
        <ele>120</ele>
        <time>2015-06-19T10:01:53.000Z</time>
      </trkpt>
      <trkpt lat="48.72291" lon="1.73397">
        <ele>120</ele>
        <time>2015-06-19T10:02:00.000Z</time>
      </trkpt>
      <trkpt lat="48.72298" lon="1.734">
        <ele>120</ele>
        <time>2015-06-19T10:02:05.000Z</time>
      </trkpt>
      <trkpt lat="48.72307" lon="1.73409">
        <ele>120</ele>
        <time>2015-06-19T10:02:13.000Z</time>
      </trkpt>
      <trkpt lat="48.72318" lon="1.7341">
        <ele>119.5</ele>
        <time>2015-06-19T10:02:20.000Z</time>
      </trkpt>
      <trkpt lat="48.7232" lon="1.7341">
        <ele>119.5</ele>
        <time>2015-06-19T10:02:21.000Z</time>
      </trkpt>
      <trkpt lat="48.72328" lon="1.73411">
        <ele>119.2</ele>
        <time>2015-06-19T10:02:27.000Z</time>
      </trkpt>
      <trkpt lat="48.72332" lon="1.73408">
        <ele>119</ele>
        <time>2015-06-19T10:02:30.000Z</time>
      </trkpt>
      <trkpt lat="48.72338" lon="1.73409">
        <ele>119.2</ele>
        <time>2015-06-19T10:02:36.000Z</time>
      </trkpt>
      <trkpt lat="48.72344" lon="1.73411">
        <ele>119.4</ele>
        <time>2015-06-19T10:02:42.000Z</time>
      </trkpt>
      <trkpt lat="48.72352" lon="1.73411">
        <ele>119.7</ele>
        <time>2015-06-19T10:02:46.000Z</time>
      </trkpt>
      <trkpt lat="48.72361" lon="1.73415">
        <ele>120</ele>
        <time>2015-06-19T10:02:53.000Z</time>
      </trkpt>
      <trkpt lat="48.72362" lon="1.73416">
        <ele>120</ele>
        <time>2015-06-19T10:02:54.000Z</time>
      </trkpt>
      <trkpt lat="48.72371" lon="1.73422">
        <ele>120</ele>
        <time>2015-06-19T10:03:02.000Z</time>
      </trkpt>
      <trkpt lat="48.7238" lon="1.73425">
        <ele>120</ele>
        <time>2015-06-19T10:03:09.000Z</time>
      </trkpt>
      <trkpt lat="48.72384" lon="1.73424">
        <ele>120</ele>
        <time>2015-06-19T10:03:12.000Z</time>
      </trkpt>
      <trkpt lat="48.72392" lon="1.73427">
        <ele>120.1</ele>
        <time>2015-06-19T10:03:18.000Z</time>
      </trkpt>
      <trkpt lat="48.72395" lon="1.73427">
        <ele>120.1</ele>
        <time>2015-06-19T10:03:24.000Z</time>
      </trkpt>
      <trkpt lat="48.72396" lon="1.73426">
        <ele>120.2</ele>
        <time>2015-06-19T10:03:28.000Z</time>
      </trkpt>
      <trkpt lat="48.724" lon="1.73426">
        <ele>120.3</ele>
        <time>2015-06-19T10:03:32.000Z</time>
      </trkpt>
      <trkpt lat="48.72403" lon="1.73428">
        <ele>120.3</ele>
        <time>2015-06-19T10:03:33.000Z</time>
      </trkpt>
      <trkpt lat="48.72411" lon="1.7343">
        <ele>120.4</ele>
        <time>2015-06-19T10:03:39.000Z</time>
      </trkpt>
      <trkpt lat="48.72417" lon="1.73434">
        <ele>120.4</ele>
        <time>2015-06-19T10:03:44.000Z</time>
      </trkpt>
      <trkpt lat="48.72421" lon="1.73434">
        <ele>120.5</ele>
        <time>2015-06-19T10:03:48.000Z</time>
      </trkpt>
      <trkpt lat="48.72428" lon="1.73437">
        <ele>120.6</ele>
        <time>2015-06-19T10:03:53.000Z</time>
      </trkpt>
      <trkpt lat="48.72435" lon="1.73439">
        <ele>120.7</ele>
        <time>2015-06-19T10:03:58.000Z</time>
      </trkpt>
      <trkpt lat="48.7244" lon="1.7344">
        <ele>120.9</ele>
        <time>2015-06-19T10:04:02.000Z</time>
      </trkpt>
      <trkpt lat="48.7245" lon="1.73444">
        <ele>121.2</ele>
        <time>2015-06-19T10:04:10.000Z</time>
      </trkpt>
      <trkpt lat="48.72467" lon="1.73442">
        <ele>121.7</ele>
        <time>2015-06-19T10:04:18.000Z</time>
      </trkpt>
      <trkpt lat="48.72479" lon="1.73442">
        <ele>121.9</ele>
        <time>2015-06-19T10:04:25.000Z</time>
      </trkpt>
      <trkpt lat="48.72488" lon="1.73442">
        <ele>122</ele>
        <time>2015-06-19T10:04:32.000Z</time>
      </trkpt>
      <trkpt lat="48.72494" lon="1.73445">
        <ele>122</ele>
        <time>2015-06-19T10:04:38.000Z</time>
      </trkpt>
      <trkpt lat="48.72501" lon="1.73448">
        <ele>122</ele>
        <time>2015-06-19T10:04:44.000Z</time>
      </trkpt>
      <trkpt lat="48.72511" lon="1.73451">
        <ele>122.8</ele>
        <time>2015-06-19T10:04:52.000Z</time>
      </trkpt>
      <trkpt lat="48.72519" lon="1.73454">
        <ele>123.4</ele>
        <time>2015-06-19T10:04:59.000Z</time>
      </trkpt>
      <trkpt lat="48.72526" lon="1.73458">
        <ele>123.9</ele>
        <time>2015-06-19T10:05:05.000Z</time>
      </trkpt>
      <trkpt lat="48.72535" lon="1.73461">
        <ele>124.2</ele>
        <time>2015-06-19T10:05:12.000Z</time>
      </trkpt>
      <trkpt lat="48.72546" lon="1.73466">
        <ele>124.5</ele>
        <time>2015-06-19T10:05:18.000Z</time>
      </trkpt>
      <trkpt lat="48.72554" lon="1.73468">
        <ele>124.8</ele>
        <time>2015-06-19T10:05:23.000Z</time>
      </trkpt>
      <trkpt lat="48.72559" lon="1.73473">
        <ele>125</ele>
        <time>2015-06-19T10:05:27.000Z</time>
      </trkpt>
      <trkpt lat="48.72569" lon="1.73477">
        <ele>125.1</ele>
        <time>2015-06-19T10:05:33.000Z</time>
      </trkpt>
      <trkpt lat="48.72579" lon="1.73486">
        <ele>125.4</ele>
        <time>2015-06-19T10:05:41.000Z</time>
      </trkpt>
      <trkpt lat="48.72582" lon="1.73489">
        <ele>125.6</ele>
        <time>2015-06-19T10:05:44.000Z</time>
      </trkpt>
      <trkpt lat="48.72586" lon="1.73494">
        <ele>125.8</ele>
        <time>2015-06-19T10:05:49.000Z</time>
      </trkpt>
      <trkpt lat="48.72588" lon="1.73501">
        <ele>126</ele>
        <time>2015-06-19T10:05:54.000Z</time>
      </trkpt>
      <trkpt lat="48.72596" lon="1.73509">
        <ele>126</ele>
        <time>2015-06-19T10:06:01.000Z</time>
      </trkpt>
      <trkpt lat="48.72601" lon="1.73518">
        <ele>126</ele>
        <time>2015-06-19T10:06:07.000Z</time>
      </trkpt>
      <trkpt lat="48.72604" lon="1.73524">
        <ele>126</ele>
        <time>2015-06-19T10:06:11.000Z</time>
      </trkpt>
      <trkpt lat="48.72609" lon="1.73534">
        <ele>126</ele>
        <time>2015-06-19T10:06:17.000Z</time>
      </trkpt>
      <trkpt lat="48.7261" lon="1.73536">
        <ele>126</ele>
        <time>2015-06-19T10:06:18.000Z</time>
      </trkpt>
      <trkpt lat="48.72621" lon="1.73544">
        <ele>125.7</ele>
        <time>2015-06-19T10:06:26.000Z</time>
      </trkpt>
      <trkpt lat="48.7263" lon="1.73554">
        <ele>125.3</ele>
        <time>2015-06-19T10:06:34.000Z</time>
      </trkpt>
      <trkpt lat="48.72639" lon="1.73562">
        <ele>125.2</ele>
        <time>2015-06-19T10:06:41.000Z</time>
      </trkpt>
      <trkpt lat="48.72643" lon="1.73566">
        <ele>125.5</ele>
        <time>2015-06-19T10:06:45.000Z</time>
      </trkpt>
      <trkpt lat="48.72648" lon="1.73573">
        <ele>125.8</ele>
        <time>2015-06-19T10:06:51.000Z</time>
      </trkpt>
      <trkpt lat="48.72653" lon="1.73578">
        <ele>125.9</ele>
        <time>2015-06-19T10:06:55.000Z</time>
      </trkpt>
      <trkpt lat="48.72657" lon="1.73581">
        <ele>126</ele>
        <time>2015-06-19T10:06:59.000Z</time>
      </trkpt>
      <trkpt lat="48.72659" lon="1.73584">
        <ele>126</ele>
        <time>2015-06-19T10:07:01.000Z</time>
      </trkpt>
      <trkpt lat="48.72664" lon="1.73586">
        <ele>126.1</ele>
        <time>2015-06-19T10:07:06.000Z</time>
      </trkpt>
      <trkpt lat="48.72674" lon="1.73595">
        <ele>126.6</ele>
        <time>2015-06-19T10:07:13.000Z</time>
      </trkpt>
      <trkpt lat="48.72678" lon="1.73599">
        <ele>126.7</ele>
        <time>2015-06-19T10:07:16.000Z</time>
      </trkpt>
      <trkpt lat="48.72682" lon="1.73603">
        <ele>126.9</ele>
        <time>2015-06-19T10:07:20.000Z</time>
      </trkpt>
      <trkpt lat="48.72685" lon="1.73608">
        <ele>127</ele>
        <time>2015-06-19T10:07:26.000Z</time>
      </trkpt>
      <trkpt lat="48.72688" lon="1.73611">
        <ele>127</ele>
        <time>2015-06-19T10:07:29.000Z</time>
      </trkpt>
      <trkpt lat="48.72696" lon="1.73616">
        <ele>127.2</ele>
        <time>2015-06-19T10:07:36.000Z</time>
      </trkpt>
      <trkpt lat="48.72701" lon="1.73623">
        <ele>127.4</ele>
        <time>2015-06-19T10:07:42.000Z</time>
      </trkpt>
      <trkpt lat="48.72701" lon="1.73624">
        <ele>127.5</ele>
        <time>2015-06-19T10:07:43.000Z</time>
      </trkpt>
      <trkpt lat="48.72702" lon="1.73627">
        <ele>127.6</ele>
        <time>2015-06-19T10:07:46.000Z</time>
      </trkpt>
      <trkpt lat="48.7271" lon="1.73635">
        <ele>127.9</ele>
        <time>2015-06-19T10:07:53.000Z</time>
      </trkpt>
      <trkpt lat="48.72721" lon="1.73643">
        <ele>128.1</ele>
        <time>2015-06-19T10:08:01.000Z</time>
      </trkpt>
      <trkpt lat="48.72725" lon="1.73647">
        <ele>128.3</ele>
        <time>2015-06-19T10:08:04.000Z</time>
      </trkpt>
      <trkpt lat="48.72733" lon="1.73658">
        <ele>128.7</ele>
        <time>2015-06-19T10:08:13.000Z</time>
      </trkpt>
      <trkpt lat="48.72735" lon="1.73659">
        <ele>128.7</ele>
        <time>2015-06-19T10:08:18.000Z</time>
      </trkpt>
      <trkpt lat="48.72731" lon="1.73653">
        <ele>128.5</ele>
        <time>2015-06-19T10:08:31.000Z</time>
      </trkpt>
      <trkpt lat="48.72725" lon="1.73648">
        <ele>128.3</ele>
        <time>2015-06-19T10:08:34.000Z</time>
      </trkpt>
      <trkpt lat="48.72717" lon="1.73643">
        <ele>128.2</ele>
        <time>2015-06-19T10:08:40.000Z</time>
      </trkpt>
      <trkpt lat="48.7271" lon="1.73634">
        <ele>127.8</ele>
        <time>2015-06-19T10:08:47.000Z</time>
      </trkpt>
      <trkpt lat="48.72701" lon="1.73625">
        <ele>127.5</ele>
        <time>2015-06-19T10:08:54.000Z</time>
      </trkpt>
      <trkpt lat="48.72691" lon="1.73619">
        <ele>127.3</ele>
        <time>2015-06-19T10:09:01.000Z</time>
      </trkpt>
      <trkpt lat="48.72683" lon="1.73625">
        <ele>127.5</ele>
        <time>2015-06-19T10:09:07.000Z</time>
      </trkpt>
      <trkpt lat="48.72679" lon="1.73642">
        <ele>128.1</ele>
        <time>2015-06-19T10:09:11.000Z</time>
      </trkpt>
      <trkpt lat="48.72672" lon="1.7367">
        <ele>128.3</ele>
        <time>2015-06-19T10:09:16.000Z</time>
      </trkpt>
      <trkpt lat="48.72663" lon="1.73702">
        <ele>128.9</ele>
        <time>2015-06-19T10:09:22.000Z</time>
      </trkpt>
      <trkpt lat="48.72656" lon="1.73727">
        <ele>129.2</ele>
        <time>2015-06-19T10:09:27.000Z</time>
      </trkpt>
      <trkpt lat="48.72655" lon="1.7373">
        <ele>129.3</ele>
        <time>2015-06-19T10:09:29.000Z</time>
      </trkpt>
      <trkpt lat="48.72654" lon="1.73731">
        <ele>129.3</ele>
        <time>2015-06-19T10:09:32.000Z</time>
      </trkpt>
      <trkpt lat="48.72652" lon="1.73741">
        <ele>129.7</ele>
        <time>2015-06-19T10:09:38.000Z</time>
      </trkpt>
      <trkpt lat="48.72653" lon="1.73746">
        <ele>129.9</ele>
        <time>2015-06-19T10:09:41.000Z</time>
      </trkpt>
      <trkpt lat="48.72655" lon="1.73755">
        <ele>130</ele>
        <time>2015-06-19T10:09:46.000Z</time>
      </trkpt>
      <trkpt lat="48.72655" lon="1.73755">
        <ele>130</ele>
        <time>2015-06-19T10:09:47.000Z</time>
      </trkpt>
      <trkpt lat="48.72659" lon="1.73762">
        <ele>130</ele>
        <time>2015-06-19T10:09:54.000Z</time>
      </trkpt>
      <trkpt lat="48.72665" lon="1.73775">
        <ele>130</ele>
        <time>2015-06-19T10:09:59.000Z</time>
      </trkpt>
      <trkpt lat="48.72672" lon="1.73784">
        <ele>130</ele>
        <time>2015-06-19T10:10:04.000Z</time>
      </trkpt>
      <trkpt lat="48.72678" lon="1.73792">
        <ele>130.2</ele>
        <time>2015-06-19T10:10:09.000Z</time>
      </trkpt>
      <trkpt lat="48.72685" lon="1.73802">
        <ele>130.6</ele>
        <time>2015-06-19T10:10:15.000Z</time>
      </trkpt>
      <trkpt lat="48.72688" lon="1.73809">
        <ele>130.8</ele>
        <time>2015-06-19T10:10:19.000Z</time>
      </trkpt>
      <trkpt lat="48.72693" lon="1.73814">
        <ele>131</ele>
        <time>2015-06-19T10:10:23.000Z</time>
      </trkpt>
      <trkpt lat="48.72694" lon="1.73817">
        <ele>131</ele>
        <time>2015-06-19T10:10:25.000Z</time>
      </trkpt>
      <trkpt lat="48.72698" lon="1.73827">
        <ele>131.1</ele>
        <time>2015-06-19T10:10:30.000Z</time>
      </trkpt>
      <trkpt lat="48.72699" lon="1.73833">
        <ele>131.2</ele>
        <time>2015-06-19T10:10:32.000Z</time>
      </trkpt>
      <trkpt lat="48.72702" lon="1.73839">
        <ele>131.4</ele>
        <time>2015-06-19T10:10:35.000Z</time>
      </trkpt>
      <trkpt lat="48.72706" lon="1.73848">
        <ele>131.7</ele>
        <time>2015-06-19T10:10:40.000Z</time>
      </trkpt>
      <trkpt lat="48.7271" lon="1.73866">
        <ele>132.1</ele>
        <time>2015-06-19T10:10:48.000Z</time>
      </trkpt>
      <trkpt lat="48.72712" lon="1.73874">
        <ele>132.3</ele>
        <time>2015-06-19T10:10:52.000Z</time>
      </trkpt>
      <trkpt lat="48.72717" lon="1.73885">
        <ele>132.7</ele>
        <time>2015-06-19T10:10:58.000Z</time>
      </trkpt>
      <trkpt lat="48.7272" lon="1.739">
        <ele>132.9</ele>
        <time>2015-06-19T10:11:03.000Z</time>
      </trkpt>
      <trkpt lat="48.72725" lon="1.73921">
        <ele>133.2</ele>
        <time>2015-06-19T10:11:08.000Z</time>
      </trkpt>
      <trkpt lat="48.72732" lon="1.73942">
        <ele>134.3</ele>
        <time>2015-06-19T10:11:13.000Z</time>
      </trkpt>
      <trkpt lat="48.72736" lon="1.73958">
        <ele>134.5</ele>
        <time>2015-06-19T10:11:16.000Z</time>
      </trkpt>
      <trkpt lat="48.72739" lon="1.73969">
        <ele>134.6</ele>
        <time>2015-06-19T10:11:18.000Z</time>
      </trkpt>
      <trkpt lat="48.72744" lon="1.73997">
        <ele>134.8</ele>
        <time>2015-06-19T10:11:23.000Z</time>
      </trkpt>
      <trkpt lat="48.72755" lon="1.74031">
        <ele>135.5</ele>
        <time>2015-06-19T10:11:30.000Z</time>
      </trkpt>
      <trkpt lat="48.72761" lon="1.74054">
        <ele>136.4</ele>
        <time>2015-06-19T10:11:35.000Z</time>
      </trkpt>
      <trkpt lat="48.72768" lon="1.74074">
        <ele>136.6</ele>
        <time>2015-06-19T10:11:39.000Z</time>
      </trkpt>
      <trkpt lat="48.72776" lon="1.74097">
        <ele>136.9</ele>
        <time>2015-06-19T10:11:44.000Z</time>
      </trkpt>
      <trkpt lat="48.72784" lon="1.74125">
        <ele>137.1</ele>
        <time>2015-06-19T10:11:50.000Z</time>
      </trkpt>
      <trkpt lat="48.72785" lon="1.74128">
        <ele>137.1</ele>
        <time>2015-06-19T10:11:51.000Z</time>
      </trkpt>
      <trkpt lat="48.72788" lon="1.74148">
        <ele>137.1</ele>
        <time>2015-06-19T10:11:55.000Z</time>
      </trkpt>
      <trkpt lat="48.72797" lon="1.7417">
        <ele>137.7</ele>
        <time>2015-06-19T10:12:00.000Z</time>
      </trkpt>
      <trkpt lat="48.72803" lon="1.74191">
        <ele>138</ele>
        <time>2015-06-19T10:12:03.000Z</time>
      </trkpt>
      <trkpt lat="48.72808" lon="1.74205">
        <ele>138</ele>
        <time>2015-06-19T10:12:05.000Z</time>
      </trkpt>
      <trkpt lat="48.72811" lon="1.74218">
        <ele>138.2</ele>
        <time>2015-06-19T10:12:07.000Z</time>
      </trkpt>
      <trkpt lat="48.72813" lon="1.74245">
        <ele>138.9</ele>
        <time>2015-06-19T10:12:12.000Z</time>
      </trkpt>
      <trkpt lat="48.72816" lon="1.74273">
        <ele>139.3</ele>
        <time>2015-06-19T10:12:19.000Z</time>
      </trkpt>
      <trkpt lat="48.72819" lon="1.74301">
        <ele>139.5</ele>
        <time>2015-06-19T10:12:24.000Z</time>
      </trkpt>
      <trkpt lat="48.72822" lon="1.74326">
        <ele>139.2</ele>
        <time>2015-06-19T10:12:29.000Z</time>
      </trkpt>
      <trkpt lat="48.72827" lon="1.74356">
        <ele>138.2</ele>
        <time>2015-06-19T10:12:34.000Z</time>
      </trkpt>
      <trkpt lat="48.72835" lon="1.74374">
        <ele>138.1</ele>
        <time>2015-06-19T10:12:38.000Z</time>
      </trkpt>
      <trkpt lat="48.72847" lon="1.74397">
        <ele>138.2</ele>
        <time>2015-06-19T10:12:43.000Z</time>
      </trkpt>
      <trkpt lat="48.72859" lon="1.74413">
        <ele>138.1</ele>
        <time>2015-06-19T10:12:47.000Z</time>
      </trkpt>
      <trkpt lat="48.72862" lon="1.74432">
        <ele>137.5</ele>
        <time>2015-06-19T10:12:51.000Z</time>
      </trkpt>
      <trkpt lat="48.72875" lon="1.74465">
        <ele>138.5</ele>
        <time>2015-06-19T10:12:57.000Z</time>
      </trkpt>
      <trkpt lat="48.7288" lon="1.74483">
        <ele>138.8</ele>
        <time>2015-06-19T10:13:00.000Z</time>
      </trkpt>
      <trkpt lat="48.72879" lon="1.74496">
        <ele>138.4</ele>
        <time>2015-06-19T10:13:02.000Z</time>
      </trkpt>
      <trkpt lat="48.72884" lon="1.74529">
        <ele>137.4</ele>
        <time>2015-06-19T10:13:09.000Z</time>
      </trkpt>
      <trkpt lat="48.72896" lon="1.74541">
        <ele>137.5</ele>
        <time>2015-06-19T10:13:14.000Z</time>
      </trkpt>
      <trkpt lat="48.72897" lon="1.74544">
        <ele>137.3</ele>
        <time>2015-06-19T10:13:15.000Z</time>
      </trkpt>
      <trkpt lat="48.72898" lon="1.74544">
        <ele>137.3</ele>
        <time>2015-06-19T10:13:19.000Z</time>
      </trkpt>
      <trkpt lat="48.72902" lon="1.7455">
        <ele>137.2</ele>
        <time>2015-06-19T10:13:26.000Z</time>
      </trkpt>
      <trkpt lat="48.72907" lon="1.74555">
        <ele>137.4</ele>
        <time>2015-06-19T10:13:30.000Z</time>
      </trkpt>
      <trkpt lat="48.72913" lon="1.74561">
        <ele>137.7</ele>
        <time>2015-06-19T10:13:36.000Z</time>
      </trkpt>
      <trkpt lat="48.72923" lon="1.74566">
        <ele>138.3</ele>
        <time>2015-06-19T10:13:44.000Z</time>
      </trkpt>
      <trkpt lat="48.72931" lon="1.7457">
        <ele>138.8</ele>
        <time>2015-06-19T10:13:50.000Z</time>
      </trkpt>
      <trkpt lat="48.72942" lon="1.74571">
        <ele>139.4</ele>
        <time>2015-06-19T10:13:56.000Z</time>
      </trkpt>
      <trkpt lat="48.7295" lon="1.74573">
        <ele>139.9</ele>
        <time>2015-06-19T10:14:02.000Z</time>
      </trkpt>
      <trkpt lat="48.72952" lon="1.74576">
        <ele>140.1</ele>
        <time>2015-06-19T10:14:05.000Z</time>
      </trkpt>
      <trkpt lat="48.72958" lon="1.74581">
        <ele>140.5</ele>
        <time>2015-06-19T10:14:10.000Z</time>
      </trkpt>
      <trkpt lat="48.72969" lon="1.7459">
        <ele>141.3</ele>
        <time>2015-06-19T10:14:18.000Z</time>
      </trkpt>
      <trkpt lat="48.7298" lon="1.74603">
        <ele>142.4</ele>
        <time>2015-06-19T10:14:28.000Z</time>
      </trkpt>
      <trkpt lat="48.72987" lon="1.74613">
        <ele>143.1</ele>
        <time>2015-06-19T10:14:36.000Z</time>
      </trkpt>
      <trkpt lat="48.72993" lon="1.74624">
        <ele>143.8</ele>
        <time>2015-06-19T10:14:44.000Z</time>
      </trkpt>
      <trkpt lat="48.72998" lon="1.74633">
        <ele>144.5</ele>
        <time>2015-06-19T10:14:51.000Z</time>
      </trkpt>
      <trkpt lat="48.73007" lon="1.74641">
        <ele>144.7</ele>
        <time>2015-06-19T10:14:58.000Z</time>
      </trkpt>
      <trkpt lat="48.73013" lon="1.74649">
        <ele>144.8</ele>
        <time>2015-06-19T10:15:04.000Z</time>
      </trkpt>
      <trkpt lat="48.73015" lon="1.74651">
        <ele>144.8</ele>
        <time>2015-06-19T10:15:05.000Z</time>
      </trkpt>
      <trkpt lat="48.7302" lon="1.74658">
        <ele>145</ele>
        <time>2015-06-19T10:15:10.000Z</time>
      </trkpt>
      <trkpt lat="48.73026" lon="1.74668">
        <ele>145.2</ele>
        <time>2015-06-19T10:15:16.000Z</time>
      </trkpt>
      <trkpt lat="48.73028" lon="1.74673">
        <ele>145.2</ele>
        <time>2015-06-19T10:15:20.000Z</time>
      </trkpt>
      <trkpt lat="48.7303" lon="1.7468">
        <ele>145.3</ele>
        <time>2015-06-19T10:15:23.000Z</time>
      </trkpt>
      <trkpt lat="48.73032" lon="1.7469">
        <ele>145.5</ele>
        <time>2015-06-19T10:15:28.000Z</time>
      </trkpt>
      <trkpt lat="48.73035" lon="1.747">
        <ele>145.4</ele>
        <time>2015-06-19T10:15:33.000Z</time>
      </trkpt>
      <trkpt lat="48.73038" lon="1.74716">
        <ele>145</ele>
        <time>2015-06-19T10:15:40.000Z</time>
      </trkpt>
      <trkpt lat="48.73039" lon="1.74718">
        <ele>144.8</ele>
        <time>2015-06-19T10:15:41.000Z</time>
      </trkpt>
      <trkpt lat="48.73041" lon="1.74727">
        <ele>144.5</ele>
        <time>2015-06-19T10:15:45.000Z</time>
      </trkpt>
      <trkpt lat="48.73044" lon="1.7474">
        <ele>144</ele>
        <time>2015-06-19T10:15:51.000Z</time>
      </trkpt>
      <trkpt lat="48.73048" lon="1.74752">
        <ele>143.5</ele>
        <time>2015-06-19T10:15:57.000Z</time>
      </trkpt>
      <trkpt lat="48.7305" lon="1.74764">
        <ele>143</ele>
        <time>2015-06-19T10:16:02.000Z</time>
      </trkpt>
      <trkpt lat="48.73052" lon="1.74768">
        <ele>142.7</ele>
        <time>2015-06-19T10:16:04.000Z</time>
      </trkpt>
      <trkpt lat="48.73053" lon="1.74781">
        <ele>142.3</ele>
        <time>2015-06-19T10:16:11.000Z</time>
      </trkpt>
      <trkpt lat="48.73054" lon="1.74784">
        <ele>142.2</ele>
        <time>2015-06-19T10:16:13.000Z</time>
      </trkpt>
      <trkpt lat="48.73056" lon="1.74798">
        <ele>142</ele>
        <time>2015-06-19T10:16:20.000Z</time>
      </trkpt>
      <trkpt lat="48.73058" lon="1.74804">
        <ele>141.9</ele>
        <time>2015-06-19T10:16:24.000Z</time>
      </trkpt>
      <trkpt lat="48.7306" lon="1.74814">
        <ele>141.9</ele>
        <time>2015-06-19T10:16:29.000Z</time>
      </trkpt>
      <trkpt lat="48.7306" lon="1.74828">
        <ele>142.1</ele>
        <time>2015-06-19T10:16:34.000Z</time>
      </trkpt>
      <trkpt lat="48.7306" lon="1.74835">
        <ele>142.2</ele>
        <time>2015-06-19T10:16:38.000Z</time>
      </trkpt>
      <trkpt lat="48.73063" lon="1.74852">
        <ele>143.1</ele>
        <time>2015-06-19T10:16:46.000Z</time>
      </trkpt>
      <trkpt lat="48.73063" lon="1.74856">
        <ele>143.3</ele>
        <time>2015-06-19T10:16:48.000Z</time>
      </trkpt>
      <trkpt lat="48.73064" lon="1.74871">
        <ele>144</ele>
        <time>2015-06-19T10:16:55.000Z</time>
      </trkpt>
      <trkpt lat="48.73062" lon="1.74876">
        <ele>144</ele>
        <time>2015-06-19T10:16:57.000Z</time>
      </trkpt>
      <trkpt lat="48.73061" lon="1.74885">
        <ele>144.3</ele>
        <time>2015-06-19T10:17:03.000Z</time>
      </trkpt>
      <trkpt lat="48.73058" lon="1.74894">
        <ele>144.5</ele>
        <time>2015-06-19T10:17:07.000Z</time>
      </trkpt>
      <trkpt lat="48.73057" lon="1.74899">
        <ele>144.9</ele>
        <time>2015-06-19T10:17:10.000Z</time>
      </trkpt>
      <trkpt lat="48.7306" lon="1.74912">
        <ele>145.8</ele>
        <time>2015-06-19T10:17:18.000Z</time>
      </trkpt>
      <trkpt lat="48.73064" lon="1.74921">
        <ele>146.6</ele>
        <time>2015-06-19T10:17:24.000Z</time>
      </trkpt>
      <trkpt lat="48.73065" lon="1.74923">
        <ele>146.7</ele>
        <time>2015-06-19T10:17:25.000Z</time>
      </trkpt>
      <trkpt lat="48.73066" lon="1.74928">
        <ele>147.1</ele>
        <time>2015-06-19T10:17:28.000Z</time>
      </trkpt>
      <trkpt lat="48.73067" lon="1.74939">
        <ele>147.7</ele>
        <time>2015-06-19T10:17:34.000Z</time>
      </trkpt>
      <trkpt lat="48.73071" lon="1.74947">
        <ele>148.1</ele>
        <time>2015-06-19T10:17:40.000Z</time>
      </trkpt>
      <trkpt lat="48.73071" lon="1.74957">
        <ele>148.5</ele>
        <time>2015-06-19T10:17:46.000Z</time>
      </trkpt>
      <trkpt lat="48.7307" lon="1.74959">
        <ele>148.5</ele>
        <time>2015-06-19T10:17:47.000Z</time>
      </trkpt>
      <trkpt lat="48.73071" lon="1.7497">
        <ele>148.9</ele>
        <time>2015-06-19T10:17:55.000Z</time>
      </trkpt>
      <trkpt lat="48.73072" lon="1.74983">
        <ele>149.4</ele>
        <time>2015-06-19T10:18:03.000Z</time>
      </trkpt>
      <trkpt lat="48.73073" lon="1.74992">
        <ele>149.7</ele>
        <time>2015-06-19T10:18:09.000Z</time>
      </trkpt>
      <trkpt lat="48.73069" lon="1.75002">
        <ele>150.1</ele>
        <time>2015-06-19T10:18:13.000Z</time>
      </trkpt>
      <trkpt lat="48.73067" lon="1.75016">
        <ele>150.6</ele>
        <time>2015-06-19T10:18:19.000Z</time>
      </trkpt>
      <trkpt lat="48.73067" lon="1.75019">
        <ele>150.7</ele>
        <time>2015-06-19T10:18:21.000Z</time>
      </trkpt>
      <trkpt lat="48.73067" lon="1.75027">
        <ele>151</ele>
        <time>2015-06-19T10:18:25.000Z</time>
      </trkpt>
      <trkpt lat="48.73068" lon="1.75046">
        <ele>151.9</ele>
        <time>2015-06-19T10:18:33.000Z</time>
      </trkpt>
      <trkpt lat="48.73066" lon="1.75056">
        <ele>152.4</ele>
        <time>2015-06-19T10:18:38.000Z</time>
      </trkpt>
      <trkpt lat="48.73067" lon="1.75061">
        <ele>152.6</ele>
        <time>2015-06-19T10:18:40.000Z</time>
      </trkpt>
      <trkpt lat="48.73067" lon="1.75075">
        <ele>153.1</ele>
        <time>2015-06-19T10:18:47.000Z</time>
      </trkpt>
      <trkpt lat="48.73068" lon="1.75094">
        <ele>154</ele>
        <time>2015-06-19T10:18:56.000Z</time>
      </trkpt>
      <trkpt lat="48.73068" lon="1.75106">
        <ele>154.6</ele>
        <time>2015-06-19T10:19:02.000Z</time>
      </trkpt>
      <trkpt lat="48.7307" lon="1.75117">
        <ele>155.4</ele>
        <time>2015-06-19T10:19:08.000Z</time>
      </trkpt>
      <trkpt lat="48.73072" lon="1.75128">
        <ele>156</ele>
        <time>2015-06-19T10:19:14.000Z</time>
      </trkpt>
      <trkpt lat="48.73071" lon="1.75135">
        <ele>156.4</ele>
        <time>2015-06-19T10:19:18.000Z</time>
      </trkpt>
      <trkpt lat="48.73073" lon="1.75147">
        <ele>157.1</ele>
        <time>2015-06-19T10:19:24.000Z</time>
      </trkpt>
      <trkpt lat="48.73073" lon="1.75157">
        <ele>157.7</ele>
        <time>2015-06-19T10:19:29.000Z</time>
      </trkpt>
      <trkpt lat="48.73073" lon="1.75171">
        <ele>158.5</ele>
        <time>2015-06-19T10:19:35.000Z</time>
      </trkpt>
      <trkpt lat="48.73073" lon="1.75173">
        <ele>158.6</ele>
        <time>2015-06-19T10:19:37.000Z</time>
      </trkpt>
      <trkpt lat="48.73069" lon="1.75186">
        <ele>158.9</ele>
        <time>2015-06-19T10:19:44.000Z</time>
      </trkpt>
      <trkpt lat="48.73068" lon="1.75187">
        <ele>159</ele>
        <time>2015-06-19T10:19:45.000Z</time>
      </trkpt>
      <trkpt lat="48.73067" lon="1.75197">
        <ele>159.5</ele>
        <time>2015-06-19T10:19:49.000Z</time>
      </trkpt>
      <trkpt lat="48.73066" lon="1.75209">
        <ele>160.2</ele>
        <time>2015-06-19T10:19:55.000Z</time>
      </trkpt>
      <trkpt lat="48.73064" lon="1.75218">
        <ele>160.6</ele>
        <time>2015-06-19T10:20:00.000Z</time>
      </trkpt>
      <trkpt lat="48.73065" lon="1.75229">
        <ele>161.4</ele>
        <time>2015-06-19T10:20:06.000Z</time>
      </trkpt>
      <trkpt lat="48.73064" lon="1.75231">
        <ele>161.5</ele>
        <time>2015-06-19T10:20:07.000Z</time>
      </trkpt>
      <trkpt lat="48.73065" lon="1.75234">
        <ele>161.8</ele>
        <time>2015-06-19T10:20:10.000Z</time>
      </trkpt>
      <trkpt lat="48.73066" lon="1.75239">
        <ele>162.3</ele>
        <time>2015-06-19T10:20:14.000Z</time>
      </trkpt>
      <trkpt lat="48.73066" lon="1.75247">
        <ele>162.7</ele>
        <time>2015-06-19T10:20:18.000Z</time>
      </trkpt>
      <trkpt lat="48.73066" lon="1.7526">
        <ele>163.7</ele>
        <time>2015-06-19T10:20:25.000Z</time>
      </trkpt>
      <trkpt lat="48.73068" lon="1.75276">
        <ele>165.1</ele>
        <time>2015-06-19T10:20:32.000Z</time>
      </trkpt>
      <trkpt lat="48.73068" lon="1.75293">
        <ele>166.1</ele>
        <time>2015-06-19T10:20:39.000Z</time>
      </trkpt>
      <trkpt lat="48.73069" lon="1.75302">
        <ele>166.7</ele>
        <time>2015-06-19T10:20:44.000Z</time>
      </trkpt>
      <trkpt lat="48.7307" lon="1.75308">
        <ele>167.1</ele>
        <time>2015-06-19T10:20:48.000Z</time>
      </trkpt>
      <trkpt lat="48.73069" lon="1.75317">
        <ele>167.4</ele>
        <time>2015-06-19T10:20:52.000Z</time>
      </trkpt>
      <trkpt lat="48.73064" lon="1.7533">
        <ele>167.1</ele>
        <time>2015-06-19T10:20:57.000Z</time>
      </trkpt>
      <trkpt lat="48.73064" lon="1.75332">
        <ele>167.2</ele>
        <time>2015-06-19T10:20:58.000Z</time>
      </trkpt>
      <trkpt lat="48.73064" lon="1.75346">
        <ele>167.7</ele>
        <time>2015-06-19T10:21:07.000Z</time>
      </trkpt>
      <trkpt lat="48.73063" lon="1.75354">
        <ele>167.8</ele>
        <time>2015-06-19T10:21:13.000Z</time>
      </trkpt>
      <trkpt lat="48.73063" lon="1.75364">
        <ele>168.3</ele>
        <time>2015-06-19T10:21:18.000Z</time>
      </trkpt>
      <trkpt lat="48.73063" lon="1.75366">
        <ele>168.5</ele>
        <time>2015-06-19T10:21:19.000Z</time>
      </trkpt>
      <trkpt lat="48.73064" lon="1.75377">
        <ele>169.6</ele>
        <time>2015-06-19T10:21:25.000Z</time>
      </trkpt>
      <trkpt lat="48.73065" lon="1.75393">
        <ele>171</ele>
        <time>2015-06-19T10:21:32.000Z</time>
      </trkpt>
      <trkpt lat="48.73065" lon="1.75401">
        <ele>171.8</ele>
        <time>2015-06-19T10:21:38.000Z</time>
      </trkpt>
      <trkpt lat="48.73063" lon="1.75404">
        <ele>172.1</ele>
        <time>2015-06-19T10:21:40.000Z</time>
      </trkpt>
      <trkpt lat="48.73065" lon="1.75418">
        <ele>173.4</ele>
        <time>2015-06-19T10:21:47.000Z</time>
      </trkpt>
      <trkpt lat="48.73065" lon="1.75423">
        <ele>173.5</ele>
        <time>2015-06-19T10:21:49.000Z</time>
      </trkpt>
      <trkpt lat="48.73064" lon="1.75427">
        <ele>173.6</ele>
        <time>2015-06-19T10:21:51.000Z</time>
      </trkpt>
      <trkpt lat="48.73063" lon="1.75431">
        <ele>173.6</ele>
        <time>2015-06-19T10:21:54.000Z</time>
      </trkpt>
      <trkpt lat="48.73065" lon="1.75445">
        <ele>174</ele>
        <time>2015-06-19T10:22:02.000Z</time>
      </trkpt>
      <trkpt lat="48.73067" lon="1.75453">
        <ele>174.3</ele>
        <time>2015-06-19T10:22:07.000Z</time>
      </trkpt>
      <trkpt lat="48.73066" lon="1.7546">
        <ele>174.6</ele>
        <time>2015-06-19T10:22:11.000Z</time>
      </trkpt>
      <trkpt lat="48.73065" lon="1.75473">
        <ele>175</ele>
        <time>2015-06-19T10:22:17.000Z</time>
      </trkpt>
      <trkpt lat="48.73065" lon="1.7548">
        <ele>175</ele>
        <time>2015-06-19T10:22:21.000Z</time>
      </trkpt>
      <trkpt lat="48.73065" lon="1.755">
        <ele>175</ele>
        <time>2015-06-19T10:22:30.000Z</time>
      </trkpt>
      <trkpt lat="48.73063" lon="1.75509">
        <ele>175</ele>
        <time>2015-06-19T10:22:34.000Z</time>
      </trkpt>
      <trkpt lat="48.73061" lon="1.75519">
        <ele>175</ele>
        <time>2015-06-19T10:22:39.000Z</time>
      </trkpt>
      <trkpt lat="48.7306" lon="1.75533">
        <ele>175</ele>
        <time>2015-06-19T10:22:45.000Z</time>
      </trkpt>
      <trkpt lat="48.7306" lon="1.75545">
        <ele>175</ele>
        <time>2015-06-19T10:22:51.000Z</time>
      </trkpt>
      <trkpt lat="48.73061" lon="1.75546">
        <ele>175</ele>
        <time>2015-06-19T10:22:52.000Z</time>
      </trkpt>
      <trkpt lat="48.7306" lon="1.75565">
        <ele>175</ele>
        <time>2015-06-19T10:23:01.000Z</time>
      </trkpt>
      <trkpt lat="48.73058" lon="1.75579">
        <ele>175</ele>
        <time>2015-06-19T10:23:08.000Z</time>
      </trkpt>
      <trkpt lat="48.73056" lon="1.7559">
        <ele>175.3</ele>
        <time>2015-06-19T10:23:13.000Z</time>
      </trkpt>
      <trkpt lat="48.73055" lon="1.75601">
        <ele>175.6</ele>
        <time>2015-06-19T10:23:18.000Z</time>
      </trkpt>
      <trkpt lat="48.73054" lon="1.75616">
        <ele>176</ele>
        <time>2015-06-19T10:23:25.000Z</time>
      </trkpt>
      <trkpt lat="48.73054" lon="1.75618">
        <ele>176</ele>
        <time>2015-06-19T10:23:26.000Z</time>
      </trkpt>
      <trkpt lat="48.73053" lon="1.75634">
        <ele>176</ele>
        <time>2015-06-19T10:23:33.000Z</time>
      </trkpt>
      <trkpt lat="48.73052" lon="1.75651">
        <ele>176</ele>
        <time>2015-06-19T10:23:41.000Z</time>
      </trkpt>
      <trkpt lat="48.7305" lon="1.75666">
        <ele>176</ele>
        <time>2015-06-19T10:23:48.000Z</time>
      </trkpt>
      <trkpt lat="48.73049" lon="1.75677">
        <ele>176</ele>
        <time>2015-06-19T10:23:53.000Z</time>
      </trkpt>
      <trkpt lat="48.73049" lon="1.75685">
        <ele>176</ele>
        <time>2015-06-19T10:23:57.000Z</time>
      </trkpt>
      <trkpt lat="48.7305" lon="1.757">
        <ele>176</ele>
        <time>2015-06-19T10:24:04.000Z</time>
      </trkpt>
      <trkpt lat="48.7305" lon="1.75708">
        <ele>176</ele>
        <time>2015-06-19T10:24:08.000Z</time>
      </trkpt>
      <trkpt lat="48.7305" lon="1.75729">
        <ele>176</ele>
        <time>2015-06-19T10:24:16.000Z</time>
      </trkpt>
      <trkpt lat="48.73051" lon="1.75744">
        <ele>176</ele>
        <time>2015-06-19T10:24:22.000Z</time>
      </trkpt>
      <trkpt lat="48.7305" lon="1.75756">
        <ele>176</ele>
        <time>2015-06-19T10:24:28.000Z</time>
      </trkpt>
      <trkpt lat="48.73048" lon="1.75774">
        <ele>176</ele>
        <time>2015-06-19T10:24:35.000Z</time>
      </trkpt>
      <trkpt lat="48.73047" lon="1.75787">
        <ele>175.9</ele>
        <time>2015-06-19T10:24:41.000Z</time>
      </trkpt>
      <trkpt lat="48.73047" lon="1.75801">
        <ele>175.7</ele>
        <time>2015-06-19T10:24:47.000Z</time>
      </trkpt>
      <trkpt lat="48.73043" lon="1.75819">
        <ele>175.6</ele>
        <time>2015-06-19T10:24:54.000Z</time>
      </trkpt>
      <trkpt lat="48.73044" lon="1.7583">
        <ele>175.6</ele>
        <time>2015-06-19T10:24:59.000Z</time>
      </trkpt>
      <trkpt lat="48.73045" lon="1.75837">
        <ele>175.6</ele>
        <time>2015-06-19T10:25:02.000Z</time>
      </trkpt>
      <trkpt lat="48.73045" lon="1.75847">
        <ele>175.6</ele>
        <time>2015-06-19T10:25:06.000Z</time>
      </trkpt>
      <trkpt lat="48.73045" lon="1.75864">
        <ele>175.6</ele>
        <time>2015-06-19T10:25:14.000Z</time>
      </trkpt>
      <trkpt lat="48.73045" lon="1.75873">
        <ele>175.6</ele>
        <time>2015-06-19T10:25:18.000Z</time>
      </trkpt>
      <trkpt lat="48.73042" lon="1.75885">
        <ele>175.5</ele>
        <time>2015-06-19T10:25:23.000Z</time>
      </trkpt>
      <trkpt lat="48.7304" lon="1.75902">
        <ele>175.1</ele>
        <time>2015-06-19T10:25:29.000Z</time>
      </trkpt>
      <trkpt lat="48.73039" lon="1.75914">
        <ele>174.9</ele>
        <time>2015-06-19T10:25:34.000Z</time>
      </trkpt>
      <trkpt lat="48.73038" lon="1.75931">
        <ele>174.5</ele>
        <time>2015-06-19T10:25:41.000Z</time>
      </trkpt>
      <trkpt lat="48.73036" lon="1.75946">
        <ele>174.3</ele>
        <time>2015-06-19T10:25:48.000Z</time>
      </trkpt>
      <trkpt lat="48.73035" lon="1.75949">
        <ele>174.3</ele>
        <time>2015-06-19T10:25:49.000Z</time>
      </trkpt>
      <trkpt lat="48.73038" lon="1.75949">
        <ele>174.4</ele>
        <time>2015-06-19T10:25:56.000Z</time>
      </trkpt>
      <trkpt lat="48.73043" lon="1.75946">
        <ele>174.6</ele>
        <time>2015-06-19T10:26:01.000Z</time>
      </trkpt>
      <trkpt lat="48.73052" lon="1.7594">
        <ele>175</ele>
        <time>2015-06-19T10:26:08.000Z</time>
      </trkpt>
      <trkpt lat="48.73053" lon="1.75939">
        <ele>175.1</ele>
        <time>2015-06-19T10:26:09.000Z</time>
      </trkpt>
      <trkpt lat="48.73064" lon="1.7593">
        <ele>175.7</ele>
        <time>2015-06-19T10:26:17.000Z</time>
      </trkpt>
      <trkpt lat="48.73068" lon="1.75928">
        <ele>175.8</ele>
        <time>2015-06-19T10:26:20.000Z</time>
      </trkpt>
      <trkpt lat="48.73072" lon="1.75921">
        <ele>175.9</ele>
        <time>2015-06-19T10:26:25.000Z</time>
      </trkpt>
      <trkpt lat="48.73075" lon="1.75919">
        <ele>176</ele>
        <time>2015-06-19T10:26:27.000Z</time>
      </trkpt>
      <trkpt lat="48.73083" lon="1.75909">
        <ele>176</ele>
        <time>2015-06-19T10:26:34.000Z</time>
      </trkpt>
      <trkpt lat="48.73093" lon="1.759">
        <ele>176.4</ele>
        <time>2015-06-19T10:26:42.000Z</time>
      </trkpt>
      <trkpt lat="48.73101" lon="1.75895">
        <ele>176.6</ele>
        <time>2015-06-19T10:26:47.000Z</time>
      </trkpt>
      <trkpt lat="48.73108" lon="1.75889">
        <ele>176.9</ele>
        <time>2015-06-19T10:26:52.000Z</time>
      </trkpt>
      <trkpt lat="48.73117" lon="1.75883">
        <ele>176.8</ele>
        <time>2015-06-19T10:26:59.000Z</time>
      </trkpt>
      <trkpt lat="48.73125" lon="1.75877">
        <ele>176.8</ele>
        <time>2015-06-19T10:27:06.000Z</time>
      </trkpt>
      <trkpt lat="48.73128" lon="1.75875">
        <ele>176.8</ele>
        <time>2015-06-19T10:27:08.000Z</time>
      </trkpt>
      <trkpt lat="48.73133" lon="1.75873">
        <ele>176.9</ele>
        <time>2015-06-19T10:27:12.000Z</time>
      </trkpt>
      <trkpt lat="48.73141" lon="1.75872">
        <ele>177</ele>
        <time>2015-06-19T10:27:18.000Z</time>
      </trkpt>
      <trkpt lat="48.73144" lon="1.75873">
        <ele>177.1</ele>
        <time>2015-06-19T10:27:20.000Z</time>
      </trkpt>
      <trkpt lat="48.73152" lon="1.75868">
        <ele>177.1</ele>
        <time>2015-06-19T10:27:27.000Z</time>
      </trkpt>
      <trkpt lat="48.73158" lon="1.75863">
        <ele>177</ele>
        <time>2015-06-19T10:27:32.000Z</time>
      </trkpt>
      <trkpt lat="48.73163" lon="1.75859">
        <ele>177</ele>
        <time>2015-06-19T10:27:36.000Z</time>
      </trkpt>
      <trkpt lat="48.73168" lon="1.75855">
        <ele>177</ele>
        <time>2015-06-19T10:27:40.000Z</time>
      </trkpt>
      <trkpt lat="48.73179" lon="1.75845">
        <ele>177.2</ele>
        <time>2015-06-19T10:27:48.000Z</time>
      </trkpt>
      <trkpt lat="48.73181" lon="1.75845">
        <ele>177.2</ele>
        <time>2015-06-19T10:27:51.000Z</time>
      </trkpt>
      <trkpt lat="48.73187" lon="1.75841">
        <ele>177.2</ele>
        <time>2015-06-19T10:27:56.000Z</time>
      </trkpt>
      <trkpt lat="48.73192" lon="1.75836">
        <ele>177.1</ele>
        <time>2015-06-19T10:28:01.000Z</time>
      </trkpt>
      <trkpt lat="48.73199" lon="1.75828">
        <ele>177.1</ele>
        <time>2015-06-19T10:28:08.000Z</time>
      </trkpt>
      <trkpt lat="48.73208" lon="1.7582">
        <ele>177.2</ele>
        <time>2015-06-19T10:28:14.000Z</time>
      </trkpt>
      <trkpt lat="48.73209" lon="1.75818">
        <ele>177.2</ele>
        <time>2015-06-19T10:28:15.000Z</time>
      </trkpt>
      <trkpt lat="48.73216" lon="1.75813">
        <ele>177.2</ele>
        <time>2015-06-19T10:28:21.000Z</time>
      </trkpt>
      <trkpt lat="48.7322" lon="1.7581">
        <ele>177.2</ele>
        <time>2015-06-19T10:28:23.000Z</time>
      </trkpt>
      <trkpt lat="48.73228" lon="1.75807">
        <ele>177.2</ele>
        <time>2015-06-19T10:28:30.000Z</time>
      </trkpt>
      <trkpt lat="48.7323" lon="1.75805">
        <ele>177.3</ele>
        <time>2015-06-19T10:28:33.000Z</time>
      </trkpt>
      <trkpt lat="48.73239" lon="1.75797">
        <ele>177.4</ele>
        <time>2015-06-19T10:28:40.000Z</time>
      </trkpt>
      <trkpt lat="48.73247" lon="1.75792">
        <ele>177.5</ele>
        <time>2015-06-19T10:28:49.000Z</time>
      </trkpt>
      <trkpt lat="48.73249" lon="1.75793">
        <ele>177.5</ele>
        <time>2015-06-19T10:28:53.000Z</time>
      </trkpt>
      <trkpt lat="48.73255" lon="1.75791">
        <ele>177.7</ele>
        <time>2015-06-19T10:28:58.000Z</time>
      </trkpt>
      <trkpt lat="48.73265" lon="1.75781">
        <ele>177.7</ele>
        <time>2015-06-19T10:29:03.000Z</time>
      </trkpt>
      <trkpt lat="48.73275" lon="1.75764">
        <ele>178.3</ele>
        <time>2015-06-19T10:29:11.000Z</time>
      </trkpt>
      <trkpt lat="48.73278" lon="1.7576">
        <ele>178.6</ele>
        <time>2015-06-19T10:29:13.000Z</time>
      </trkpt>
      <trkpt lat="48.73286" lon="1.75755">
        <ele>178.6</ele>
        <time>2015-06-19T10:29:18.000Z</time>
      </trkpt>
      <trkpt lat="48.73288" lon="1.75754">
        <ele>178.6</ele>
        <time>2015-06-19T10:29:19.000Z</time>
      </trkpt>
      <trkpt lat="48.73294" lon="1.75748">
        <ele>178.4</ele>
        <time>2015-06-19T10:29:24.000Z</time>
      </trkpt>
      <trkpt lat="48.73301" lon="1.75743">
        <ele>178.1</ele>
        <time>2015-06-19T10:29:30.000Z</time>
      </trkpt>
      <trkpt lat="48.73308" lon="1.7574">
        <ele>178</ele>
        <time>2015-06-19T10:29:37.000Z</time>
      </trkpt>
      <trkpt lat="48.73312" lon="1.75738">
        <ele>178</ele>
        <time>2015-06-19T10:29:42.000Z</time>
      </trkpt>
      <trkpt lat="48.73316" lon="1.75736">
        <ele>178</ele>
        <time>2015-06-19T10:29:44.000Z</time>
      </trkpt>
      <trkpt lat="48.73325" lon="1.75732">
        <ele>178</ele>
        <time>2015-06-19T10:29:51.000Z</time>
      </trkpt>
      <trkpt lat="48.7333" lon="1.75729">
        <ele>178</ele>
        <time>2015-06-19T10:29:54.000Z</time>
      </trkpt>
      <trkpt lat="48.73342" lon="1.7572">
        <ele>178.3</ele>
        <time>2015-06-19T10:30:01.000Z</time>
      </trkpt>
      <trkpt lat="48.73353" lon="1.75713">
        <ele>178.7</ele>
        <time>2015-06-19T10:30:09.000Z</time>
      </trkpt>
      <trkpt lat="48.73361" lon="1.75707">
        <ele>179</ele>
        <time>2015-06-19T10:30:14.000Z</time>
      </trkpt>
      <trkpt lat="48.73369" lon="1.757">
        <ele>179</ele>
        <time>2015-06-19T10:30:21.000Z</time>
      </trkpt>
      <trkpt lat="48.73379" lon="1.75689">
        <ele>179.1</ele>
        <time>2015-06-19T10:30:28.000Z</time>
      </trkpt>
      <trkpt lat="48.73386" lon="1.75683">
        <ele>179.4</ele>
        <time>2015-06-19T10:30:33.000Z</time>
      </trkpt>
      <trkpt lat="48.7339" lon="1.7568">
        <ele>179.6</ele>
        <time>2015-06-19T10:30:39.000Z</time>
      </trkpt>
      <trkpt lat="48.7339" lon="1.75681">
        <ele>179.5</ele>
        <time>2015-06-19T10:30:40.000Z</time>
      </trkpt>
      <trkpt lat="48.73394" lon="1.75679">
        <ele>179.7</ele>
        <time>2015-06-19T10:30:45.000Z</time>
      </trkpt>
      <trkpt lat="48.73396" lon="1.75678">
        <ele>179.8</ele>
        <time>2015-06-19T10:30:46.000Z</time>
      </trkpt>
      <trkpt lat="48.73402" lon="1.75673">
        <ele>180</ele>
        <time>2015-06-19T10:30:49.000Z</time>
      </trkpt>
      <trkpt lat="48.73411" lon="1.75668">
        <ele>180</ele>
        <time>2015-06-19T10:30:56.000Z</time>
      </trkpt>
      <trkpt lat="48.73417" lon="1.75662">
        <ele>180</ele>
        <time>2015-06-19T10:31:01.000Z</time>
      </trkpt>
      <trkpt lat="48.73425" lon="1.75659">
        <ele>180</ele>
        <time>2015-06-19T10:31:06.000Z</time>
      </trkpt>
      <trkpt lat="48.73432" lon="1.75652">
        <ele>180</ele>
        <time>2015-06-19T10:31:12.000Z</time>
      </trkpt>
      <trkpt lat="48.7344" lon="1.75649">
        <ele>180</ele>
        <time>2015-06-19T10:31:17.000Z</time>
      </trkpt>
      <trkpt lat="48.73449" lon="1.75644">
        <ele>180</ele>
        <time>2015-06-19T10:31:23.000Z</time>
      </trkpt>
      <trkpt lat="48.73459" lon="1.75639">
        <ele>180</ele>
        <time>2015-06-19T10:31:30.000Z</time>
      </trkpt>
      <trkpt lat="48.73471" lon="1.75632">
        <ele>180</ele>
        <time>2015-06-19T10:31:38.000Z</time>
      </trkpt>
      <trkpt lat="48.73484" lon="1.7562">
        <ele>180.3</ele>
        <time>2015-06-19T10:31:46.000Z</time>
      </trkpt>
      <trkpt lat="48.7349" lon="1.75618">
        <ele>180.3</ele>
        <time>2015-06-19T10:31:50.000Z</time>
      </trkpt>
      <trkpt lat="48.73498" lon="1.75613">
        <ele>180.1</ele>
        <time>2015-06-19T10:31:56.000Z</time>
      </trkpt>
      <trkpt lat="48.73502" lon="1.75607">
        <ele>180.1</ele>
        <time>2015-06-19T10:32:00.000Z</time>
      </trkpt>
      <trkpt lat="48.73511" lon="1.75599">
        <ele>180.2</ele>
        <time>2015-06-19T10:32:08.000Z</time>
      </trkpt>
      <trkpt lat="48.73518" lon="1.75595">
        <ele>180.3</ele>
        <time>2015-06-19T10:32:16.000Z</time>
      </trkpt>
      <trkpt lat="48.73522" lon="1.75592">
        <ele>180.3</ele>
        <time>2015-06-19T10:32:22.000Z</time>
      </trkpt>
      <trkpt lat="48.7353" lon="1.75586">
        <ele>180.1</ele>
        <time>2015-06-19T10:32:28.000Z</time>
      </trkpt>
      <trkpt lat="48.73537" lon="1.75579">
        <ele>179.8</ele>
        <time>2015-06-19T10:32:35.000Z</time>
      </trkpt>
      <trkpt lat="48.73547" lon="1.75573">
        <ele>179.6</ele>
        <time>2015-06-19T10:32:42.000Z</time>
      </trkpt>
      <trkpt lat="48.73558" lon="1.75567">
        <ele>179.5</ele>
        <time>2015-06-19T10:32:49.000Z</time>
      </trkpt>
      <trkpt lat="48.73562" lon="1.75564">
        <ele>179.4</ele>
        <time>2015-06-19T10:32:52.000Z</time>
      </trkpt>
      <trkpt lat="48.73574" lon="1.75559">
        <ele>179.3</ele>
        <time>2015-06-19T10:32:59.000Z</time>
      </trkpt>
      <trkpt lat="48.73582" lon="1.75552">
        <ele>178.7</ele>
        <time>2015-06-19T10:33:05.000Z</time>
      </trkpt>
      <trkpt lat="48.73589" lon="1.75551">
        <ele>178.7</ele>
        <time>2015-06-19T10:33:11.000Z</time>
      </trkpt>
      <trkpt lat="48.73595" lon="1.75547">
        <ele>178.5</ele>
        <time>2015-06-19T10:33:16.000Z</time>
      </trkpt>
      <trkpt lat="48.73602" lon="1.75541">
        <ele>178.3</ele>
        <time>2015-06-19T10:33:22.000Z</time>
      </trkpt>
      <trkpt lat="48.73605" lon="1.7554">
        <ele>178.3</ele>
        <time>2015-06-19T10:33:25.000Z</time>
      </trkpt>
      <trkpt lat="48.73613" lon="1.75535">
        <ele>178.3</ele>
        <time>2015-06-19T10:33:32.000Z</time>
      </trkpt>
      <trkpt lat="48.73619" lon="1.75535">
        <ele>178.3</ele>
        <time>2015-06-19T10:33:36.000Z</time>
      </trkpt>
      <trkpt lat="48.73625" lon="1.75536">
        <ele>178.4</ele>
        <time>2015-06-19T10:33:41.000Z</time>
      </trkpt>
      <trkpt lat="48.7364" lon="1.75532">
        <ele>178.3</ele>
        <time>2015-06-19T10:33:49.000Z</time>
      </trkpt>
      <trkpt lat="48.73647" lon="1.75532">
        <ele>178.3</ele>
        <time>2015-06-19T10:33:55.000Z</time>
      </trkpt>
      <trkpt lat="48.73648" lon="1.75531">
        <ele>178.2</ele>
        <time>2015-06-19T10:33:56.000Z</time>
      </trkpt>
      <trkpt lat="48.73655" lon="1.75534">
        <ele>178.5</ele>
        <time>2015-06-19T10:34:01.000Z</time>
      </trkpt>
      <trkpt lat="48.73666" lon="1.75536">
        <ele>178.6</ele>
        <time>2015-06-19T10:34:09.000Z</time>
      </trkpt>
      <trkpt lat="48.73667" lon="1.75536">
        <ele>178.6</ele>
        <time>2015-06-19T10:34:10.000Z</time>
      </trkpt>
      <trkpt lat="48.73676" lon="1.75539">
        <ele>178.7</ele>
        <time>2015-06-19T10:34:17.000Z</time>
      </trkpt>
      <trkpt lat="48.73682" lon="1.75543">
        <ele>178.8</ele>
        <time>2015-06-19T10:34:22.000Z</time>
      </trkpt>
      <trkpt lat="48.7369" lon="1.75547">
        <ele>178.8</ele>
        <time>2015-06-19T10:34:28.000Z</time>
      </trkpt>
      <trkpt lat="48.73693" lon="1.7555">
        <ele>178.9</ele>
        <time>2015-06-19T10:34:31.000Z</time>
      </trkpt>
      <trkpt lat="48.73695" lon="1.75551">
        <ele>178.8</ele>
        <time>2015-06-19T10:34:38.000Z</time>
      </trkpt>
      <trkpt lat="48.73697" lon="1.7555">
        <ele>178.8</ele>
        <time>2015-06-19T10:34:41.000Z</time>
      </trkpt>
      <trkpt lat="48.73699" lon="1.75553">
        <ele>178.9</ele>
        <time>2015-06-19T10:34:45.000Z</time>
      </trkpt>
      <trkpt lat="48.73707" lon="1.75551">
        <ele>178.8</ele>
        <time>2015-06-19T10:34:51.000Z</time>
      </trkpt>
      <trkpt lat="48.73718" lon="1.75547">
        <ele>178.7</ele>
        <time>2015-06-19T10:34:59.000Z</time>
      </trkpt>
      <trkpt lat="48.7373" lon="1.75552">
        <ele>178.9</ele>
        <time>2015-06-19T10:35:06.000Z</time>
      </trkpt>
      <trkpt lat="48.73732" lon="1.75554">
        <ele>178.9</ele>
        <time>2015-06-19T10:35:08.000Z</time>
      </trkpt>
      <trkpt lat="48.73739" lon="1.75559">
        <ele>179</ele>
        <time>2015-06-19T10:35:14.000Z</time>
      </trkpt>
      <trkpt lat="48.73751" lon="1.75564">
        <ele>179</ele>
        <time>2015-06-19T10:35:21.000Z</time>
      </trkpt>
      <trkpt lat="48.73762" lon="1.75563">
        <ele>179</ele>
        <time>2015-06-19T10:35:29.000Z</time>
      </trkpt>
      <trkpt lat="48.73766" lon="1.75563">
        <ele>179</ele>
        <time>2015-06-19T10:35:33.000Z</time>
      </trkpt>
      <trkpt lat="48.73776" lon="1.75567">
        <ele>179</ele>
        <time>2015-06-19T10:35:41.000Z</time>
      </trkpt>
      <trkpt lat="48.73786" lon="1.75573">
        <ele>179</ele>
        <time>2015-06-19T10:35:48.000Z</time>
      </trkpt>
      <trkpt lat="48.73787" lon="1.75575">
        <ele>179</ele>
        <time>2015-06-19T10:35:52.000Z</time>
      </trkpt>
      <trkpt lat="48.73795" lon="1.75572">
        <ele>179</ele>
        <time>2015-06-19T10:36:32.000Z</time>
      </trkpt>
      <trkpt lat="48.73808" lon="1.75578">
        <ele>179.1</ele>
        <time>2015-06-19T10:36:35.000Z</time>
      </trkpt>
      <trkpt lat="48.73836" lon="1.75588">
        <ele>180</ele>
        <time>2015-06-19T10:36:42.000Z</time>
      </trkpt>
      <trkpt lat="48.73844" lon="1.75593">
        <ele>180</ele>
        <time>2015-06-19T10:36:44.000Z</time>
      </trkpt>
      <trkpt lat="48.73868" lon="1.75602">
        <ele>180</ele>
        <time>2015-06-19T10:36:50.000Z</time>
      </trkpt>
      <trkpt lat="48.73895" lon="1.75611">
        <ele>180</ele>
        <time>2015-06-19T10:36:56.000Z</time>
      </trkpt>
      <trkpt lat="48.73911" lon="1.75615">
        <ele>180</ele>
        <time>2015-06-19T10:37:00.000Z</time>
      </trkpt>
      <trkpt lat="48.73922" lon="1.75619">
        <ele>180</ele>
        <time>2015-06-19T10:37:06.000Z</time>
      </trkpt>
      <trkpt lat="48.73933" lon="1.75623">
        <ele>180</ele>
        <time>2015-06-19T10:37:13.000Z</time>
      </trkpt>
      <trkpt lat="48.73942" lon="1.75626">
        <ele>180</ele>
        <time>2015-06-19T10:37:20.000Z</time>
      </trkpt>
      <trkpt lat="48.73947" lon="1.75636">
        <ele>179.9</ele>
        <time>2015-06-19T10:37:27.000Z</time>
      </trkpt>
      <trkpt lat="48.7395" lon="1.75642">
        <ele>179.7</ele>
        <time>2015-06-19T10:37:30.000Z</time>
      </trkpt>
      <trkpt lat="48.7395" lon="1.75655">
        <ele>179.3</ele>
        <time>2015-06-19T10:37:36.000Z</time>
      </trkpt>
      <trkpt lat="48.73948" lon="1.75677">
        <ele>179</ele>
        <time>2015-06-19T10:37:44.000Z</time>
      </trkpt>
      <trkpt lat="48.73946" lon="1.75696">
        <ele>179</ele>
        <time>2015-06-19T10:37:52.000Z</time>
      </trkpt>
      <trkpt lat="48.73942" lon="1.75717">
        <ele>179.1</ele>
        <time>2015-06-19T10:38:01.000Z</time>
      </trkpt>
      <trkpt lat="48.73942" lon="1.75721">
        <ele>179.1</ele>
        <time>2015-06-19T10:38:03.000Z</time>
      </trkpt>
      <trkpt lat="48.73937" lon="1.75735">
        <ele>179.3</ele>
        <time>2015-06-19T10:38:09.000Z</time>
      </trkpt>
      <trkpt lat="48.73933" lon="1.75758">
        <ele>179.3</ele>
        <time>2015-06-19T10:38:15.000Z</time>
      </trkpt>
      <trkpt lat="48.73927" lon="1.75789">
        <ele>179</ele>
        <time>2015-06-19T10:38:20.000Z</time>
      </trkpt>
      <trkpt lat="48.7392" lon="1.75828">
        <ele>179</ele>
        <time>2015-06-19T10:38:26.000Z</time>
      </trkpt>
      <trkpt lat="48.73909" lon="1.75874">
        <ele>179.3</ele>
        <time>2015-06-19T10:38:34.000Z</time>
      </trkpt>
      <trkpt lat="48.739" lon="1.75919">
        <ele>180</ele>
        <time>2015-06-19T10:38:41.000Z</time>
      </trkpt>
      <trkpt lat="48.73896" lon="1.75951">
        <ele>179.9</ele>
        <time>2015-06-19T10:38:48.000Z</time>
      </trkpt>
      <trkpt lat="48.7389" lon="1.75985">
        <ele>180</ele>
        <time>2015-06-19T10:38:53.000Z</time>
      </trkpt>
      <trkpt lat="48.73882" lon="1.76028">
        <ele>180</ele>
        <time>2015-06-19T10:39:00.000Z</time>
      </trkpt>
      <trkpt lat="48.73876" lon="1.76053">
        <ele>179.5</ele>
        <time>2015-06-19T10:39:04.000Z</time>
      </trkpt>
      <trkpt lat="48.73864" lon="1.76098">
        <ele>179</ele>
        <time>2015-06-19T10:39:12.000Z</time>
      </trkpt>
      <trkpt lat="48.73857" lon="1.7614">
        <ele>179</ele>
        <time>2015-06-19T10:39:19.000Z</time>
      </trkpt>
      <trkpt lat="48.73856" lon="1.76147">
        <ele>179</ele>
        <time>2015-06-19T10:39:20.000Z</time>
      </trkpt>
      <trkpt lat="48.73849" lon="1.76176">
        <ele>179</ele>
        <time>2015-06-19T10:39:25.000Z</time>
      </trkpt>
      <trkpt lat="48.73841" lon="1.76209">
        <ele>178.9</ele>
        <time>2015-06-19T10:39:30.000Z</time>
      </trkpt>
      <trkpt lat="48.73833" lon="1.76249">
        <ele>178.1</ele>
        <time>2015-06-19T10:39:36.000Z</time>
      </trkpt>
      <trkpt lat="48.73826" lon="1.76285">
        <ele>178</ele>
        <time>2015-06-19T10:39:42.000Z</time>
      </trkpt>
      <trkpt lat="48.73818" lon="1.76314">
        <ele>178</ele>
        <time>2015-06-19T10:39:48.000Z</time>
      </trkpt>
      <trkpt lat="48.73815" lon="1.76334">
        <ele>178</ele>
        <time>2015-06-19T10:39:53.000Z</time>
      </trkpt>
      <trkpt lat="48.73812" lon="1.76348">
        <ele>178</ele>
        <time>2015-06-19T10:39:59.000Z</time>
      </trkpt>
      <trkpt lat="48.7381" lon="1.76361">
        <ele>178</ele>
        <time>2015-06-19T10:40:04.000Z</time>
      </trkpt>
      <trkpt lat="48.7381" lon="1.76386">
        <ele>177.8</ele>
        <time>2015-06-19T10:40:12.000Z</time>
      </trkpt>
      <trkpt lat="48.73809" lon="1.76396">
        <ele>177.9</ele>
        <time>2015-06-19T10:40:18.000Z</time>
      </trkpt>
      <trkpt lat="48.73815" lon="1.76395">
        <ele>177.7</ele>
        <time>2015-06-19T10:40:25.000Z</time>
      </trkpt>
      <trkpt lat="48.73819" lon="1.76393">
        <ele>177.5</ele>
        <time>2015-06-19T10:40:27.000Z</time>
      </trkpt>
      <trkpt lat="48.73823" lon="1.76392">
        <ele>177.4</ele>
        <time>2015-06-19T10:40:30.000Z</time>
      </trkpt>
      <trkpt lat="48.73828" lon="1.76389">
        <ele>177.2</ele>
        <time>2015-06-19T10:40:34.000Z</time>
      </trkpt>
      <trkpt lat="48.73838" lon="1.76387">
        <ele>176.9</ele>
        <time>2015-06-19T10:40:41.000Z</time>
      </trkpt>
      <trkpt lat="48.73846" lon="1.76386">
        <ele>176.7</ele>
        <time>2015-06-19T10:40:47.000Z</time>
      </trkpt>
      <trkpt lat="48.7386" lon="1.76382">
        <ele>176.3</ele>
        <time>2015-06-19T10:40:57.000Z</time>
      </trkpt>
      <trkpt lat="48.7387" lon="1.76381">
        <ele>176.2</ele>
        <time>2015-06-19T10:41:04.000Z</time>
      </trkpt>
      <trkpt lat="48.73879" lon="1.76377">
        <ele>176.1</ele>
        <time>2015-06-19T10:41:11.000Z</time>
      </trkpt>
      <trkpt lat="48.7389" lon="1.76374">
        <ele>176</ele>
        <time>2015-06-19T10:41:19.000Z</time>
      </trkpt>
      <trkpt lat="48.739" lon="1.76372">
        <ele>175.8</ele>
        <time>2015-06-19T10:41:26.000Z</time>
      </trkpt>
      <trkpt lat="48.73909" lon="1.7637">
        <ele>175.8</ele>
        <time>2015-06-19T10:41:33.000Z</time>
      </trkpt>
      <trkpt lat="48.73909" lon="1.76371">
        <ele>175.7</ele>
        <time>2015-06-19T10:41:34.000Z</time>
      </trkpt>
      <trkpt lat="48.73916" lon="1.76372">
        <ele>175.6</ele>
        <time>2015-06-19T10:41:39.000Z</time>
      </trkpt>
      <trkpt lat="48.73919" lon="1.76372">
        <ele>175.5</ele>
        <time>2015-06-19T10:41:41.000Z</time>
      </trkpt>
      <trkpt lat="48.73928" lon="1.76371">
        <ele>175.2</ele>
        <time>2015-06-19T10:41:47.000Z</time>
      </trkpt>
      <trkpt lat="48.73936" lon="1.76368">
        <ele>175.1</ele>
        <time>2015-06-19T10:41:52.000Z</time>
      </trkpt>
      <trkpt lat="48.73946" lon="1.76368">
        <ele>174.7</ele>
        <time>2015-06-19T10:41:57.000Z</time>
      </trkpt>
      <trkpt lat="48.73951" lon="1.76367">
        <ele>174.5</ele>
        <time>2015-06-19T10:42:01.000Z</time>
      </trkpt>
      <trkpt lat="48.73958" lon="1.76366">
        <ele>174.3</ele>
        <time>2015-06-19T10:42:05.000Z</time>
      </trkpt>
      <trkpt lat="48.73964" lon="1.76365">
        <ele>174.2</ele>
        <time>2015-06-19T10:42:09.000Z</time>
      </trkpt>
      <trkpt lat="48.73974" lon="1.76364">
        <ele>173.9</ele>
        <time>2015-06-19T10:42:16.000Z</time>
      </trkpt>
      <trkpt lat="48.73984" lon="1.76364">
        <ele>173.5</ele>
        <time>2015-06-19T10:42:24.000Z</time>
      </trkpt>
      <trkpt lat="48.73993" lon="1.76363">
        <ele>173.2</ele>
        <time>2015-06-19T10:42:30.000Z</time>
      </trkpt>
      <trkpt lat="48.74003" lon="1.76359">
        <ele>172.8</ele>
        <time>2015-06-19T10:42:38.000Z</time>
      </trkpt>
      <trkpt lat="48.74011" lon="1.76354">
        <ele>172.3</ele>
        <time>2015-06-19T10:42:45.000Z</time>
      </trkpt>
      <trkpt lat="48.74024" lon="1.7635">
        <ele>171.6</ele>
        <time>2015-06-19T10:42:52.000Z</time>
      </trkpt>
      <trkpt lat="48.74037" lon="1.7635">
        <ele>171.1</ele>
        <time>2015-06-19T10:43:01.000Z</time>
      </trkpt>
      <trkpt lat="48.74044" lon="1.76349">
        <ele>170.9</ele>
        <time>2015-06-19T10:43:06.000Z</time>
      </trkpt>
      <trkpt lat="48.74053" lon="1.76347">
        <ele>170.6</ele>
        <time>2015-06-19T10:43:12.000Z</time>
      </trkpt>
      <trkpt lat="48.74065" lon="1.76344">
        <ele>170</ele>
        <time>2015-06-19T10:43:19.000Z</time>
      </trkpt>
      <trkpt lat="48.74069" lon="1.76345">
        <ele>169.6</ele>
        <time>2015-06-19T10:43:22.000Z</time>
      </trkpt>
      <trkpt lat="48.7408" lon="1.76345">
        <ele>168.8</ele>
        <time>2015-06-19T10:43:29.000Z</time>
      </trkpt>
      <trkpt lat="48.74084" lon="1.76345">
        <ele>168.6</ele>
        <time>2015-06-19T10:43:32.000Z</time>
      </trkpt>
      <trkpt lat="48.74091" lon="1.76346">
        <ele>168</ele>
        <time>2015-06-19T10:43:37.000Z</time>
      </trkpt>
      <trkpt lat="48.74102" lon="1.76345">
        <ele>167.2</ele>
        <time>2015-06-19T10:43:44.000Z</time>
      </trkpt>
      <trkpt lat="48.7411" lon="1.76347">
        <ele>166.6</ele>
        <time>2015-06-19T10:43:51.000Z</time>
      </trkpt>
      <trkpt lat="48.74121" lon="1.76348">
        <ele>165.6</ele>
        <time>2015-06-19T10:43:58.000Z</time>
      </trkpt>
      <trkpt lat="48.74133" lon="1.76345">
        <ele>164.6</ele>
        <time>2015-06-19T10:44:05.000Z</time>
      </trkpt>
      <trkpt lat="48.74143" lon="1.76348">
        <ele>163.4</ele>
        <time>2015-06-19T10:44:11.000Z</time>
      </trkpt>
      <trkpt lat="48.74155" lon="1.76351">
        <ele>161</ele>
        <time>2015-06-19T10:44:18.000Z</time>
      </trkpt>
      <trkpt lat="48.74165" lon="1.76355">
        <ele>159</ele>
        <time>2015-06-19T10:44:24.000Z</time>
      </trkpt>
      <trkpt lat="48.74169" lon="1.76356">
        <ele>158</ele>
        <time>2015-06-19T10:44:28.000Z</time>
      </trkpt>
      <trkpt lat="48.74176" lon="1.76359">
        <ele>156.5</ele>
        <time>2015-06-19T10:44:34.000Z</time>
      </trkpt>
      <trkpt lat="48.74183" lon="1.76362">
        <ele>155</ele>
        <time>2015-06-19T10:44:40.000Z</time>
      </trkpt>
      <trkpt lat="48.74189" lon="1.76364">
        <ele>153.8</ele>
        <time>2015-06-19T10:44:46.000Z</time>
      </trkpt>
      <trkpt lat="48.74195" lon="1.76367">
        <ele>152.5</ele>
        <time>2015-06-19T10:44:53.000Z</time>
      </trkpt>
      <trkpt lat="48.74202" lon="1.76368">
        <ele>151.8</ele>
        <time>2015-06-19T10:44:59.000Z</time>
      </trkpt>
      <trkpt lat="48.74205" lon="1.76369">
        <ele>151.4</ele>
        <time>2015-06-19T10:45:01.000Z</time>
      </trkpt>
      <trkpt lat="48.74209" lon="1.7637">
        <ele>151</ele>
        <time>2015-06-19T10:45:05.000Z</time>
      </trkpt>
      <trkpt lat="48.74211" lon="1.76371">
        <ele>150.6</ele>
        <time>2015-06-19T10:45:07.000Z</time>
      </trkpt>
      <trkpt lat="48.7422" lon="1.76373">
        <ele>149.7</ele>
        <time>2015-06-19T10:45:12.000Z</time>
      </trkpt>
      <trkpt lat="48.74226" lon="1.76372">
        <ele>149.4</ele>
        <time>2015-06-19T10:45:23.000Z</time>
      </trkpt>
      <trkpt lat="48.74228" lon="1.76371">
        <ele>149.3</ele>
        <time>2015-06-19T10:45:29.000Z</time>
      </trkpt>
      <trkpt lat="48.74228" lon="1.7637">
        <ele>149.3</ele>
        <time>2015-06-19T10:45:30.000Z</time>
      </trkpt>
      <trkpt lat="48.74224" lon="1.76386">
        <ele>149</ele>
        <time>2015-06-19T10:45:43.000Z</time>
      </trkpt>
      <trkpt lat="48.7422" lon="1.76401">
        <ele>148.8</ele>
        <time>2015-06-19T10:45:49.000Z</time>
      </trkpt>
      <trkpt lat="48.74219" lon="1.76403">
        <ele>148.7</ele>
        <time>2015-06-19T10:45:50.000Z</time>
      </trkpt>
      <trkpt lat="48.74217" lon="1.7641">
        <ele>148.6</ele>
        <time>2015-06-19T10:45:54.000Z</time>
      </trkpt>
      <trkpt lat="48.7421" lon="1.76431">
        <ele>149.4</ele>
        <time>2015-06-19T10:46:03.000Z</time>
      </trkpt>
      <trkpt lat="48.74209" lon="1.76445">
        <ele>150</ele>
        <time>2015-06-19T10:46:09.000Z</time>
      </trkpt>
      <trkpt lat="48.74212" lon="1.76457">
        <ele>149.7</ele>
        <time>2015-06-19T10:46:16.000Z</time>
      </trkpt>
      <trkpt lat="48.74217" lon="1.7647">
        <ele>149.4</ele>
        <time>2015-06-19T10:46:23.000Z</time>
      </trkpt>
      <trkpt lat="48.74222" lon="1.76483">
        <ele>149</ele>
        <time>2015-06-19T10:46:30.000Z</time>
      </trkpt>
      <trkpt lat="48.74225" lon="1.76491">
        <ele>148.9</ele>
        <time>2015-06-19T10:46:35.000Z</time>
      </trkpt>
      <trkpt lat="48.74231" lon="1.76508">
        <ele>148.7</ele>
        <time>2015-06-19T10:46:42.000Z</time>
      </trkpt>
      <trkpt lat="48.74235" lon="1.76522">
        <ele>148.6</ele>
        <time>2015-06-19T10:46:48.000Z</time>
      </trkpt>
      <trkpt lat="48.74238" lon="1.76543">
        <ele>149</ele>
        <time>2015-06-19T10:46:56.000Z</time>
      </trkpt>
      <trkpt lat="48.7424" lon="1.76565">
        <ele>149.4</ele>
        <time>2015-06-19T10:47:05.000Z</time>
      </trkpt>
      <trkpt lat="48.74237" lon="1.76577">
        <ele>149.5</ele>
        <time>2015-06-19T10:47:11.000Z</time>
      </trkpt>
      <trkpt lat="48.74237" lon="1.76591">
        <ele>149.5</ele>
        <time>2015-06-19T10:47:17.000Z</time>
      </trkpt>
      <trkpt lat="48.74235" lon="1.76601">
        <ele>149.5</ele>
        <time>2015-06-19T10:47:22.000Z</time>
      </trkpt>
      <trkpt lat="48.74233" lon="1.76617">
        <ele>149.6</ele>
        <time>2015-06-19T10:47:29.000Z</time>
      </trkpt>
      <trkpt lat="48.74231" lon="1.76624">
        <ele>149.7</ele>
        <time>2015-06-19T10:47:32.000Z</time>
      </trkpt>
      <trkpt lat="48.74229" lon="1.76636">
        <ele>149.8</ele>
        <time>2015-06-19T10:47:37.000Z</time>
      </trkpt>
      <trkpt lat="48.74228" lon="1.76639">
        <ele>149.8</ele>
        <time>2015-06-19T10:47:38.000Z</time>
      </trkpt>
      <trkpt lat="48.7422" lon="1.76673">
        <ele>149.9</ele>
        <time>2015-06-19T10:47:45.000Z</time>
      </trkpt>
      <trkpt lat="48.74216" lon="1.76696">
        <ele>149.4</ele>
        <time>2015-06-19T10:47:49.000Z</time>
      </trkpt>
      <trkpt lat="48.74209" lon="1.7673">
        <ele>149.2</ele>
        <time>2015-06-19T10:47:55.000Z</time>
      </trkpt>
      <trkpt lat="48.74209" lon="1.76747">
        <ele>148.6</ele>
        <time>2015-06-19T10:47:59.000Z</time>
      </trkpt>
      <trkpt lat="48.74204" lon="1.76767">
        <ele>148.7</ele>
        <time>2015-06-19T10:48:05.000Z</time>
      </trkpt>
      <trkpt lat="48.74196" lon="1.76799">
        <ele>148.2</ele>
        <time>2015-06-19T10:48:12.000Z</time>
      </trkpt>
      <trkpt lat="48.74182" lon="1.76831">
        <ele>148.5</ele>
        <time>2015-06-19T10:48:19.000Z</time>
      </trkpt>
      <trkpt lat="48.74175" lon="1.76853">
        <ele>148.2</ele>
        <time>2015-06-19T10:48:24.000Z</time>
      </trkpt>
      <trkpt lat="48.74166" lon="1.76875">
        <ele>148</ele>
        <time>2015-06-19T10:48:29.000Z</time>
      </trkpt>
      <trkpt lat="48.74155" lon="1.76902">
        <ele>148</ele>
        <time>2015-06-19T10:48:35.000Z</time>
      </trkpt>
      <trkpt lat="48.74141" lon="1.76925">
        <ele>148</ele>
        <time>2015-06-19T10:48:41.000Z</time>
      </trkpt>
      <trkpt lat="48.74128" lon="1.7695">
        <ele>148</ele>
        <time>2015-06-19T10:48:47.000Z</time>
      </trkpt>
      <trkpt lat="48.74121" lon="1.76968">
        <ele>148</ele>
        <time>2015-06-19T10:48:51.000Z</time>
      </trkpt>
      <trkpt lat="48.74111" lon="1.76998">
        <ele>148</ele>
        <time>2015-06-19T10:48:58.000Z</time>
      </trkpt>
      <trkpt lat="48.74101" lon="1.77016">
        <ele>148.8</ele>
        <time>2015-06-19T10:49:03.000Z</time>
      </trkpt>
      <trkpt lat="48.74089" lon="1.77034">
        <ele>149.6</ele>
        <time>2015-06-19T10:49:08.000Z</time>
      </trkpt>
      <trkpt lat="48.74079" lon="1.77059">
        <ele>150.2</ele>
        <time>2015-06-19T10:49:14.000Z</time>
      </trkpt>
      <trkpt lat="48.74063" lon="1.77079">
        <ele>150.7</ele>
        <time>2015-06-19T10:49:20.000Z</time>
      </trkpt>
      <trkpt lat="48.74052" lon="1.77095">
        <ele>150.7</ele>
        <time>2015-06-19T10:49:24.000Z</time>
      </trkpt>
      <trkpt lat="48.74037" lon="1.77129">
        <ele>150.5</ele>
        <time>2015-06-19T10:49:31.000Z</time>
      </trkpt>
      <trkpt lat="48.74017" lon="1.77154">
        <ele>150.9</ele>
        <time>2015-06-19T10:49:37.000Z</time>
      </trkpt>
      <trkpt lat="48.74008" lon="1.77166">
        <ele>151</ele>
        <time>2015-06-19T10:49:40.000Z</time>
      </trkpt>
      <trkpt lat="48.74" lon="1.77179">
        <ele>151.4</ele>
        <time>2015-06-19T10:49:43.000Z</time>
      </trkpt>
      <trkpt lat="48.73985" lon="1.77194">
        <ele>151.5</ele>
        <time>2015-06-19T10:49:47.000Z</time>
      </trkpt>
      <trkpt lat="48.7398" lon="1.77199">
        <ele>151.5</ele>
        <time>2015-06-19T10:49:49.000Z</time>
      </trkpt>
      <trkpt lat="48.73971" lon="1.77205">
        <ele>151.5</ele>
        <time>2015-06-19T10:49:51.000Z</time>
      </trkpt>
      <trkpt lat="48.73946" lon="1.7722">
        <ele>153.1</ele>
        <time>2015-06-19T10:49:58.000Z</time>
      </trkpt>
      <trkpt lat="48.73941" lon="1.77223">
        <ele>153.2</ele>
        <time>2015-06-19T10:50:00.000Z</time>
      </trkpt>
      <trkpt lat="48.73931" lon="1.77225">
        <ele>153.9</ele>
        <time>2015-06-19T10:50:07.000Z</time>
      </trkpt>
      <trkpt lat="48.73924" lon="1.77227">
        <ele>154.4</ele>
        <time>2015-06-19T10:50:12.000Z</time>
      </trkpt>
      <trkpt lat="48.73919" lon="1.77231">
        <ele>154.5</ele>
        <time>2015-06-19T10:50:17.000Z</time>
      </trkpt>
      <trkpt lat="48.73916" lon="1.77234">
        <ele>154.6</ele>
        <time>2015-06-19T10:50:21.000Z</time>
      </trkpt>
      <trkpt lat="48.73904" lon="1.77243">
        <ele>154.8</ele>
        <time>2015-06-19T10:50:29.000Z</time>
      </trkpt>
      <trkpt lat="48.73889" lon="1.7725">
        <ele>155</ele>
        <time>2015-06-19T10:50:35.000Z</time>
      </trkpt>
      <trkpt lat="48.73881" lon="1.77257">
        <ele>155.6</ele>
        <time>2015-06-19T10:50:41.000Z</time>
      </trkpt>
      <trkpt lat="48.73872" lon="1.77269">
        <ele>156.1</ele>
        <time>2015-06-19T10:50:46.000Z</time>
      </trkpt>
      <trkpt lat="48.73866" lon="1.77282">
        <ele>156.4</ele>
        <time>2015-06-19T10:50:53.000Z</time>
      </trkpt>
      <trkpt lat="48.73868" lon="1.77293">
        <ele>155.8</ele>
        <time>2015-06-19T10:51:00.000Z</time>
      </trkpt>
      <trkpt lat="48.73868" lon="1.77295">
        <ele>155.8</ele>
        <time>2015-06-19T10:51:01.000Z</time>
      </trkpt>
      <trkpt lat="48.73867" lon="1.77313">
        <ele>155.4</ele>
        <time>2015-06-19T10:51:09.000Z</time>
      </trkpt>
      <trkpt lat="48.73866" lon="1.77315">
        <ele>155.3</ele>
        <time>2015-06-19T10:51:10.000Z</time>
      </trkpt>
      <trkpt lat="48.7386" lon="1.77322">
        <ele>155.5</ele>
        <time>2015-06-19T10:51:16.000Z</time>
      </trkpt>
      <trkpt lat="48.73857" lon="1.77334">
        <ele>155.5</ele>
        <time>2015-06-19T10:51:23.000Z</time>
      </trkpt>
      <trkpt lat="48.73857" lon="1.77336">
        <ele>155.3</ele>
        <time>2015-06-19T10:51:24.000Z</time>
      </trkpt>
      <trkpt lat="48.73849" lon="1.77348">
        <ele>155.5</ele>
        <time>2015-06-19T10:51:31.000Z</time>
      </trkpt>
      <trkpt lat="48.73848" lon="1.77351">
        <ele>155.4</ele>
        <time>2015-06-19T10:51:33.000Z</time>
      </trkpt>
      <trkpt lat="48.7384" lon="1.77363">
        <ele>155.5</ele>
        <time>2015-06-19T10:51:40.000Z</time>
      </trkpt>
      <trkpt lat="48.73831" lon="1.77368">
        <ele>156</ele>
        <time>2015-06-19T10:51:46.000Z</time>
      </trkpt>
      <trkpt lat="48.73825" lon="1.77379">
        <ele>156</ele>
        <time>2015-06-19T10:51:53.000Z</time>
      </trkpt>
      <trkpt lat="48.73824" lon="1.7739">
        <ele>155.7</ele>
        <time>2015-06-19T10:51:58.000Z</time>
      </trkpt>
      <trkpt lat="48.73819" lon="1.77404">
        <ele>155.7</ele>
        <time>2015-06-19T10:52:05.000Z</time>
      </trkpt>
      <trkpt lat="48.73815" lon="1.77419">
        <ele>155.6</ele>
        <time>2015-06-19T10:52:12.000Z</time>
      </trkpt>
      <trkpt lat="48.73814" lon="1.77423">
        <ele>155.5</ele>
        <time>2015-06-19T10:52:14.000Z</time>
      </trkpt>
      <trkpt lat="48.7381" lon="1.77433">
        <ele>155.2</ele>
        <time>2015-06-19T10:52:19.000Z</time>
      </trkpt>
      <trkpt lat="48.73803" lon="1.77449">
        <ele>155.2</ele>
        <time>2015-06-19T10:52:27.000Z</time>
      </trkpt>
      <trkpt lat="48.73801" lon="1.77456">
        <ele>155.4</ele>
        <time>2015-06-19T10:52:33.000Z</time>
      </trkpt>
      <trkpt lat="48.73801" lon="1.77456">
        <ele>155.5</ele>
        <time>2015-06-19T10:52:34.000Z</time>
      </trkpt>
      <trkpt lat="48.73807" lon="1.77451">
        <ele>154.9</ele>
        <time>2015-06-19T10:52:57.000Z</time>
      </trkpt>
      <trkpt lat="48.73808" lon="1.77435">
        <ele>155.2</ele>
        <time>2015-06-19T10:53:03.000Z</time>
      </trkpt>
      <trkpt lat="48.73813" lon="1.77419">
        <ele>155.7</ele>
        <time>2015-06-19T10:53:10.000Z</time>
      </trkpt>
      <trkpt lat="48.73817" lon="1.77402">
        <ele>155.9</ele>
        <time>2015-06-19T10:53:18.000Z</time>
      </trkpt>
      <trkpt lat="48.73818" lon="1.77395">
        <ele>156</ele>
        <time>2015-06-19T10:53:21.000Z</time>
      </trkpt>
      <trkpt lat="48.73827" lon="1.77388">
        <ele>155.5</ele>
        <time>2015-06-19T10:53:28.000Z</time>
      </trkpt>
      <trkpt lat="48.73832" lon="1.77396">
        <ele>155.1</ele>
        <time>2015-06-19T10:53:32.000Z</time>
      </trkpt>
      <trkpt lat="48.73833" lon="1.77399">
        <ele>155</ele>
        <time>2015-06-19T10:53:34.000Z</time>
      </trkpt>
      <trkpt lat="48.73843" lon="1.7741">
        <ele>154.7</ele>
        <time>2015-06-19T10:53:43.000Z</time>
      </trkpt>
      <trkpt lat="48.73852" lon="1.77426">
        <ele>154.2</ele>
        <time>2015-06-19T10:53:53.000Z</time>
      </trkpt>
      <trkpt lat="48.73854" lon="1.77435">
        <ele>154.1</ele>
        <time>2015-06-19T10:53:59.000Z</time>
      </trkpt>
      <trkpt lat="48.73853" lon="1.77437">
        <ele>154.1</ele>
        <time>2015-06-19T10:54:03.000Z</time>
      </trkpt>
      <trkpt lat="48.73854" lon="1.77441">
        <ele>154</ele>
        <time>2015-06-19T10:54:28.000Z</time>
      </trkpt>
      <trkpt lat="48.7386" lon="1.77439">
        <ele>154</ele>
        <time>2015-06-19T10:54:33.000Z</time>
      </trkpt>
      <trkpt lat="48.73862" lon="1.77441">
        <ele>154</ele>
        <time>2015-06-19T10:54:36.000Z</time>
      </trkpt>
      <trkpt lat="48.73866" lon="1.77446">
        <ele>154</ele>
        <time>2015-06-19T10:54:40.000Z</time>
      </trkpt>
      <trkpt lat="48.7387" lon="1.77461">
        <ele>154.2</ele>
        <time>2015-06-19T10:54:48.000Z</time>
      </trkpt>
      <trkpt lat="48.73876" lon="1.77466">
        <ele>154.4</ele>
        <time>2015-06-19T10:54:53.000Z</time>
      </trkpt>
      <trkpt lat="48.73883" lon="1.77475">
        <ele>154.9</ele>
        <time>2015-06-19T10:54:58.000Z</time>
      </trkpt>
      <trkpt lat="48.73886" lon="1.77486">
        <ele>155.4</ele>
        <time>2015-06-19T10:55:04.000Z</time>
      </trkpt>
      <trkpt lat="48.73889" lon="1.77489">
        <ele>155.6</ele>
        <time>2015-06-19T10:55:10.000Z</time>
      </trkpt>
      <trkpt lat="48.73894" lon="1.7749">
        <ele>155.8</ele>
        <time>2015-06-19T10:55:14.000Z</time>
      </trkpt>
      <trkpt lat="48.73902" lon="1.77495">
        <ele>156</ele>
        <time>2015-06-19T10:55:22.000Z</time>
      </trkpt>
      <trkpt lat="48.73907" lon="1.77499">
        <ele>156</ele>
        <time>2015-06-19T10:55:27.000Z</time>
      </trkpt>
      <trkpt lat="48.7391" lon="1.77501">
        <ele>156</ele>
        <time>2015-06-19T10:55:29.000Z</time>
      </trkpt>
      <trkpt lat="48.73916" lon="1.77506">
        <ele>156.2</ele>
        <time>2015-06-19T10:55:33.000Z</time>
      </trkpt>
      <trkpt lat="48.73929" lon="1.77507">
        <ele>156.8</ele>
        <time>2015-06-19T10:55:40.000Z</time>
      </trkpt>
      <trkpt lat="48.73931" lon="1.77507">
        <ele>156.9</ele>
        <time>2015-06-19T10:55:41.000Z</time>
      </trkpt>
      <trkpt lat="48.7394" lon="1.77507">
        <ele>157.3</ele>
        <time>2015-06-19T10:55:47.000Z</time>
      </trkpt>
      <trkpt lat="48.73943" lon="1.77508">
        <ele>157.3</ele>
        <time>2015-06-19T10:55:49.000Z</time>
      </trkpt>
      <trkpt lat="48.73951" lon="1.77511">
        <ele>157.4</ele>
        <time>2015-06-19T10:55:56.000Z</time>
      </trkpt>
      <trkpt lat="48.73964" lon="1.77515">
        <ele>157.2</ele>
        <time>2015-06-19T10:56:03.000Z</time>
      </trkpt>
      <trkpt lat="48.73971" lon="1.77513">
        <ele>157.6</ele>
        <time>2015-06-19T10:56:08.000Z</time>
      </trkpt>
      <trkpt lat="48.73978" lon="1.77511">
        <ele>158</ele>
        <time>2015-06-19T10:56:12.000Z</time>
      </trkpt>
      <trkpt lat="48.73988" lon="1.77513">
        <ele>158.2</ele>
        <time>2015-06-19T10:56:19.000Z</time>
      </trkpt>
      <trkpt lat="48.73995" lon="1.77516">
        <ele>158.1</ele>
        <time>2015-06-19T10:56:25.000Z</time>
      </trkpt>
      <trkpt lat="48.74004" lon="1.77514">
        <ele>158.5</ele>
        <time>2015-06-19T10:56:31.000Z</time>
      </trkpt>
      <trkpt lat="48.74011" lon="1.77514">
        <ele>158.5</ele>
        <time>2015-06-19T10:56:39.000Z</time>
      </trkpt>
      <trkpt lat="48.74012" lon="1.77514">
        <ele>158.5</ele>
        <time>2015-06-19T10:56:41.000Z</time>
      </trkpt>
      <trkpt lat="48.7401" lon="1.7752">
        <ele>157.8</ele>
        <time>2015-06-19T10:56:52.000Z</time>
      </trkpt>
      <trkpt lat="48.74001" lon="1.77525">
        <ele>157.3</ele>
        <time>2015-06-19T10:56:57.000Z</time>
      </trkpt>
      <trkpt lat="48.73999" lon="1.77526">
        <ele>157.2</ele>
        <time>2015-06-19T10:56:59.000Z</time>
      </trkpt>
      <trkpt lat="48.73995" lon="1.77533">
        <ele>156.5</ele>
        <time>2015-06-19T10:57:06.000Z</time>
      </trkpt>
      <trkpt lat="48.73993" lon="1.77535">
        <ele>156.4</ele>
        <time>2015-06-19T10:57:08.000Z</time>
      </trkpt>
      <trkpt lat="48.73987" lon="1.77539">
        <ele>156.1</ele>
        <time>2015-06-19T10:57:12.000Z</time>
      </trkpt>
      <trkpt lat="48.73984" lon="1.77541">
        <ele>156</ele>
        <time>2015-06-19T10:57:14.000Z</time>
      </trkpt>
      <trkpt lat="48.73976" lon="1.7754">
        <ele>156</ele>
        <time>2015-06-19T10:57:19.000Z</time>
      </trkpt>
      <trkpt lat="48.73966" lon="1.77537">
        <ele>156.1</ele>
        <time>2015-06-19T10:57:26.000Z</time>
      </trkpt>
      <trkpt lat="48.73962" lon="1.77537">
        <ele>156.1</ele>
        <time>2015-06-19T10:57:28.000Z</time>
      </trkpt>
      <trkpt lat="48.73952" lon="1.77535">
        <ele>156.2</ele>
        <time>2015-06-19T10:57:34.000Z</time>
      </trkpt>
      <trkpt lat="48.73939" lon="1.77531">
        <ele>156.4</ele>
        <time>2015-06-19T10:57:41.000Z</time>
      </trkpt>
      <trkpt lat="48.73928" lon="1.77532">
        <ele>156.9</ele>
        <time>2015-06-19T10:57:47.000Z</time>
      </trkpt>
      <trkpt lat="48.73918" lon="1.77525">
        <ele>156.9</ele>
        <time>2015-06-19T10:57:53.000Z</time>
      </trkpt>
      <trkpt lat="48.73907" lon="1.77518">
        <ele>156.9</ele>
        <time>2015-06-19T10:57:59.000Z</time>
      </trkpt>
      <trkpt lat="48.73898" lon="1.77512">
        <ele>156.7</ele>
        <time>2015-06-19T10:58:04.000Z</time>
      </trkpt>
      <trkpt lat="48.73889" lon="1.77496">
        <ele>155.8</ele>
        <time>2015-06-19T10:58:11.000Z</time>
      </trkpt>
      <trkpt lat="48.73887" lon="1.77494">
        <ele>155.8</ele>
        <time>2015-06-19T10:58:12.000Z</time>
      </trkpt>
      <trkpt lat="48.73885" lon="1.7749">
        <ele>155.6</ele>
        <time>2015-06-19T10:58:14.000Z</time>
      </trkpt>
      <trkpt lat="48.73879" lon="1.77476">
        <ele>154.8</ele>
        <time>2015-06-19T10:58:20.000Z</time>
      </trkpt>
      <trkpt lat="48.73875" lon="1.77464">
        <ele>154.4</ele>
        <time>2015-06-19T10:58:25.000Z</time>
      </trkpt>
      <trkpt lat="48.73871" lon="1.77454">
        <ele>154.1</ele>
        <time>2015-06-19T10:58:30.000Z</time>
      </trkpt>
      <trkpt lat="48.73868" lon="1.77448">
        <ele>154</ele>
        <time>2015-06-19T10:58:34.000Z</time>
      </trkpt>
      <trkpt lat="48.7386" lon="1.77438">
        <ele>154</ele>
        <time>2015-06-19T10:58:40.000Z</time>
      </trkpt>
      <trkpt lat="48.73858" lon="1.77436">
        <ele>154</ele>
        <time>2015-06-19T10:58:41.000Z</time>
      </trkpt>
      <trkpt lat="48.73855" lon="1.7743">
        <ele>154.1</ele>
        <time>2015-06-19T10:58:43.000Z</time>
      </trkpt>
      <trkpt lat="48.73849" lon="1.77421">
        <ele>154.4</ele>
        <time>2015-06-19T10:58:48.000Z</time>
      </trkpt>
      <trkpt lat="48.73842" lon="1.77413">
        <ele>154.7</ele>
        <time>2015-06-19T10:58:54.000Z</time>
      </trkpt>
      <trkpt lat="48.73833" lon="1.77405">
        <ele>155</ele>
        <time>2015-06-19T10:59:00.000Z</time>
      </trkpt>
      <trkpt lat="48.73833" lon="1.77404">
        <ele>155</ele>
        <time>2015-06-19T10:59:01.000Z</time>
      </trkpt>
      <trkpt lat="48.73819" lon="1.77399">
        <ele>155.8</ele>
        <time>2015-06-19T10:59:10.000Z</time>
      </trkpt>
      <trkpt lat="48.73815" lon="1.77404">
        <ele>156</ele>
        <time>2015-06-19T10:59:14.000Z</time>
      </trkpt>
      <trkpt lat="48.73814" lon="1.77406">
        <ele>156</ele>
        <time>2015-06-19T10:59:16.000Z</time>
      </trkpt>
      <trkpt lat="48.73809" lon="1.77415">
        <ele>155.9</ele>
        <time>2015-06-19T10:59:22.000Z</time>
      </trkpt>
      <trkpt lat="48.73808" lon="1.77417">
        <ele>155.9</ele>
        <time>2015-06-19T10:59:23.000Z</time>
      </trkpt>
      <trkpt lat="48.73806" lon="1.77437">
        <ele>155.2</ele>
        <time>2015-06-19T10:59:31.000Z</time>
      </trkpt>
      <trkpt lat="48.73803" lon="1.77448">
        <ele>155.3</ele>
        <time>2015-06-19T10:59:37.000Z</time>
      </trkpt>
      <trkpt lat="48.73802" lon="1.77455">
        <ele>155.3</ele>
        <time>2015-06-19T10:59:41.000Z</time>
      </trkpt>
      <trkpt lat="48.738" lon="1.77461">
        <ele>155.5</ele>
        <time>2015-06-19T10:59:46.000Z</time>
      </trkpt>
      <trkpt lat="48.73798" lon="1.77473">
        <ele>155.5</ele>
        <time>2015-06-19T10:59:52.000Z</time>
      </trkpt>
      <trkpt lat="48.73797" lon="1.77478">
        <ele>155.5</ele>
        <time>2015-06-19T10:59:55.000Z</time>
      </trkpt>
      <trkpt lat="48.73801" lon="1.7749">
        <ele>155.2</ele>
        <time>2015-06-19T11:00:01.000Z</time>
      </trkpt>
      <trkpt lat="48.73805" lon="1.77491">
        <ele>155</ele>
        <time>2015-06-19T11:00:07.000Z</time>
      </trkpt>
      <trkpt lat="48.73801" lon="1.77487">
        <ele>155.2</ele>
        <time>2015-06-19T11:00:13.000Z</time>
      </trkpt>
      <trkpt lat="48.7379" lon="1.7748">
        <ele>156</ele>
        <time>2015-06-19T11:00:18.000Z</time>
      </trkpt>
      <trkpt lat="48.73781" lon="1.77487">
        <ele>156.3</ele>
        <time>2015-06-19T11:00:22.000Z</time>
      </trkpt>
      <trkpt lat="48.73778" lon="1.77496">
        <ele>156.1</ele>
        <time>2015-06-19T11:00:26.000Z</time>
      </trkpt>
      <trkpt lat="48.73776" lon="1.77501">
        <ele>156.2</ele>
        <time>2015-06-19T11:00:29.000Z</time>
      </trkpt>
      <trkpt lat="48.73775" lon="1.77513">
        <ele>156.2</ele>
        <time>2015-06-19T11:00:33.000Z</time>
      </trkpt>
      <trkpt lat="48.73776" lon="1.77538">
        <ele>155.8</ele>
        <time>2015-06-19T11:00:40.000Z</time>
      </trkpt>
      <trkpt lat="48.73767" lon="1.77545">
        <ele>156.6</ele>
        <time>2015-06-19T11:00:48.000Z</time>
      </trkpt>
      <trkpt lat="48.73759" lon="1.77553">
        <ele>157.1</ele>
        <time>2015-06-19T11:00:55.000Z</time>
      </trkpt>
      <trkpt lat="48.73757" lon="1.77559">
        <ele>157.1</ele>
        <time>2015-06-19T11:00:58.000Z</time>
      </trkpt>
      <trkpt lat="48.7375" lon="1.77569">
        <ele>157.5</ele>
        <time>2015-06-19T11:01:05.000Z</time>
      </trkpt>
      <trkpt lat="48.73747" lon="1.77572">
        <ele>157.7</ele>
        <time>2015-06-19T11:01:07.000Z</time>
      </trkpt>
      <trkpt lat="48.7374" lon="1.77583">
        <ele>158.1</ele>
        <time>2015-06-19T11:01:14.000Z</time>
      </trkpt>
      <trkpt lat="48.73739" lon="1.77585">
        <ele>158.2</ele>
        <time>2015-06-19T11:01:15.000Z</time>
      </trkpt>
      <trkpt lat="48.73735" lon="1.77593">
        <ele>158.3</ele>
        <time>2015-06-19T11:01:21.000Z</time>
      </trkpt>
      <trkpt lat="48.73735" lon="1.77593">
        <ele>158.3</ele>
        <time>2015-06-19T11:01:22.000Z</time>
      </trkpt>
      <trkpt lat="48.73733" lon="1.77585">
        <ele>158.7</ele>
        <time>2015-06-19T11:01:36.000Z</time>
      </trkpt>
      <trkpt lat="48.73738" lon="1.77575">
        <ele>158.6</ele>
        <time>2015-06-19T11:01:41.000Z</time>
      </trkpt>
      <trkpt lat="48.73743" lon="1.77564">
        <ele>158.4</ele>
        <time>2015-06-19T11:01:46.000Z</time>
      </trkpt>
      <trkpt lat="48.73751" lon="1.77543">
        <ele>158.3</ele>
        <time>2015-06-19T11:01:56.000Z</time>
      </trkpt>
      <trkpt lat="48.73752" lon="1.77532">
        <ele>158.6</ele>
        <time>2015-06-19T11:02:02.000Z</time>
      </trkpt>
      <trkpt lat="48.73761" lon="1.77518">
        <ele>157.8</ele>
        <time>2015-06-19T11:02:09.000Z</time>
      </trkpt>
      <trkpt lat="48.73766" lon="1.77503">
        <ele>157.2</ele>
        <time>2015-06-19T11:02:16.000Z</time>
      </trkpt>
      <trkpt lat="48.73772" lon="1.77484">
        <ele>157.2</ele>
        <time>2015-06-19T11:02:24.000Z</time>
      </trkpt>
      <trkpt lat="48.73773" lon="1.77481">
        <ele>157.2</ele>
        <time>2015-06-19T11:02:25.000Z</time>
      </trkpt>
      <trkpt lat="48.73778" lon="1.77471">
        <ele>157</ele>
        <time>2015-06-19T11:02:30.000Z</time>
      </trkpt>
      <trkpt lat="48.73784" lon="1.7746">
        <ele>156.9</ele>
        <time>2015-06-19T11:02:36.000Z</time>
      </trkpt>
      <trkpt lat="48.73786" lon="1.77448">
        <ele>157</ele>
        <time>2015-06-19T11:02:42.000Z</time>
      </trkpt>
      <trkpt lat="48.7379" lon="1.77438">
        <ele>156.8</ele>
        <time>2015-06-19T11:02:46.000Z</time>
      </trkpt>
      <trkpt lat="48.73798" lon="1.77423">
        <ele>156.4</ele>
        <time>2015-06-19T11:02:54.000Z</time>
      </trkpt>
      <trkpt lat="48.73805" lon="1.77414">
        <ele>156.1</ele>
        <time>2015-06-19T11:03:00.000Z</time>
      </trkpt>
      <trkpt lat="48.73808" lon="1.77403">
        <ele>156.4</ele>
        <time>2015-06-19T11:03:05.000Z</time>
      </trkpt>
      <trkpt lat="48.73813" lon="1.77389">
        <ele>156.4</ele>
        <time>2015-06-19T11:03:12.000Z</time>
      </trkpt>
      <trkpt lat="48.73816" lon="1.77385">
        <ele>156.5</ele>
        <time>2015-06-19T11:03:14.000Z</time>
      </trkpt>
      <trkpt lat="48.73824" lon="1.77381">
        <ele>156.1</ele>
        <time>2015-06-19T11:03:20.000Z</time>
      </trkpt>
      <trkpt lat="48.73825" lon="1.77379">
        <ele>156</ele>
        <time>2015-06-19T11:03:24.000Z</time>
      </trkpt>
      <trkpt lat="48.73827" lon="1.77379">
        <ele>155.9</ele>
        <time>2015-06-19T11:03:32.000Z</time>
      </trkpt>
      <trkpt lat="48.7383" lon="1.77367">
        <ele>156.1</ele>
        <time>2015-06-19T11:03:38.000Z</time>
      </trkpt>
      <trkpt lat="48.7383" lon="1.77354">
        <ele>156.8</ele>
        <time>2015-06-19T11:03:45.000Z</time>
      </trkpt>
      <trkpt lat="48.73836" lon="1.77339">
        <ele>157.3</ele>
        <time>2015-06-19T11:03:52.000Z</time>
      </trkpt>
      <trkpt lat="48.7384" lon="1.77327">
        <ele>157.7</ele>
        <time>2015-06-19T11:03:58.000Z</time>
      </trkpt>
      <trkpt lat="48.73845" lon="1.77313">
        <ele>157.9</ele>
        <time>2015-06-19T11:04:05.000Z</time>
      </trkpt>
      <trkpt lat="48.73844" lon="1.77315">
        <ele>158</ele>
        <time>2015-06-19T11:04:10.000Z</time>
      </trkpt>
      <trkpt lat="48.73843" lon="1.77317">
        <ele>157.9</ele>
        <time>2015-06-19T11:04:11.000Z</time>
      </trkpt>
      <trkpt lat="48.7384" lon="1.77325">
        <ele>157.8</ele>
        <time>2015-06-19T11:04:15.000Z</time>
      </trkpt>
      <trkpt lat="48.73837" lon="1.77341">
        <ele>157.1</ele>
        <time>2015-06-19T11:04:22.000Z</time>
      </trkpt>
      <trkpt lat="48.73831" lon="1.77353">
        <ele>156.8</ele>
        <time>2015-06-19T11:04:28.000Z</time>
      </trkpt>
      <trkpt lat="48.73829" lon="1.77363">
        <ele>156.4</ele>
        <time>2015-06-19T11:04:33.000Z</time>
      </trkpt>
      <trkpt lat="48.73829" lon="1.77367">
        <ele>156.2</ele>
        <time>2015-06-19T11:04:37.000Z</time>
      </trkpt>
      <trkpt lat="48.73834" lon="1.7738">
        <ele>155.3</ele>
        <time>2015-06-19T11:04:44.000Z</time>
      </trkpt>
      <trkpt lat="48.73838" lon="1.77395">
        <ele>154.8</ele>
        <time>2015-06-19T11:04:51.000Z</time>
      </trkpt>
      <trkpt lat="48.73845" lon="1.7741">
        <ele>154.6</ele>
        <time>2015-06-19T11:04:59.000Z</time>
      </trkpt>
      <trkpt lat="48.73852" lon="1.77422">
        <ele>154.3</ele>
        <time>2015-06-19T11:05:06.000Z</time>
      </trkpt>
      <trkpt lat="48.73856" lon="1.77431">
        <ele>154.1</ele>
        <time>2015-06-19T11:05:13.000Z</time>
      </trkpt>
      <trkpt lat="48.73857" lon="1.77431">
        <ele>154.1</ele>
        <time>2015-06-19T11:05:14.000Z</time>
      </trkpt>
      <trkpt lat="48.73867" lon="1.77436">
        <ele>154</ele>
        <time>2015-06-19T11:05:22.000Z</time>
      </trkpt>
      <trkpt lat="48.7387" lon="1.77444">
        <ele>154</ele>
        <time>2015-06-19T11:05:27.000Z</time>
      </trkpt>
      <trkpt lat="48.73878" lon="1.77456">
        <ele>154.3</ele>
        <time>2015-06-19T11:05:34.000Z</time>
      </trkpt>
      <trkpt lat="48.73883" lon="1.77466">
        <ele>154.6</ele>
        <time>2015-06-19T11:05:40.000Z</time>
      </trkpt>
      <trkpt lat="48.73888" lon="1.77478">
        <ele>155.2</ele>
        <time>2015-06-19T11:05:44.000Z</time>
      </trkpt>
      <trkpt lat="48.73894" lon="1.77488">
        <ele>155.7</ele>
        <time>2015-06-19T11:05:49.000Z</time>
      </trkpt>
      <trkpt lat="48.73886" lon="1.77501">
        <ele>156</ele>
        <time>2015-06-19T11:05:53.000Z</time>
      </trkpt>
      <trkpt lat="48.73877" lon="1.77515">
        <ele>157.1</ele>
        <time>2015-06-19T11:06:00.000Z</time>
      </trkpt>
      <trkpt lat="48.73872" lon="1.77527">
        <ele>157.9</ele>
        <time>2015-06-19T11:06:06.000Z</time>
      </trkpt>
      <trkpt lat="48.73871" lon="1.77533">
        <ele>158.7</ele>
        <time>2015-06-19T11:06:10.000Z</time>
      </trkpt>
      <trkpt lat="48.73871" lon="1.77546">
        <ele>160.6</ele>
        <time>2015-06-19T11:06:17.000Z</time>
      </trkpt>
      <trkpt lat="48.73869" lon="1.77554">
        <ele>161.7</ele>
        <time>2015-06-19T11:06:21.000Z</time>
      </trkpt>
      <trkpt lat="48.73863" lon="1.77568">
        <ele>162.9</ele>
        <time>2015-06-19T11:06:30.000Z</time>
      </trkpt>
      <trkpt lat="48.7386" lon="1.77579">
        <ele>163.5</ele>
        <time>2015-06-19T11:06:36.000Z</time>
      </trkpt>
      <trkpt lat="48.7386" lon="1.77584">
        <ele>163.9</ele>
        <time>2015-06-19T11:06:41.000Z</time>
      </trkpt>
      <trkpt lat="48.73859" lon="1.77588">
        <ele>163.7</ele>
        <time>2015-06-19T11:06:49.000Z</time>
      </trkpt>
      <trkpt lat="48.73858" lon="1.77608">
        <ele>164.5</ele>
        <time>2015-06-19T11:06:55.000Z</time>
      </trkpt>
      <trkpt lat="48.73856" lon="1.7761">
        <ele>164.4</ele>
        <time>2015-06-19T11:06:56.000Z</time>
      </trkpt>
      <trkpt lat="48.73849" lon="1.77622">
        <ele>164.4</ele>
        <time>2015-06-19T11:07:01.000Z</time>
      </trkpt>
      <trkpt lat="48.73846" lon="1.77633">
        <ele>164.9</ele>
        <time>2015-06-19T11:07:06.000Z</time>
      </trkpt>
      <trkpt lat="48.73848" lon="1.77648">
        <ele>165.9</ele>
        <time>2015-06-19T11:07:13.000Z</time>
      </trkpt>
      <trkpt lat="48.73845" lon="1.77664">
        <ele>166.1</ele>
        <time>2015-06-19T11:07:20.000Z</time>
      </trkpt>
      <trkpt lat="48.73842" lon="1.77682">
        <ele>166.3</ele>
        <time>2015-06-19T11:07:27.000Z</time>
      </trkpt>
      <trkpt lat="48.73839" lon="1.77694">
        <ele>166.4</ele>
        <time>2015-06-19T11:07:32.000Z</time>
      </trkpt>
      <trkpt lat="48.73835" lon="1.77712">
        <ele>166.1</ele>
        <time>2015-06-19T11:07:40.000Z</time>
      </trkpt>
      <trkpt lat="48.73829" lon="1.77733">
        <ele>165.6</ele>
        <time>2015-06-19T11:07:49.000Z</time>
      </trkpt>
      <trkpt lat="48.73826" lon="1.77757">
        <ele>165.2</ele>
        <time>2015-06-19T11:07:59.000Z</time>
      </trkpt>
      <trkpt lat="48.73825" lon="1.77773">
        <ele>165.1</ele>
        <time>2015-06-19T11:08:06.000Z</time>
      </trkpt>
      <trkpt lat="48.73823" lon="1.77789">
        <ele>164.9</ele>
        <time>2015-06-19T11:08:13.000Z</time>
      </trkpt>
      <trkpt lat="48.73823" lon="1.77808">
        <ele>165</ele>
        <time>2015-06-19T11:08:19.000Z</time>
      </trkpt>
      <trkpt lat="48.73821" lon="1.77829">
        <ele>165.2</ele>
        <time>2015-06-19T11:08:27.000Z</time>
      </trkpt>
      <trkpt lat="48.73819" lon="1.77842">
        <ele>165.1</ele>
        <time>2015-06-19T11:08:33.000Z</time>
      </trkpt>
      <trkpt lat="48.73818" lon="1.77858">
        <ele>165.3</ele>
        <time>2015-06-19T11:08:40.000Z</time>
      </trkpt>
      <trkpt lat="48.73818" lon="1.77864">
        <ele>165.5</ele>
        <time>2015-06-19T11:08:43.000Z</time>
      </trkpt>
      <trkpt lat="48.73822" lon="1.77877">
        <ele>166.6</ele>
        <time>2015-06-19T11:08:49.000Z</time>
      </trkpt>
      <trkpt lat="48.73823" lon="1.77881">
        <ele>166.9</ele>
        <time>2015-06-19T11:08:51.000Z</time>
      </trkpt>
      <trkpt lat="48.7382" lon="1.77897">
        <ele>167.5</ele>
        <time>2015-06-19T11:08:58.000Z</time>
      </trkpt>
      <trkpt lat="48.73815" lon="1.7791">
        <ele>167.6</ele>
        <time>2015-06-19T11:09:05.000Z</time>
      </trkpt>
      <trkpt lat="48.73807" lon="1.77921">
        <ele>167.5</ele>
        <time>2015-06-19T11:09:11.000Z</time>
      </trkpt>
      <trkpt lat="48.738" lon="1.77933">
        <ele>167.5</ele>
        <time>2015-06-19T11:09:17.000Z</time>
      </trkpt>
      <trkpt lat="48.73796" lon="1.77942">
        <ele>167.5</ele>
        <time>2015-06-19T11:09:21.000Z</time>
      </trkpt>
      <trkpt lat="48.73792" lon="1.77959">
        <ele>167.8</ele>
        <time>2015-06-19T11:09:28.000Z</time>
      </trkpt>
      <trkpt lat="48.73787" lon="1.7798">
        <ele>168.3</ele>
        <time>2015-06-19T11:09:37.000Z</time>
      </trkpt>
      <trkpt lat="48.73784" lon="1.77994">
        <ele>168.5</ele>
        <time>2015-06-19T11:09:44.000Z</time>
      </trkpt>
      <trkpt lat="48.7378" lon="1.78009">
        <ele>168.6</ele>
        <time>2015-06-19T11:09:51.000Z</time>
      </trkpt>
      <trkpt lat="48.73778" lon="1.78021">
        <ele>168.8</ele>
        <time>2015-06-19T11:09:56.000Z</time>
      </trkpt>
      <trkpt lat="48.73776" lon="1.78031">
        <ele>169</ele>
        <time>2015-06-19T11:10:00.000Z</time>
      </trkpt>
      <trkpt lat="48.73773" lon="1.78047">
        <ele>169.9</ele>
        <time>2015-06-19T11:10:07.000Z</time>
      </trkpt>
      <trkpt lat="48.73771" lon="1.78062">
        <ele>170.5</ele>
        <time>2015-06-19T11:10:13.000Z</time>
      </trkpt>
      <trkpt lat="48.7377" lon="1.78079">
        <ele>171.2</ele>
        <time>2015-06-19T11:10:20.000Z</time>
      </trkpt>
      <trkpt lat="48.73769" lon="1.78104">
        <ele>172.1</ele>
        <time>2015-06-19T11:10:30.000Z</time>
      </trkpt>
      <trkpt lat="48.73766" lon="1.78126">
        <ele>172.5</ele>
        <time>2015-06-19T11:10:40.000Z</time>
      </trkpt>
      <trkpt lat="48.73762" lon="1.78138">
        <ele>172.3</ele>
        <time>2015-06-19T11:10:46.000Z</time>
      </trkpt>
      <trkpt lat="48.73757" lon="1.78149">
        <ele>172.1</ele>
        <time>2015-06-19T11:10:52.000Z</time>
      </trkpt>
      <trkpt lat="48.73754" lon="1.78162">
        <ele>172.1</ele>
        <time>2015-06-19T11:10:58.000Z</time>
      </trkpt>
      <trkpt lat="48.73752" lon="1.78175">
        <ele>172.1</ele>
        <time>2015-06-19T11:11:04.000Z</time>
      </trkpt>
      <trkpt lat="48.73753" lon="1.78187">
        <ele>172.3</ele>
        <time>2015-06-19T11:11:09.000Z</time>
      </trkpt>
      <trkpt lat="48.73754" lon="1.78197">
        <ele>172.5</ele>
        <time>2015-06-19T11:11:15.000Z</time>
      </trkpt>
      <trkpt lat="48.73757" lon="1.78203">
        <ele>172.9</ele>
        <time>2015-06-19T11:11:19.000Z</time>
      </trkpt>
      <trkpt lat="48.73758" lon="1.78208">
        <ele>173.2</ele>
        <time>2015-06-19T11:11:25.000Z</time>
      </trkpt>
      <trkpt lat="48.73755" lon="1.78219">
        <ele>173.3</ele>
        <time>2015-06-19T11:11:31.000Z</time>
      </trkpt>
      <trkpt lat="48.73755" lon="1.78229">
        <ele>173.3</ele>
        <time>2015-06-19T11:11:36.000Z</time>
      </trkpt>
      <trkpt lat="48.73755" lon="1.78232">
        <ele>173.3</ele>
        <time>2015-06-19T11:11:37.000Z</time>
      </trkpt>
      <trkpt lat="48.73753" lon="1.78249">
        <ele>173.2</ele>
        <time>2015-06-19T11:11:44.000Z</time>
      </trkpt>
      <trkpt lat="48.73751" lon="1.78259">
        <ele>173.7</ele>
        <time>2015-06-19T11:11:48.000Z</time>
      </trkpt>
      <trkpt lat="48.73744" lon="1.78272">
        <ele>174.6</ele>
        <time>2015-06-19T11:11:55.000Z</time>
      </trkpt>
      <trkpt lat="48.73737" lon="1.78283">
        <ele>175.2</ele>
        <time>2015-06-19T11:12:01.000Z</time>
      </trkpt>
      <trkpt lat="48.73734" lon="1.78292">
        <ele>175.5</ele>
        <time>2015-06-19T11:12:06.000Z</time>
      </trkpt>
      <trkpt lat="48.73731" lon="1.78308">
        <ele>176.1</ele>
        <time>2015-06-19T11:12:14.000Z</time>
      </trkpt>
      <trkpt lat="48.7373" lon="1.78316">
        <ele>176.4</ele>
        <time>2015-06-19T11:12:18.000Z</time>
      </trkpt>
      <trkpt lat="48.73728" lon="1.78339">
        <ele>177.2</ele>
        <time>2015-06-19T11:12:27.000Z</time>
      </trkpt>
      <trkpt lat="48.73726" lon="1.78357">
        <ele>177.9</ele>
        <time>2015-06-19T11:12:35.000Z</time>
      </trkpt>
      <trkpt lat="48.73723" lon="1.78376">
        <ele>178.6</ele>
        <time>2015-06-19T11:12:41.000Z</time>
      </trkpt>
      <trkpt lat="48.73725" lon="1.78396">
        <ele>179</ele>
        <time>2015-06-19T11:12:46.000Z</time>
      </trkpt>
      <trkpt lat="48.73728" lon="1.78407">
        <ele>179.1</ele>
        <time>2015-06-19T11:12:51.000Z</time>
      </trkpt>
      <trkpt lat="48.73732" lon="1.78428">
        <ele>179.6</ele>
        <time>2015-06-19T11:13:01.000Z</time>
      </trkpt>
      <trkpt lat="48.73736" lon="1.78448">
        <ele>180.1</ele>
        <time>2015-06-19T11:13:11.000Z</time>
      </trkpt>
      <trkpt lat="48.73741" lon="1.7847">
        <ele>180.6</ele>
        <time>2015-06-19T11:13:22.000Z</time>
      </trkpt>
      <trkpt lat="48.73745" lon="1.78486">
        <ele>180.8</ele>
        <time>2015-06-19T11:13:30.000Z</time>
      </trkpt>
      <trkpt lat="48.73749" lon="1.78504">
        <ele>181</ele>
        <time>2015-06-19T11:13:38.000Z</time>
      </trkpt>
      <trkpt lat="48.73755" lon="1.78524">
        <ele>181</ele>
        <time>2015-06-19T11:13:47.000Z</time>
      </trkpt>
      <trkpt lat="48.73759" lon="1.78542">
        <ele>180.7</ele>
        <time>2015-06-19T11:13:55.000Z</time>
      </trkpt>
      <trkpt lat="48.7376" lon="1.78546">
        <ele>180.6</ele>
        <time>2015-06-19T11:13:57.000Z</time>
      </trkpt>
      <trkpt lat="48.73763" lon="1.78565">
        <ele>180.5</ele>
        <time>2015-06-19T11:14:02.000Z</time>
      </trkpt>
      <trkpt lat="48.73772" lon="1.78612">
        <ele>180.8</ele>
        <time>2015-06-19T11:14:11.000Z</time>
      </trkpt>
      <trkpt lat="48.73779" lon="1.78647">
        <ele>181</ele>
        <time>2015-06-19T11:14:18.000Z</time>
      </trkpt>
      <trkpt lat="48.73782" lon="1.78667">
        <ele>181</ele>
        <time>2015-06-19T11:14:24.000Z</time>
      </trkpt>
      <trkpt lat="48.73785" lon="1.78684">
        <ele>181</ele>
        <time>2015-06-19T11:14:32.000Z</time>
      </trkpt>
      <trkpt lat="48.73788" lon="1.78707">
        <ele>181.4</ele>
        <time>2015-06-19T11:14:37.000Z</time>
      </trkpt>
      <trkpt lat="48.73796" lon="1.7875">
        <ele>182</ele>
        <time>2015-06-19T11:14:45.000Z</time>
      </trkpt>
      <trkpt lat="48.73802" lon="1.78784">
        <ele>182</ele>
        <time>2015-06-19T11:14:51.000Z</time>
      </trkpt>
      <trkpt lat="48.7381" lon="1.7883">
        <ele>182</ele>
        <time>2015-06-19T11:14:58.000Z</time>
      </trkpt>
      <trkpt lat="48.73817" lon="1.78874">
        <ele>182.5</ele>
        <time>2015-06-19T11:15:04.000Z</time>
      </trkpt>
      <trkpt lat="48.73821" lon="1.78896">
        <ele>183</ele>
        <time>2015-06-19T11:15:07.000Z</time>
      </trkpt>
      <trkpt lat="48.73828" lon="1.78932">
        <ele>183</ele>
        <time>2015-06-19T11:15:12.000Z</time>
      </trkpt>
      <trkpt lat="48.73837" lon="1.78975">
        <ele>183</ele>
        <time>2015-06-19T11:15:19.000Z</time>
      </trkpt>
      <trkpt lat="48.73842" lon="1.79003">
        <ele>183</ele>
        <time>2015-06-19T11:15:25.000Z</time>
      </trkpt>
      <trkpt lat="48.73844" lon="1.79016">
        <ele>183</ele>
        <time>2015-06-19T11:15:30.000Z</time>
      </trkpt>
      <trkpt lat="48.73846" lon="1.79036">
        <ele>183</ele>
        <time>2015-06-19T11:15:39.000Z</time>
      </trkpt>
      <trkpt lat="48.7385" lon="1.79048">
        <ele>183</ele>
        <time>2015-06-19T11:15:46.000Z</time>
      </trkpt>
      <trkpt lat="48.73854" lon="1.79054">
        <ele>183</ele>
        <time>2015-06-19T11:15:53.000Z</time>
      </trkpt>
      <trkpt lat="48.73856" lon="1.79063">
        <ele>183</ele>
        <time>2015-06-19T11:16:03.000Z</time>
      </trkpt>
      <trkpt lat="48.73861" lon="1.7907">
        <ele>183</ele>
        <time>2015-06-19T11:16:08.000Z</time>
      </trkpt>
      <trkpt lat="48.73873" lon="1.7908">
        <ele>183</ele>
        <time>2015-06-19T11:16:18.000Z</time>
      </trkpt>
      <trkpt lat="48.73884" lon="1.79089">
        <ele>183</ele>
        <time>2015-06-19T11:16:27.000Z</time>
      </trkpt>
      <trkpt lat="48.73888" lon="1.79091">
        <ele>183</ele>
        <time>2015-06-19T11:16:30.000Z</time>
      </trkpt>
      <trkpt lat="48.73889" lon="1.79091">
        <ele>183</ele>
        <time>2015-06-19T11:16:33.000Z</time>
      </trkpt>
      <trkpt lat="48.73883" lon="1.79088">
        <ele>183</ele>
        <time>2015-06-19T11:16:39.000Z</time>
      </trkpt>
      <trkpt lat="48.73871" lon="1.79078">
        <ele>183</ele>
        <time>2015-06-19T11:16:48.000Z</time>
      </trkpt>
      <trkpt lat="48.73861" lon="1.79068">
        <ele>183</ele>
        <time>2015-06-19T11:16:55.000Z</time>
      </trkpt>
      <trkpt lat="48.73857" lon="1.79057">
        <ele>183</ele>
        <time>2015-06-19T11:17:01.000Z</time>
      </trkpt>
      <trkpt lat="48.73858" lon="1.79047">
        <ele>183</ele>
        <time>2015-06-19T11:17:06.000Z</time>
      </trkpt>
      <trkpt lat="48.73868" lon="1.79036">
        <ele>183</ele>
        <time>2015-06-19T11:17:15.000Z</time>
      </trkpt>
      <trkpt lat="48.73877" lon="1.79023">
        <ele>183</ele>
        <time>2015-06-19T11:17:24.000Z</time>
      </trkpt>
      <trkpt lat="48.73889" lon="1.79011">
        <ele>183</ele>
        <time>2015-06-19T11:17:33.000Z</time>
      </trkpt>
      <trkpt lat="48.739" lon="1.79002">
        <ele>183</ele>
        <time>2015-06-19T11:17:41.000Z</time>
      </trkpt>
      <trkpt lat="48.7391" lon="1.78993">
        <ele>183</ele>
        <time>2015-06-19T11:17:48.000Z</time>
      </trkpt>
      <trkpt lat="48.7392" lon="1.78981">
        <ele>183</ele>
        <time>2015-06-19T11:17:53.000Z</time>
      </trkpt>
      <trkpt lat="48.73935" lon="1.78962">
        <ele>183</ele>
        <time>2015-06-19T11:17:59.000Z</time>
      </trkpt>
      <trkpt lat="48.73953" lon="1.78944">
        <ele>183</ele>
        <time>2015-06-19T11:18:05.000Z</time>
      </trkpt>
      <trkpt lat="48.73974" lon="1.78925">
        <ele>183</ele>
        <time>2015-06-19T11:18:11.000Z</time>
      </trkpt>
      <trkpt lat="48.73992" lon="1.78912">
        <ele>183</ele>
        <time>2015-06-19T11:18:17.000Z</time>
      </trkpt>
      <trkpt lat="48.7401" lon="1.78889">
        <ele>183</ele>
        <time>2015-06-19T11:18:24.000Z</time>
      </trkpt>
      <trkpt lat="48.74032" lon="1.78866">
        <ele>183</ele>
        <time>2015-06-19T11:18:31.000Z</time>
      </trkpt>
      <trkpt lat="48.74059" lon="1.78842">
        <ele>183</ele>
        <time>2015-06-19T11:18:39.000Z</time>
      </trkpt>
      <trkpt lat="48.7409" lon="1.78808">
        <ele>183</ele>
        <time>2015-06-19T11:18:48.000Z</time>
      </trkpt>
      <trkpt lat="48.74126" lon="1.78771">
        <ele>182.6</ele>
        <time>2015-06-19T11:18:57.000Z</time>
      </trkpt>
      <trkpt lat="48.74146" lon="1.7875">
        <ele>182.7</ele>
        <time>2015-06-19T11:19:02.000Z</time>
      </trkpt>
      <trkpt lat="48.74154" lon="1.7874">
        <ele>182.4</ele>
        <time>2015-06-19T11:19:05.000Z</time>
      </trkpt>
      <trkpt lat="48.74163" lon="1.78734">
        <ele>182.1</ele>
        <time>2015-06-19T11:19:09.000Z</time>
      </trkpt>
      <trkpt lat="48.74166" lon="1.78735">
        <ele>182</ele>
        <time>2015-06-19T11:19:14.000Z</time>
      </trkpt>
      <trkpt lat="48.74173" lon="1.78735">
        <ele>182</ele>
        <time>2015-06-19T11:19:35.000Z</time>
      </trkpt>
      <trkpt lat="48.74176" lon="1.78741">
        <ele>182</ele>
        <time>2015-06-19T11:19:37.000Z</time>
      </trkpt>
      <trkpt lat="48.74179" lon="1.78753">
        <ele>182</ele>
        <time>2015-06-19T11:19:45.000Z</time>
      </trkpt>
      <trkpt lat="48.74181" lon="1.7876">
        <ele>182</ele>
        <time>2015-06-19T11:19:55.000Z</time>
      </trkpt>
      <trkpt lat="48.74185" lon="1.78775">
        <ele>182</ele>
        <time>2015-06-19T11:20:01.000Z</time>
      </trkpt>
      <trkpt lat="48.74194" lon="1.78797">
        <ele>182</ele>
        <time>2015-06-19T11:20:07.000Z</time>
      </trkpt>
      <trkpt lat="48.74194" lon="1.788">
        <ele>182</ele>
        <time>2015-06-19T11:20:08.000Z</time>
      </trkpt>
      <trkpt lat="48.74195" lon="1.78802">
        <ele>182</ele>
        <time>2015-06-19T11:20:11.000Z</time>
      </trkpt>
      <trkpt lat="48.74198" lon="1.7881">
        <ele>182</ele>
        <time>2015-06-19T11:20:17.000Z</time>
      </trkpt>
      <trkpt lat="48.74206" lon="1.78826">
        <ele>182</ele>
        <time>2015-06-19T11:20:24.000Z</time>
      </trkpt>
      <trkpt lat="48.74209" lon="1.78837">
        <ele>182</ele>
        <time>2015-06-19T11:20:30.000Z</time>
      </trkpt>
      <trkpt lat="48.74213" lon="1.78844">
        <ele>182</ele>
        <time>2015-06-19T11:20:35.000Z</time>
      </trkpt>
      <trkpt lat="48.74221" lon="1.78856">
        <ele>182</ele>
        <time>2015-06-19T11:20:41.000Z</time>
      </trkpt>
      <trkpt lat="48.74226" lon="1.78867">
        <ele>182</ele>
        <time>2015-06-19T11:20:47.000Z</time>
      </trkpt>
      <trkpt lat="48.74236" lon="1.78885">
        <ele>182</ele>
        <time>2015-06-19T11:20:56.000Z</time>
      </trkpt>
      <trkpt lat="48.74242" lon="1.78898">
        <ele>182</ele>
        <time>2015-06-19T11:21:03.000Z</time>
      </trkpt>
      <trkpt lat="48.74246" lon="1.78912">
        <ele>182</ele>
        <time>2015-06-19T11:21:10.000Z</time>
      </trkpt>
      <trkpt lat="48.74251" lon="1.78922">
        <ele>182</ele>
        <time>2015-06-19T11:21:15.000Z</time>
      </trkpt>
      <trkpt lat="48.74255" lon="1.78932">
        <ele>182</ele>
        <time>2015-06-19T11:21:20.000Z</time>
      </trkpt>
      <trkpt lat="48.74262" lon="1.78951">
        <ele>182</ele>
        <time>2015-06-19T11:21:29.000Z</time>
      </trkpt>
      <trkpt lat="48.74265" lon="1.78964">
        <ele>182</ele>
        <time>2015-06-19T11:21:35.000Z</time>
      </trkpt>
      <trkpt lat="48.74268" lon="1.78972">
        <ele>182</ele>
        <time>2015-06-19T11:21:40.000Z</time>
      </trkpt>
      <trkpt lat="48.74274" lon="1.78986">
        <ele>182</ele>
        <time>2015-06-19T11:21:47.000Z</time>
      </trkpt>
      <trkpt lat="48.74282" lon="1.79002">
        <ele>182</ele>
        <time>2015-06-19T11:21:56.000Z</time>
      </trkpt>
      <trkpt lat="48.74285" lon="1.79014">
        <ele>182</ele>
        <time>2015-06-19T11:22:01.000Z</time>
      </trkpt>
      <trkpt lat="48.7429" lon="1.79031">
        <ele>182</ele>
        <time>2015-06-19T11:22:06.000Z</time>
      </trkpt>
      <trkpt lat="48.74292" lon="1.79034">
        <ele>182</ele>
        <time>2015-06-19T11:22:07.000Z</time>
      </trkpt>
      <trkpt lat="48.74302" lon="1.79065">
        <ele>182</ele>
        <time>2015-06-19T11:22:14.000Z</time>
      </trkpt>
      <trkpt lat="48.74312" lon="1.79089">
        <ele>182</ele>
        <time>2015-06-19T11:22:19.000Z</time>
      </trkpt>
      <trkpt lat="48.7432" lon="1.79107">
        <ele>182</ele>
        <time>2015-06-19T11:22:23.000Z</time>
      </trkpt>
      <trkpt lat="48.74334" lon="1.79134">
        <ele>182</ele>
        <time>2015-06-19T11:22:29.000Z</time>
      </trkpt>
      <trkpt lat="48.74347" lon="1.79163">
        <ele>182</ele>
        <time>2015-06-19T11:22:35.000Z</time>
      </trkpt>
      <trkpt lat="48.74355" lon="1.79181">
        <ele>182</ele>
        <time>2015-06-19T11:22:39.000Z</time>
      </trkpt>
      <trkpt lat="48.7436" lon="1.79189">
        <ele>182</ele>
        <time>2015-06-19T11:22:43.000Z</time>
      </trkpt>
      <trkpt lat="48.74363" lon="1.79201">
        <ele>182</ele>
        <time>2015-06-19T11:22:49.000Z</time>
      </trkpt>
      <trkpt lat="48.74373" lon="1.79213">
        <ele>182</ele>
        <time>2015-06-19T11:22:55.000Z</time>
      </trkpt>
      <trkpt lat="48.74376" lon="1.79221">
        <ele>182</ele>
        <time>2015-06-19T11:22:59.000Z</time>
      </trkpt>
      <trkpt lat="48.74381" lon="1.79242">
        <ele>182</ele>
        <time>2015-06-19T11:23:08.000Z</time>
      </trkpt>
      <trkpt lat="48.74385" lon="1.79252">
        <ele>182</ele>
        <time>2015-06-19T11:23:13.000Z</time>
      </trkpt>
      <trkpt lat="48.74387" lon="1.79262">
        <ele>182</ele>
        <time>2015-06-19T11:23:18.000Z</time>
      </trkpt>
      <trkpt lat="48.74391" lon="1.79274">
        <ele>182</ele>
        <time>2015-06-19T11:23:24.000Z</time>
      </trkpt>
      <trkpt lat="48.74399" lon="1.79286">
        <ele>182</ele>
        <time>2015-06-19T11:23:30.000Z</time>
      </trkpt>
      <trkpt lat="48.74407" lon="1.79302">
        <ele>182</ele>
        <time>2015-06-19T11:23:39.000Z</time>
      </trkpt>
      <trkpt lat="48.74415" lon="1.79316">
        <ele>182</ele>
        <time>2015-06-19T11:23:47.000Z</time>
      </trkpt>
      <trkpt lat="48.74423" lon="1.7933">
        <ele>182</ele>
        <time>2015-06-19T11:23:54.000Z</time>
      </trkpt>
      <trkpt lat="48.74423" lon="1.79343">
        <ele>182</ele>
        <time>2015-06-19T11:24:00.000Z</time>
      </trkpt>
      <trkpt lat="48.74424" lon="1.79352">
        <ele>182</ele>
        <time>2015-06-19T11:24:05.000Z</time>
      </trkpt>
      <trkpt lat="48.74425" lon="1.79365">
        <ele>182</ele>
        <time>2015-06-19T11:24:11.000Z</time>
      </trkpt>
      <trkpt lat="48.74425" lon="1.79374">
        <ele>182</ele>
        <time>2015-06-19T11:24:15.000Z</time>
      </trkpt>
      <trkpt lat="48.74425" lon="1.79386">
        <ele>182</ele>
        <time>2015-06-19T11:24:20.000Z</time>
      </trkpt>
      <trkpt lat="48.74422" lon="1.79404">
        <ele>182</ele>
        <time>2015-06-19T11:24:28.000Z</time>
      </trkpt>
      <trkpt lat="48.74422" lon="1.79418">
        <ele>182</ele>
        <time>2015-06-19T11:24:34.000Z</time>
      </trkpt>
      <trkpt lat="48.74423" lon="1.79424">
        <ele>182.2</ele>
        <time>2015-06-19T11:24:37.000Z</time>
      </trkpt>
      <trkpt lat="48.74424" lon="1.7943">
        <ele>182.4</ele>
        <time>2015-06-19T11:24:40.000Z</time>
      </trkpt>
      <trkpt lat="48.74429" lon="1.79445">
        <ele>182.5</ele>
        <time>2015-06-19T11:24:47.000Z</time>
      </trkpt>
      <trkpt lat="48.74431" lon="1.79457">
        <ele>182.5</ele>
        <time>2015-06-19T11:24:52.000Z</time>
      </trkpt>
      <trkpt lat="48.74431" lon="1.79469">
        <ele>182.5</ele>
        <time>2015-06-19T11:24:57.000Z</time>
      </trkpt>
      <trkpt lat="48.7443" lon="1.79481">
        <ele>182.5</ele>
        <time>2015-06-19T11:25:02.000Z</time>
      </trkpt>
      <trkpt lat="48.74433" lon="1.7949">
        <ele>182.4</ele>
        <time>2015-06-19T11:25:06.000Z</time>
      </trkpt>
      <trkpt lat="48.74433" lon="1.79503">
        <ele>182.4</ele>
        <time>2015-06-19T11:25:11.000Z</time>
      </trkpt>
      <trkpt lat="48.74432" lon="1.79515">
        <ele>182.4</ele>
        <time>2015-06-19T11:25:16.000Z</time>
      </trkpt>
      <trkpt lat="48.74433" lon="1.79534">
        <ele>182.4</ele>
        <time>2015-06-19T11:25:23.000Z</time>
      </trkpt>
      <trkpt lat="48.74434" lon="1.79545">
        <ele>182.4</ele>
        <time>2015-06-19T11:25:28.000Z</time>
      </trkpt>
      <trkpt lat="48.74431" lon="1.79556">
        <ele>182.5</ele>
        <time>2015-06-19T11:25:33.000Z</time>
      </trkpt>
      <trkpt lat="48.74435" lon="1.7957">
        <ele>182.4</ele>
        <time>2015-06-19T11:25:38.000Z</time>
      </trkpt>
      <trkpt lat="48.74433" lon="1.79581">
        <ele>182.4</ele>
        <time>2015-06-19T11:25:43.000Z</time>
      </trkpt>
      <trkpt lat="48.74436" lon="1.79595">
        <ele>182.6</ele>
        <time>2015-06-19T11:25:49.000Z</time>
      </trkpt>
      <trkpt lat="48.74436" lon="1.79597">
        <ele>182.7</ele>
        <time>2015-06-19T11:25:50.000Z</time>
      </trkpt>
      <trkpt lat="48.74437" lon="1.79614">
        <ele>183</ele>
        <time>2015-06-19T11:25:57.000Z</time>
      </trkpt>
      <trkpt lat="48.74437" lon="1.79615">
        <ele>183</ele>
        <time>2015-06-19T11:25:58.000Z</time>
      </trkpt>
      <trkpt lat="48.74439" lon="1.79626">
        <ele>183</ele>
        <time>2015-06-19T11:26:02.000Z</time>
      </trkpt>
      <trkpt lat="48.74436" lon="1.79642">
        <ele>183</ele>
        <time>2015-06-19T11:26:09.000Z</time>
      </trkpt>
      <trkpt lat="48.74442" lon="1.79658">
        <ele>183</ele>
        <time>2015-06-19T11:26:15.000Z</time>
      </trkpt>
      <trkpt lat="48.74442" lon="1.7967">
        <ele>183</ele>
        <time>2015-06-19T11:26:20.000Z</time>
      </trkpt>
      <trkpt lat="48.74442" lon="1.79679">
        <ele>183</ele>
        <time>2015-06-19T11:26:26.000Z</time>
      </trkpt>
      <trkpt lat="48.74444" lon="1.79694">
        <ele>183</ele>
        <time>2015-06-19T11:26:32.000Z</time>
      </trkpt>
      <trkpt lat="48.74445" lon="1.79705">
        <ele>183</ele>
        <time>2015-06-19T11:26:36.000Z</time>
      </trkpt>
      <trkpt lat="48.74444" lon="1.79712">
        <ele>183</ele>
        <time>2015-06-19T11:26:38.000Z</time>
      </trkpt>
      <trkpt lat="48.74444" lon="1.79729">
        <ele>183.2</ele>
        <time>2015-06-19T11:26:44.000Z</time>
      </trkpt>
      <trkpt lat="48.74442" lon="1.79743">
        <ele>183.8</ele>
        <time>2015-06-19T11:26:50.000Z</time>
      </trkpt>
      <trkpt lat="48.74444" lon="1.79759">
        <ele>184</ele>
        <time>2015-06-19T11:26:57.000Z</time>
      </trkpt>
      <trkpt lat="48.7445" lon="1.79777">
        <ele>184</ele>
        <time>2015-06-19T11:27:04.000Z</time>
      </trkpt>
      <trkpt lat="48.74454" lon="1.79791">
        <ele>184</ele>
        <time>2015-06-19T11:27:11.000Z</time>
      </trkpt>
      <trkpt lat="48.74455" lon="1.79806">
        <ele>184</ele>
        <time>2015-06-19T11:27:17.000Z</time>
      </trkpt>
      <trkpt lat="48.74455" lon="1.79813">
        <ele>184</ele>
        <time>2015-06-19T11:27:20.000Z</time>
      </trkpt>
      <trkpt lat="48.74455" lon="1.79828">
        <ele>184</ele>
        <time>2015-06-19T11:27:26.000Z</time>
      </trkpt>
      <trkpt lat="48.74455" lon="1.79851">
        <ele>184</ele>
        <time>2015-06-19T11:27:35.000Z</time>
      </trkpt>
      <trkpt lat="48.74454" lon="1.79866">
        <ele>184</ele>
        <time>2015-06-19T11:27:42.000Z</time>
      </trkpt>
      <trkpt lat="48.74457" lon="1.79875">
        <ele>184</ele>
        <time>2015-06-19T11:27:47.000Z</time>
      </trkpt>
      <trkpt lat="48.74459" lon="1.79884">
        <ele>184</ele>
        <time>2015-06-19T11:28:01.000Z</time>
      </trkpt>
      <trkpt lat="48.74456" lon="1.79893">
        <ele>184.1</ele>
        <time>2015-06-19T11:28:07.000Z</time>
      </trkpt>
      <trkpt lat="48.74456" lon="1.79895">
        <ele>184.2</ele>
        <time>2015-06-19T11:28:08.000Z</time>
      </trkpt>
      <trkpt lat="48.74455" lon="1.79911">
        <ele>184.8</ele>
        <time>2015-06-19T11:28:15.000Z</time>
      </trkpt>
      <trkpt lat="48.74458" lon="1.79926">
        <ele>185</ele>
        <time>2015-06-19T11:28:21.000Z</time>
      </trkpt>
      <trkpt lat="48.74459" lon="1.79935">
        <ele>185</ele>
        <time>2015-06-19T11:28:25.000Z</time>
      </trkpt>
      <trkpt lat="48.74459" lon="1.79946">
        <ele>185</ele>
        <time>2015-06-19T11:28:29.000Z</time>
      </trkpt>
      <trkpt lat="48.74458" lon="1.79965">
        <ele>185</ele>
        <time>2015-06-19T11:28:38.000Z</time>
      </trkpt>
      <trkpt lat="48.74458" lon="1.79975">
        <ele>185</ele>
        <time>2015-06-19T11:28:43.000Z</time>
      </trkpt>
      <trkpt lat="48.74458" lon="1.79995">
        <ele>185</ele>
        <time>2015-06-19T11:28:50.000Z</time>
      </trkpt>
      <trkpt lat="48.74459" lon="1.79999">
        <ele>185</ele>
        <time>2015-06-19T11:28:52.000Z</time>
      </trkpt>
      <trkpt lat="48.74459" lon="1.80013">
        <ele>185</ele>
        <time>2015-06-19T11:28:57.000Z</time>
      </trkpt>
      <trkpt lat="48.74459" lon="1.80024">
        <ele>185</ele>
        <time>2015-06-19T11:29:01.000Z</time>
      </trkpt>
      <trkpt lat="48.74458" lon="1.80045">
        <ele>185</ele>
        <time>2015-06-19T11:29:09.000Z</time>
      </trkpt>
      <trkpt lat="48.7446" lon="1.80059">
        <ele>185</ele>
        <time>2015-06-19T11:29:14.000Z</time>
      </trkpt>
      <trkpt lat="48.7446" lon="1.80061">
        <ele>185</ele>
        <time>2015-06-19T11:29:15.000Z</time>
      </trkpt>
      <trkpt lat="48.74456" lon="1.80072">
        <ele>185</ele>
        <time>2015-06-19T11:29:21.000Z</time>
      </trkpt>
      <trkpt lat="48.74457" lon="1.80077">
        <ele>185</ele>
        <time>2015-06-19T11:29:23.000Z</time>
      </trkpt>
      <trkpt lat="48.7446" lon="1.80098">
        <ele>185</ele>
        <time>2015-06-19T11:29:32.000Z</time>
      </trkpt>
      <trkpt lat="48.74461" lon="1.80113">
        <ele>185</ele>
        <time>2015-06-19T11:29:39.000Z</time>
      </trkpt>
      <trkpt lat="48.74462" lon="1.80131">
        <ele>185</ele>
        <time>2015-06-19T11:29:46.000Z</time>
      </trkpt>
      <trkpt lat="48.74464" lon="1.80148">
        <ele>185</ele>
        <time>2015-06-19T11:29:53.000Z</time>
      </trkpt>
      <trkpt lat="48.74468" lon="1.80164">
        <ele>185</ele>
        <time>2015-06-19T11:29:59.000Z</time>
      </trkpt>
      <trkpt lat="48.74472" lon="1.80181">
        <ele>185</ele>
        <time>2015-06-19T11:30:06.000Z</time>
      </trkpt>
      <trkpt lat="48.7447" lon="1.80194">
        <ele>185</ele>
        <time>2015-06-19T11:30:11.000Z</time>
      </trkpt>
      <trkpt lat="48.7447" lon="1.80204">
        <ele>185</ele>
        <time>2015-06-19T11:30:15.000Z</time>
      </trkpt>
      <trkpt lat="48.74474" lon="1.80221">
        <ele>184.9</ele>
        <time>2015-06-19T11:30:22.000Z</time>
      </trkpt>
      <trkpt lat="48.74475" lon="1.80233">
        <ele>184.6</ele>
        <time>2015-06-19T11:30:27.000Z</time>
      </trkpt>
      <trkpt lat="48.7448" lon="1.80254">
        <ele>184</ele>
        <time>2015-06-19T11:30:36.000Z</time>
      </trkpt>
      <trkpt lat="48.7448" lon="1.80267">
        <ele>184</ele>
        <time>2015-06-19T11:30:42.000Z</time>
      </trkpt>
      <trkpt lat="48.74479" lon="1.80283">
        <ele>184</ele>
        <time>2015-06-19T11:30:48.000Z</time>
      </trkpt>
      <trkpt lat="48.74478" lon="1.80302">
        <ele>184</ele>
        <time>2015-06-19T11:30:55.000Z</time>
      </trkpt>
      <trkpt lat="48.74478" lon="1.80317">
        <ele>184</ele>
        <time>2015-06-19T11:31:01.000Z</time>
      </trkpt>
      <trkpt lat="48.74482" lon="1.80332">
        <ele>184</ele>
        <time>2015-06-19T11:31:08.000Z</time>
      </trkpt>
      <trkpt lat="48.74481" lon="1.80353">
        <ele>184</ele>
        <time>2015-06-19T11:31:16.000Z</time>
      </trkpt>
      <trkpt lat="48.74481" lon="1.80358">
        <ele>184</ele>
        <time>2015-06-19T11:31:18.000Z</time>
      </trkpt>
      <trkpt lat="48.74484" lon="1.80379">
        <ele>184</ele>
        <time>2015-06-19T11:31:27.000Z</time>
      </trkpt>
      <trkpt lat="48.74486" lon="1.80394">
        <ele>184</ele>
        <time>2015-06-19T11:31:33.000Z</time>
      </trkpt>
      <trkpt lat="48.74484" lon="1.80412">
        <ele>184</ele>
        <time>2015-06-19T11:31:40.000Z</time>
      </trkpt>
      <trkpt lat="48.74484" lon="1.80427">
        <ele>184</ele>
        <time>2015-06-19T11:31:46.000Z</time>
      </trkpt>
      <trkpt lat="48.74483" lon="1.80437">
        <ele>184</ele>
        <time>2015-06-19T11:31:51.000Z</time>
      </trkpt>
      <trkpt lat="48.74483" lon="1.80445">
        <ele>184</ele>
        <time>2015-06-19T11:31:54.000Z</time>
      </trkpt>
      <trkpt lat="48.74485" lon="1.80461">
        <ele>184</ele>
        <time>2015-06-19T11:32:02.000Z</time>
      </trkpt>
      <trkpt lat="48.74486" lon="1.80475">
        <ele>184</ele>
        <time>2015-06-19T11:32:08.000Z</time>
      </trkpt>
      <trkpt lat="48.74486" lon="1.80493">
        <ele>184</ele>
        <time>2015-06-19T11:32:14.000Z</time>
      </trkpt>
      <trkpt lat="48.74486" lon="1.80504">
        <ele>184</ele>
        <time>2015-06-19T11:32:18.000Z</time>
      </trkpt>
      <trkpt lat="48.74489" lon="1.80515">
        <ele>184</ele>
        <time>2015-06-19T11:32:23.000Z</time>
      </trkpt>
      <trkpt lat="48.74489" lon="1.80521">
        <ele>184</ele>
        <time>2015-06-19T11:32:25.000Z</time>
      </trkpt>
      <trkpt lat="48.7449" lon="1.8054">
        <ele>184</ele>
        <time>2015-06-19T11:32:32.000Z</time>
      </trkpt>
      <trkpt lat="48.74491" lon="1.80552">
        <ele>184</ele>
        <time>2015-06-19T11:32:37.000Z</time>
      </trkpt>
      <trkpt lat="48.74491" lon="1.80572">
        <ele>184</ele>
        <time>2015-06-19T11:32:45.000Z</time>
      </trkpt>
      <trkpt lat="48.74491" lon="1.80591">
        <ele>184</ele>
        <time>2015-06-19T11:32:52.000Z</time>
      </trkpt>
      <trkpt lat="48.74492" lon="1.80606">
        <ele>184</ele>
        <time>2015-06-19T11:32:59.000Z</time>
      </trkpt>
      <trkpt lat="48.74491" lon="1.80624">
        <ele>184</ele>
        <time>2015-06-19T11:33:07.000Z</time>
      </trkpt>
      <trkpt lat="48.74489" lon="1.80635">
        <ele>184</ele>
        <time>2015-06-19T11:33:12.000Z</time>
      </trkpt>
      <trkpt lat="48.74483" lon="1.80651">
        <ele>184</ele>
        <time>2015-06-19T11:33:20.000Z</time>
      </trkpt>
      <trkpt lat="48.74478" lon="1.80664">
        <ele>184</ele>
        <time>2015-06-19T11:33:27.000Z</time>
      </trkpt>
      <trkpt lat="48.74474" lon="1.8068">
        <ele>184</ele>
        <time>2015-06-19T11:33:35.000Z</time>
      </trkpt>
      <trkpt lat="48.74472" lon="1.80684">
        <ele>184</ele>
        <time>2015-06-19T11:33:38.000Z</time>
      </trkpt>
      <trkpt lat="48.74471" lon="1.80685">
        <ele>184</ele>
        <time>2015-06-19T11:33:41.000Z</time>
      </trkpt>
      <trkpt lat="48.74463" lon="1.80685">
        <ele>184</ele>
        <time>2015-06-19T11:33:59.000Z</time>
      </trkpt>
      <trkpt lat="48.74449" lon="1.80685">
        <ele>184</ele>
        <time>2015-06-19T11:34:07.000Z</time>
      </trkpt>
      <trkpt lat="48.74439" lon="1.80687">
        <ele>184</ele>
        <time>2015-06-19T11:34:14.000Z</time>
      </trkpt>
      <trkpt lat="48.7443" lon="1.80691">
        <ele>184</ele>
        <time>2015-06-19T11:34:21.000Z</time>
      </trkpt>
      <trkpt lat="48.74417" lon="1.80692">
        <ele>184</ele>
        <time>2015-06-19T11:34:29.000Z</time>
      </trkpt>
      <trkpt lat="48.74406" lon="1.80693">
        <ele>184</ele>
        <time>2015-06-19T11:34:37.000Z</time>
      </trkpt>
      <trkpt lat="48.74397" lon="1.80698">
        <ele>184</ele>
        <time>2015-06-19T11:34:44.000Z</time>
      </trkpt>
      <trkpt lat="48.7439" lon="1.80701">
        <ele>184</ele>
        <time>2015-06-19T11:34:49.000Z</time>
      </trkpt>
      <trkpt lat="48.74385" lon="1.80706">
        <ele>184</ele>
        <time>2015-06-19T11:34:52.000Z</time>
      </trkpt>
      <trkpt lat="48.74375" lon="1.80706">
        <ele>184</ele>
        <time>2015-06-19T11:34:59.000Z</time>
      </trkpt>
      <trkpt lat="48.7437" lon="1.80706">
        <ele>184</ele>
        <time>2015-06-19T11:35:03.000Z</time>
      </trkpt>
      <trkpt lat="48.74369" lon="1.80706">
        <ele>184</ele>
        <time>2015-06-19T11:35:04.000Z</time>
      </trkpt>
      <trkpt lat="48.74356" lon="1.80704">
        <ele>184</ele>
        <time>2015-06-19T11:35:12.000Z</time>
      </trkpt>
      <trkpt lat="48.74346" lon="1.80706">
        <ele>184</ele>
        <time>2015-06-19T11:35:16.000Z</time>
      </trkpt>
      <trkpt lat="48.74337" lon="1.80709">
        <ele>184</ele>
        <time>2015-06-19T11:35:22.000Z</time>
      </trkpt>
      <trkpt lat="48.74327" lon="1.80712">
        <ele>184</ele>
        <time>2015-06-19T11:35:29.000Z</time>
      </trkpt>
      <trkpt lat="48.74319" lon="1.80713">
        <ele>184</ele>
        <time>2015-06-19T11:35:36.000Z</time>
      </trkpt>
      <trkpt lat="48.74311" lon="1.80714">
        <ele>184</ele>
        <time>2015-06-19T11:35:41.000Z</time>
      </trkpt>
      <trkpt lat="48.74304" lon="1.80717">
        <ele>184</ele>
        <time>2015-06-19T11:35:46.000Z</time>
      </trkpt>
      <trkpt lat="48.74295" lon="1.80717">
        <ele>184</ele>
        <time>2015-06-19T11:35:52.000Z</time>
      </trkpt>
      <trkpt lat="48.74281" lon="1.80721">
        <ele>184</ele>
        <time>2015-06-19T11:35:59.000Z</time>
      </trkpt>
      <trkpt lat="48.74268" lon="1.80722">
        <ele>184</ele>
        <time>2015-06-19T11:36:06.000Z</time>
      </trkpt>
      <trkpt lat="48.74259" lon="1.80726">
        <ele>184</ele>
        <time>2015-06-19T11:36:12.000Z</time>
      </trkpt>
      <trkpt lat="48.74247" lon="1.80729">
        <ele>184</ele>
        <time>2015-06-19T11:36:18.000Z</time>
      </trkpt>
      <trkpt lat="48.74239" lon="1.8073">
        <ele>184</ele>
        <time>2015-06-19T11:36:23.000Z</time>
      </trkpt>
      <trkpt lat="48.74237" lon="1.80731">
        <ele>184</ele>
        <time>2015-06-19T11:36:24.000Z</time>
      </trkpt>
      <trkpt lat="48.74228" lon="1.80735">
        <ele>184</ele>
        <time>2015-06-19T11:36:30.000Z</time>
      </trkpt>
      <trkpt lat="48.74219" lon="1.80737">
        <ele>184</ele>
        <time>2015-06-19T11:36:36.000Z</time>
      </trkpt>
      <trkpt lat="48.74214" lon="1.80738">
        <ele>184</ele>
        <time>2015-06-19T11:36:39.000Z</time>
      </trkpt>
      <trkpt lat="48.74203" lon="1.80739">
        <ele>184</ele>
        <time>2015-06-19T11:36:47.000Z</time>
      </trkpt>
      <trkpt lat="48.74193" lon="1.80742">
        <ele>184</ele>
        <time>2015-06-19T11:36:52.000Z</time>
      </trkpt>
      <trkpt lat="48.74184" lon="1.80745">
        <ele>184.4</ele>
        <time>2015-06-19T11:36:57.000Z</time>
      </trkpt>
      <trkpt lat="48.74183" lon="1.80747">
        <ele>184.4</ele>
        <time>2015-06-19T11:36:58.000Z</time>
      </trkpt>
      <trkpt lat="48.7417" lon="1.80747">
        <ele>184.9</ele>
        <time>2015-06-19T11:37:05.000Z</time>
      </trkpt>
      <trkpt lat="48.74167" lon="1.80749">
        <ele>185</ele>
        <time>2015-06-19T11:37:07.000Z</time>
      </trkpt>
      <trkpt lat="48.74158" lon="1.8075">
        <ele>185</ele>
        <time>2015-06-19T11:37:14.000Z</time>
      </trkpt>
      <trkpt lat="48.74149" lon="1.80753">
        <ele>185</ele>
        <time>2015-06-19T11:37:20.000Z</time>
      </trkpt>
      <trkpt lat="48.74138" lon="1.80756">
        <ele>185</ele>
        <time>2015-06-19T11:37:26.000Z</time>
      </trkpt>
      <trkpt lat="48.74128" lon="1.80755">
        <ele>185</ele>
        <time>2015-06-19T11:37:30.000Z</time>
      </trkpt>
      <trkpt lat="48.74115" lon="1.80755">
        <ele>185</ele>
        <time>2015-06-19T11:37:37.000Z</time>
      </trkpt>
      <trkpt lat="48.74106" lon="1.80753">
        <ele>185</ele>
        <time>2015-06-19T11:37:42.000Z</time>
      </trkpt>
      <trkpt lat="48.741" lon="1.80754">
        <ele>185</ele>
        <time>2015-06-19T11:37:46.000Z</time>
      </trkpt>
      <trkpt lat="48.74092" lon="1.80758">
        <ele>185</ele>
        <time>2015-06-19T11:37:53.000Z</time>
      </trkpt>
      <trkpt lat="48.74086" lon="1.80757">
        <ele>185</ele>
        <time>2015-06-19T11:37:58.000Z</time>
      </trkpt>
      <trkpt lat="48.74075" lon="1.80757">
        <ele>185</ele>
        <time>2015-06-19T11:38:05.000Z</time>
      </trkpt>
      <trkpt lat="48.74068" lon="1.8076">
        <ele>185</ele>
        <time>2015-06-19T11:38:10.000Z</time>
      </trkpt>
      <trkpt lat="48.74066" lon="1.8076">
        <ele>185</ele>
        <time>2015-06-19T11:38:11.000Z</time>
      </trkpt>
      <trkpt lat="48.74055" lon="1.80764">
        <ele>185</ele>
        <time>2015-06-19T11:38:17.000Z</time>
      </trkpt>
      <trkpt lat="48.74038" lon="1.80764">
        <ele>185</ele>
        <time>2015-06-19T11:38:25.000Z</time>
      </trkpt>
      <trkpt lat="48.74028" lon="1.80766">
        <ele>185</ele>
        <time>2015-06-19T11:38:32.000Z</time>
      </trkpt>
      <trkpt lat="48.7402" lon="1.80769">
        <ele>185</ele>
        <time>2015-06-19T11:38:38.000Z</time>
      </trkpt>
      <trkpt lat="48.74005" lon="1.80773">
        <ele>185</ele>
        <time>2015-06-19T11:38:45.000Z</time>
      </trkpt>
      <trkpt lat="48.73996" lon="1.80774">
        <ele>185</ele>
        <time>2015-06-19T11:38:51.000Z</time>
      </trkpt>
      <trkpt lat="48.73987" lon="1.80779">
        <ele>185</ele>
        <time>2015-06-19T11:38:58.000Z</time>
      </trkpt>
      <trkpt lat="48.73975" lon="1.80784">
        <ele>185</ele>
        <time>2015-06-19T11:39:05.000Z</time>
      </trkpt>
      <trkpt lat="48.73966" lon="1.80785">
        <ele>185</ele>
        <time>2015-06-19T11:39:11.000Z</time>
      </trkpt>
      <trkpt lat="48.73957" lon="1.80785">
        <ele>185</ele>
        <time>2015-06-19T11:39:16.000Z</time>
      </trkpt>
      <trkpt lat="48.73953" lon="1.80788">
        <ele>185</ele>
        <time>2015-06-19T11:39:19.000Z</time>
      </trkpt>
      <trkpt lat="48.73939" lon="1.8079">
        <ele>185</ele>
        <time>2015-06-19T11:39:27.000Z</time>
      </trkpt>
      <trkpt lat="48.73935" lon="1.80786">
        <ele>185</ele>
        <time>2015-06-19T11:39:31.000Z</time>
      </trkpt>
      <trkpt lat="48.73923" lon="1.80788">
        <ele>185</ele>
        <time>2015-06-19T11:39:37.000Z</time>
      </trkpt>
      <trkpt lat="48.73917" lon="1.80788">
        <ele>185</ele>
        <time>2015-06-19T11:39:40.000Z</time>
      </trkpt>
      <trkpt lat="48.73914" lon="1.80787">
        <ele>185</ele>
        <time>2015-06-19T11:39:43.000Z</time>
      </trkpt>
      <trkpt lat="48.73906" lon="1.80789">
        <ele>185</ele>
        <time>2015-06-19T11:39:50.000Z</time>
      </trkpt>
      <trkpt lat="48.73894" lon="1.80795">
        <ele>185</ele>
        <time>2015-06-19T11:39:56.000Z</time>
      </trkpt>
      <trkpt lat="48.73883" lon="1.80797">
        <ele>185</ele>
        <time>2015-06-19T11:40:02.000Z</time>
      </trkpt>
      <trkpt lat="48.73881" lon="1.80797">
        <ele>185</ele>
        <time>2015-06-19T11:40:03.000Z</time>
      </trkpt>
      <trkpt lat="48.73872" lon="1.80799">
        <ele>185</ele>
        <time>2015-06-19T11:40:08.000Z</time>
      </trkpt>
      <trkpt lat="48.73868" lon="1.80799">
        <ele>185</ele>
        <time>2015-06-19T11:40:11.000Z</time>
      </trkpt>
      <trkpt lat="48.73862" lon="1.808">
        <ele>185</ele>
        <time>2015-06-19T11:40:16.000Z</time>
      </trkpt>
      <trkpt lat="48.73852" lon="1.80804">
        <ele>185</ele>
        <time>2015-06-19T11:40:22.000Z</time>
      </trkpt>
      <trkpt lat="48.73842" lon="1.80807">
        <ele>185</ele>
        <time>2015-06-19T11:40:28.000Z</time>
      </trkpt>
      <trkpt lat="48.7383" lon="1.80808">
        <ele>185</ele>
        <time>2015-06-19T11:40:34.000Z</time>
      </trkpt>
      <trkpt lat="48.73821" lon="1.80807">
        <ele>185</ele>
        <time>2015-06-19T11:40:41.000Z</time>
      </trkpt>
      <trkpt lat="48.73809" lon="1.80811">
        <ele>185</ele>
        <time>2015-06-19T11:40:48.000Z</time>
      </trkpt>
      <trkpt lat="48.738" lon="1.80813">
        <ele>185</ele>
        <time>2015-06-19T11:40:54.000Z</time>
      </trkpt>
      <trkpt lat="48.73788" lon="1.80815">
        <ele>185</ele>
        <time>2015-06-19T11:41:01.000Z</time>
      </trkpt>
      <trkpt lat="48.73785" lon="1.80817">
        <ele>185</ele>
        <time>2015-06-19T11:41:03.000Z</time>
      </trkpt>
      <trkpt lat="48.73776" lon="1.80819">
        <ele>185</ele>
        <time>2015-06-19T11:41:09.000Z</time>
      </trkpt>
      <trkpt lat="48.73765" lon="1.80824">
        <ele>185</ele>
        <time>2015-06-19T11:41:15.000Z</time>
      </trkpt>
      <trkpt lat="48.73752" lon="1.80824">
        <ele>185</ele>
        <time>2015-06-19T11:41:22.000Z</time>
      </trkpt>
      <trkpt lat="48.73742" lon="1.80825">
        <ele>185</ele>
        <time>2015-06-19T11:41:29.000Z</time>
      </trkpt>
      <trkpt lat="48.73731" lon="1.80826">
        <ele>185</ele>
        <time>2015-06-19T11:41:35.000Z</time>
      </trkpt>
      <trkpt lat="48.73728" lon="1.80826">
        <ele>185</ele>
        <time>2015-06-19T11:41:37.000Z</time>
      </trkpt>
      <trkpt lat="48.73713" lon="1.80832">
        <ele>185</ele>
        <time>2015-06-19T11:41:45.000Z</time>
      </trkpt>
      <trkpt lat="48.73702" lon="1.80835">
        <ele>185</ele>
        <time>2015-06-19T11:41:52.000Z</time>
      </trkpt>
      <trkpt lat="48.73688" lon="1.80835">
        <ele>185</ele>
        <time>2015-06-19T11:42:01.000Z</time>
      </trkpt>
      <trkpt lat="48.73674" lon="1.8084">
        <ele>185</ele>
        <time>2015-06-19T11:42:09.000Z</time>
      </trkpt>
      <trkpt lat="48.73665" lon="1.80841">
        <ele>184.9</ele>
        <time>2015-06-19T11:42:15.000Z</time>
      </trkpt>
      <trkpt lat="48.73653" lon="1.80843">
        <ele>184.5</ele>
        <time>2015-06-19T11:42:23.000Z</time>
      </trkpt>
      <trkpt lat="48.7365" lon="1.80842">
        <ele>184.4</ele>
        <time>2015-06-19T11:42:25.000Z</time>
      </trkpt>
      <trkpt lat="48.73643" lon="1.80843">
        <ele>184.1</ele>
        <time>2015-06-19T11:42:30.000Z</time>
      </trkpt>
      <trkpt lat="48.73632" lon="1.80842">
        <ele>184</ele>
        <time>2015-06-19T11:42:36.000Z</time>
      </trkpt>
      <trkpt lat="48.7363" lon="1.80841">
        <ele>184</ele>
        <time>2015-06-19T11:42:38.000Z</time>
      </trkpt>
      <trkpt lat="48.73616" lon="1.80845">
        <ele>184</ele>
        <time>2015-06-19T11:42:45.000Z</time>
      </trkpt>
      <trkpt lat="48.73612" lon="1.80847">
        <ele>184</ele>
        <time>2015-06-19T11:42:47.000Z</time>
      </trkpt>
      <trkpt lat="48.73598" lon="1.80849">
        <ele>184</ele>
        <time>2015-06-19T11:42:55.000Z</time>
      </trkpt>
      <trkpt lat="48.73587" lon="1.80844">
        <ele>184</ele>
        <time>2015-06-19T11:43:02.000Z</time>
      </trkpt>
      <trkpt lat="48.73579" lon="1.80839">
        <ele>184</ele>
        <time>2015-06-19T11:43:08.000Z</time>
      </trkpt>
      <trkpt lat="48.73578" lon="1.80838">
        <ele>184</ele>
        <time>2015-06-19T11:43:09.000Z</time>
      </trkpt>
      <trkpt lat="48.73572" lon="1.80838">
        <ele>184</ele>
        <time>2015-06-19T11:43:15.000Z</time>
      </trkpt>
      <trkpt lat="48.73561" lon="1.80831">
        <ele>184</ele>
        <time>2015-06-19T11:43:22.000Z</time>
      </trkpt>
      <trkpt lat="48.7355" lon="1.80822">
        <ele>184</ele>
        <time>2015-06-19T11:43:30.000Z</time>
      </trkpt>
      <trkpt lat="48.73542" lon="1.80813">
        <ele>184</ele>
        <time>2015-06-19T11:43:37.000Z</time>
      </trkpt>
      <trkpt lat="48.73542" lon="1.80813">
        <ele>184</ele>
        <time>2015-06-19T11:43:41.000Z</time>
      </trkpt>
      <trkpt lat="48.73537" lon="1.8081">
        <ele>184</ele>
        <time>2015-06-19T11:43:52.000Z</time>
      </trkpt>
      <trkpt lat="48.7353" lon="1.80803">
        <ele>184</ele>
        <time>2015-06-19T11:43:56.000Z</time>
      </trkpt>
      <trkpt lat="48.73523" lon="1.80793">
        <ele>184</ele>
        <time>2015-06-19T11:44:02.000Z</time>
      </trkpt>
      <trkpt lat="48.73512" lon="1.80784">
        <ele>184</ele>
        <time>2015-06-19T11:44:08.000Z</time>
      </trkpt>
      <trkpt lat="48.73502" lon="1.80775">
        <ele>184</ele>
        <time>2015-06-19T11:44:12.000Z</time>
      </trkpt>
      <trkpt lat="48.73481" lon="1.80759">
        <ele>184</ele>
        <time>2015-06-19T11:44:19.000Z</time>
      </trkpt>
      <trkpt lat="48.73467" lon="1.80744">
        <ele>184</ele>
        <time>2015-06-19T11:44:24.000Z</time>
      </trkpt>
      <trkpt lat="48.73446" lon="1.80725">
        <ele>184</ele>
        <time>2015-06-19T11:44:31.000Z</time>
      </trkpt>
      <trkpt lat="48.73428" lon="1.80707">
        <ele>183.4</ele>
        <time>2015-06-19T11:44:37.000Z</time>
      </trkpt>
      <trkpt lat="48.73408" lon="1.80682">
        <ele>183.3</ele>
        <time>2015-06-19T11:44:44.000Z</time>
      </trkpt>
      <trkpt lat="48.73395" lon="1.80669">
        <ele>183.2</ele>
        <time>2015-06-19T11:44:48.000Z</time>
      </trkpt>
      <trkpt lat="48.73372" lon="1.80654">
        <ele>183</ele>
        <time>2015-06-19T11:44:54.000Z</time>
      </trkpt>
      <trkpt lat="48.73358" lon="1.80641">
        <ele>183</ele>
        <time>2015-06-19T11:44:59.000Z</time>
      </trkpt>
      <trkpt lat="48.73341" lon="1.80624">
        <ele>183</ele>
        <time>2015-06-19T11:45:04.000Z</time>
      </trkpt>
      <trkpt lat="48.73329" lon="1.80611">
        <ele>183</ele>
        <time>2015-06-19T11:45:08.000Z</time>
      </trkpt>
      <trkpt lat="48.73312" lon="1.80592">
        <ele>183</ele>
        <time>2015-06-19T11:45:13.000Z</time>
      </trkpt>
      <trkpt lat="48.73297" lon="1.80578">
        <ele>182.6</ele>
        <time>2015-06-19T11:45:17.000Z</time>
      </trkpt>
      <trkpt lat="48.73281" lon="1.80562">
        <ele>182</ele>
        <time>2015-06-19T11:45:23.000Z</time>
      </trkpt>
      <trkpt lat="48.73267" lon="1.80551">
        <ele>182</ele>
        <time>2015-06-19T11:45:28.000Z</time>
      </trkpt>
      <trkpt lat="48.73254" lon="1.80538">
        <ele>182</ele>
        <time>2015-06-19T11:45:33.000Z</time>
      </trkpt>
      <trkpt lat="48.73245" lon="1.80528">
        <ele>181.8</ele>
        <time>2015-06-19T11:45:39.000Z</time>
      </trkpt>
      <trkpt lat="48.73235" lon="1.80521">
        <ele>181.5</ele>
        <time>2015-06-19T11:45:46.000Z</time>
      </trkpt>
      <trkpt lat="48.73228" lon="1.8052">
        <ele>181.2</ele>
        <time>2015-06-19T11:45:51.000Z</time>
      </trkpt>
      <trkpt lat="48.73224" lon="1.80514">
        <ele>181.1</ele>
        <time>2015-06-19T11:45:55.000Z</time>
      </trkpt>
      <trkpt lat="48.73213" lon="1.805">
        <ele>181</ele>
        <time>2015-06-19T11:46:02.000Z</time>
      </trkpt>
      <trkpt lat="48.73202" lon="1.8049">
        <ele>181</ele>
        <time>2015-06-19T11:46:07.000Z</time>
      </trkpt>
      <trkpt lat="48.73195" lon="1.80481">
        <ele>181</ele>
        <time>2015-06-19T11:46:14.000Z</time>
      </trkpt>
      <trkpt lat="48.73189" lon="1.80477">
        <ele>181</ele>
        <time>2015-06-19T11:46:21.000Z</time>
      </trkpt>
      <trkpt lat="48.73184" lon="1.80478">
        <ele>181</ele>
        <time>2015-06-19T11:46:28.000Z</time>
      </trkpt>
      <trkpt lat="48.73182" lon="1.80475">
        <ele>181</ele>
        <time>2015-06-19T11:46:33.000Z</time>
      </trkpt>
      <trkpt lat="48.73181" lon="1.80474">
        <ele>181</ele>
        <time>2015-06-19T11:46:35.000Z</time>
      </trkpt>
      <trkpt lat="48.73173" lon="1.8047">
        <ele>181</ele>
        <time>2015-06-19T11:46:54.000Z</time>
      </trkpt>
      <trkpt lat="48.73158" lon="1.80455">
        <ele>181</ele>
        <time>2015-06-19T11:47:04.000Z</time>
      </trkpt>
      <trkpt lat="48.73145" lon="1.80444">
        <ele>181</ele>
        <time>2015-06-19T11:47:13.000Z</time>
      </trkpt>
      <trkpt lat="48.7313" lon="1.80429">
        <ele>180.7</ele>
        <time>2015-06-19T11:47:24.000Z</time>
      </trkpt>
      <trkpt lat="48.73115" lon="1.80414">
        <ele>180.1</ele>
        <time>2015-06-19T11:47:36.000Z</time>
      </trkpt>
      <trkpt lat="48.73102" lon="1.80403">
        <ele>179.8</ele>
        <time>2015-06-19T11:47:45.000Z</time>
      </trkpt>
      <trkpt lat="48.73091" lon="1.80392">
        <ele>179.4</ele>
        <time>2015-06-19T11:47:53.000Z</time>
      </trkpt>
      <trkpt lat="48.73079" lon="1.80384">
        <ele>178.8</ele>
        <time>2015-06-19T11:48:01.000Z</time>
      </trkpt>
      <trkpt lat="48.73066" lon="1.80375">
        <ele>178.4</ele>
        <time>2015-06-19T11:48:10.000Z</time>
      </trkpt>
      <trkpt lat="48.73049" lon="1.80367">
        <ele>177.8</ele>
        <time>2015-06-19T11:48:19.000Z</time>
      </trkpt>
      <trkpt lat="48.73037" lon="1.80358">
        <ele>177.3</ele>
        <time>2015-06-19T11:48:27.000Z</time>
      </trkpt>
      <trkpt lat="48.73028" lon="1.80351">
        <ele>177</ele>
        <time>2015-06-19T11:48:33.000Z</time>
      </trkpt>
      <trkpt lat="48.73022" lon="1.8035">
        <ele>176.7</ele>
        <time>2015-06-19T11:48:37.000Z</time>
      </trkpt>
      <trkpt lat="48.7301" lon="1.80343">
        <ele>176</ele>
        <time>2015-06-19T11:48:44.000Z</time>
      </trkpt>
      <trkpt lat="48.72998" lon="1.80341">
        <ele>175.2</ele>
        <time>2015-06-19T11:48:50.000Z</time>
      </trkpt>
      <trkpt lat="48.72989" lon="1.80335">
        <ele>174.6</ele>
        <time>2015-06-19T11:48:56.000Z</time>
      </trkpt>
      <trkpt lat="48.72983" lon="1.80328">
        <ele>174.4</ele>
        <time>2015-06-19T11:49:02.000Z</time>
      </trkpt>
      <trkpt lat="48.72974" lon="1.80319">
        <ele>174.1</ele>
        <time>2015-06-19T11:49:09.000Z</time>
      </trkpt>
      <trkpt lat="48.7296" lon="1.80306">
        <ele>173.6</ele>
        <time>2015-06-19T11:49:19.000Z</time>
      </trkpt>
      <trkpt lat="48.72947" lon="1.80297">
        <ele>173.1</ele>
        <time>2015-06-19T11:49:29.000Z</time>
      </trkpt>
      <trkpt lat="48.72936" lon="1.80292">
        <ele>172.7</ele>
        <time>2015-06-19T11:49:36.000Z</time>
      </trkpt>
      <trkpt lat="48.72926" lon="1.80284">
        <ele>172.3</ele>
        <time>2015-06-19T11:49:43.000Z</time>
      </trkpt>
      <trkpt lat="48.72921" lon="1.8028">
        <ele>172.1</ele>
        <time>2015-06-19T11:49:47.000Z</time>
      </trkpt>
      <trkpt lat="48.72912" lon="1.80271">
        <ele>172</ele>
        <time>2015-06-19T11:49:54.000Z</time>
      </trkpt>
      <trkpt lat="48.72904" lon="1.80265">
        <ele>172</ele>
        <time>2015-06-19T11:49:59.000Z</time>
      </trkpt>
      <trkpt lat="48.72895" lon="1.80259">
        <ele>172</ele>
        <time>2015-06-19T11:50:06.000Z</time>
      </trkpt>
      <trkpt lat="48.72885" lon="1.80254">
        <ele>172</ele>
        <time>2015-06-19T11:50:13.000Z</time>
      </trkpt>
      <trkpt lat="48.72883" lon="1.80252">
        <ele>172</ele>
        <time>2015-06-19T11:50:15.000Z</time>
      </trkpt>
      <trkpt lat="48.72878" lon="1.80246">
        <ele>172</ele>
        <time>2015-06-19T11:50:20.000Z</time>
      </trkpt>
      <trkpt lat="48.72864" lon="1.80238">
        <ele>172</ele>
        <time>2015-06-19T11:50:29.000Z</time>
      </trkpt>
      <trkpt lat="48.72857" lon="1.80233">
        <ele>172</ele>
        <time>2015-06-19T11:50:35.000Z</time>
      </trkpt>
      <trkpt lat="48.7285" lon="1.80228">
        <ele>172</ele>
        <time>2015-06-19T11:50:41.000Z</time>
      </trkpt>
      <trkpt lat="48.72838" lon="1.80218">
        <ele>172</ele>
        <time>2015-06-19T11:50:49.000Z</time>
      </trkpt>
      <trkpt lat="48.72823" lon="1.80208">
        <ele>172</ele>
        <time>2015-06-19T11:50:59.000Z</time>
      </trkpt>
      <trkpt lat="48.7281" lon="1.802">
        <ele>172</ele>
        <time>2015-06-19T11:51:07.000Z</time>
      </trkpt>
      <trkpt lat="48.728" lon="1.8019">
        <ele>172</ele>
        <time>2015-06-19T11:51:15.000Z</time>
      </trkpt>
      <trkpt lat="48.72792" lon="1.80186">
        <ele>172</ele>
        <time>2015-06-19T11:51:20.000Z</time>
      </trkpt>
      <trkpt lat="48.7278" lon="1.80178">
        <ele>172</ele>
        <time>2015-06-19T11:51:28.000Z</time>
      </trkpt>
      <trkpt lat="48.72776" lon="1.80175">
        <ele>172</ele>
        <time>2015-06-19T11:51:34.000Z</time>
      </trkpt>
      <trkpt lat="48.7277" lon="1.80171">
        <ele>172</ele>
        <time>2015-06-19T11:51:44.000Z</time>
      </trkpt>
      <trkpt lat="48.72758" lon="1.80163">
        <ele>172</ele>
        <time>2015-06-19T11:51:53.000Z</time>
      </trkpt>
      <trkpt lat="48.72748" lon="1.80155">
        <ele>172</ele>
        <time>2015-06-19T11:52:01.000Z</time>
      </trkpt>
      <trkpt lat="48.72735" lon="1.80145">
        <ele>172</ele>
        <time>2015-06-19T11:52:10.000Z</time>
      </trkpt>
      <trkpt lat="48.72725" lon="1.80139">
        <ele>172</ele>
        <time>2015-06-19T11:52:16.000Z</time>
      </trkpt>
      <trkpt lat="48.72715" lon="1.80133">
        <ele>172.1</ele>
        <time>2015-06-19T11:52:23.000Z</time>
      </trkpt>
      <trkpt lat="48.72712" lon="1.80131">
        <ele>172.1</ele>
        <time>2015-06-19T11:52:25.000Z</time>
      </trkpt>
      <trkpt lat="48.72705" lon="1.80127">
        <ele>172.3</ele>
        <time>2015-06-19T11:52:30.000Z</time>
      </trkpt>
      <trkpt lat="48.72694" lon="1.80119">
        <ele>172.7</ele>
        <time>2015-06-19T11:52:37.000Z</time>
      </trkpt>
      <trkpt lat="48.72682" lon="1.8011">
        <ele>173</ele>
        <time>2015-06-19T11:52:45.000Z</time>
      </trkpt>
      <trkpt lat="48.72668" lon="1.80104">
        <ele>173.3</ele>
        <time>2015-06-19T11:52:54.000Z</time>
      </trkpt>
      <trkpt lat="48.72658" lon="1.80099">
        <ele>173.6</ele>
        <time>2015-06-19T11:53:01.000Z</time>
      </trkpt>
      <trkpt lat="48.72648" lon="1.80097">
        <ele>173.8</ele>
        <time>2015-06-19T11:53:06.000Z</time>
      </trkpt>
      <trkpt lat="48.72638" lon="1.80088">
        <ele>174</ele>
        <time>2015-06-19T11:53:10.000Z</time>
      </trkpt>
      <trkpt lat="48.72619" lon="1.80075">
        <ele>174.8</ele>
        <time>2015-06-19T11:53:16.000Z</time>
      </trkpt>
      <trkpt lat="48.72592" lon="1.80053">
        <ele>175.7</ele>
        <time>2015-06-19T11:53:24.000Z</time>
      </trkpt>
      <trkpt lat="48.7257" lon="1.80045">
        <ele>176.5</ele>
        <time>2015-06-19T11:53:30.000Z</time>
      </trkpt>
      <trkpt lat="48.72553" lon="1.80031">
        <ele>177.1</ele>
        <time>2015-06-19T11:53:35.000Z</time>
      </trkpt>
      <trkpt lat="48.72529" lon="1.8001">
        <ele>178</ele>
        <time>2015-06-19T11:53:42.000Z</time>
      </trkpt>
      <trkpt lat="48.72522" lon="1.80005">
        <ele>178</ele>
        <time>2015-06-19T11:53:44.000Z</time>
      </trkpt>
      <trkpt lat="48.72506" lon="1.79994">
        <ele>178</ele>
        <time>2015-06-19T11:53:48.000Z</time>
      </trkpt>
      <trkpt lat="48.72499" lon="1.79988">
        <ele>178</ele>
        <time>2015-06-19T11:53:50.000Z</time>
      </trkpt>
      <trkpt lat="48.7248" lon="1.79976">
        <ele>178</ele>
        <time>2015-06-19T11:53:55.000Z</time>
      </trkpt>
      <trkpt lat="48.72459" lon="1.79959">
        <ele>178</ele>
        <time>2015-06-19T11:54:01.000Z</time>
      </trkpt>
      <trkpt lat="48.7244" lon="1.79949">
        <ele>178</ele>
        <time>2015-06-19T11:54:06.000Z</time>
      </trkpt>
      <trkpt lat="48.72426" lon="1.79938">
        <ele>178</ele>
        <time>2015-06-19T11:54:10.000Z</time>
      </trkpt>
      <trkpt lat="48.72418" lon="1.79933">
        <ele>178</ele>
        <time>2015-06-19T11:54:12.000Z</time>
      </trkpt>
      <trkpt lat="48.72401" lon="1.79918">
        <ele>178</ele>
        <time>2015-06-19T11:54:17.000Z</time>
      </trkpt>
      <trkpt lat="48.72391" lon="1.79909">
        <ele>178</ele>
        <time>2015-06-19T11:54:20.000Z</time>
      </trkpt>
      <trkpt lat="48.72375" lon="1.79896">
        <ele>178</ele>
        <time>2015-06-19T11:54:24.000Z</time>
      </trkpt>
      <trkpt lat="48.72341" lon="1.79874">
        <ele>178</ele>
        <time>2015-06-19T11:54:32.000Z</time>
      </trkpt>
      <trkpt lat="48.72318" lon="1.79861">
        <ele>178</ele>
        <time>2015-06-19T11:54:37.000Z</time>
      </trkpt>
      <trkpt lat="48.72309" lon="1.79857">
        <ele>178</ele>
        <time>2015-06-19T11:54:39.000Z</time>
      </trkpt>
      <trkpt lat="48.72297" lon="1.79849">
        <ele>178</ele>
        <time>2015-06-19T11:54:42.000Z</time>
      </trkpt>
      <trkpt lat="48.7227" lon="1.79829">
        <ele>178</ele>
        <time>2015-06-19T11:54:49.000Z</time>
      </trkpt>
      <trkpt lat="48.72262" lon="1.79822">
        <ele>178</ele>
        <time>2015-06-19T11:54:51.000Z</time>
      </trkpt>
      <trkpt lat="48.72233" lon="1.79801">
        <ele>178</ele>
        <time>2015-06-19T11:54:58.000Z</time>
      </trkpt>
      <trkpt lat="48.72209" lon="1.79785">
        <ele>178</ele>
        <time>2015-06-19T11:55:04.000Z</time>
      </trkpt>
      <trkpt lat="48.72188" lon="1.79772">
        <ele>178</ele>
        <time>2015-06-19T11:55:09.000Z</time>
      </trkpt>
      <trkpt lat="48.7218" lon="1.79766">
        <ele>178</ele>
        <time>2015-06-19T11:55:11.000Z</time>
      </trkpt>
      <trkpt lat="48.72154" lon="1.79751">
        <ele>178</ele>
        <time>2015-06-19T11:55:17.000Z</time>
      </trkpt>
      <trkpt lat="48.72117" lon="1.79724">
        <ele>178</ele>
        <time>2015-06-19T11:55:26.000Z</time>
      </trkpt>
      <trkpt lat="48.72105" lon="1.79714">
        <ele>178.2</ele>
        <time>2015-06-19T11:55:30.000Z</time>
      </trkpt>
      <trkpt lat="48.72086" lon="1.797">
        <ele>178.1</ele>
        <time>2015-06-19T11:55:37.000Z</time>
      </trkpt>
      <trkpt lat="48.72065" lon="1.79685">
        <ele>178</ele>
        <time>2015-06-19T11:55:43.000Z</time>
      </trkpt>
      <trkpt lat="48.72049" lon="1.79672">
        <ele>178</ele>
        <time>2015-06-19T11:55:48.000Z</time>
      </trkpt>
      <trkpt lat="48.72022" lon="1.79654">
        <ele>178</ele>
        <time>2015-06-19T11:55:55.000Z</time>
      </trkpt>
      <trkpt lat="48.72009" lon="1.79644">
        <ele>178</ele>
        <time>2015-06-19T11:56:00.000Z</time>
      </trkpt>
      <trkpt lat="48.71997" lon="1.79635">
        <ele>177.8</ele>
        <time>2015-06-19T11:56:08.000Z</time>
      </trkpt>
      <trkpt lat="48.71986" lon="1.79629">
        <ele>177.3</ele>
        <time>2015-06-19T11:56:15.000Z</time>
      </trkpt>
      <trkpt lat="48.71979" lon="1.79623">
        <ele>177.1</ele>
        <time>2015-06-19T11:56:20.000Z</time>
      </trkpt>
      <trkpt lat="48.71965" lon="1.79614">
        <ele>176.8</ele>
        <time>2015-06-19T11:56:29.000Z</time>
      </trkpt>
      <trkpt lat="48.71957" lon="1.79608">
        <ele>176.4</ele>
        <time>2015-06-19T11:56:35.000Z</time>
      </trkpt>
      <trkpt lat="48.71955" lon="1.79608">
        <ele>176.4</ele>
        <time>2015-06-19T11:56:36.000Z</time>
      </trkpt>
      <trkpt lat="48.71945" lon="1.79598">
        <ele>176</ele>
        <time>2015-06-19T11:56:44.000Z</time>
      </trkpt>
      <trkpt lat="48.71934" lon="1.79593">
        <ele>175.8</ele>
        <time>2015-06-19T11:56:51.000Z</time>
      </trkpt>
      <trkpt lat="48.71932" lon="1.79592">
        <ele>175.7</ele>
        <time>2015-06-19T11:56:53.000Z</time>
      </trkpt>
      <trkpt lat="48.71917" lon="1.79584">
        <ele>175</ele>
        <time>2015-06-19T11:57:02.000Z</time>
      </trkpt>
      <trkpt lat="48.71904" lon="1.79577">
        <ele>174.3</ele>
        <time>2015-06-19T11:57:10.000Z</time>
      </trkpt>
      <trkpt lat="48.71896" lon="1.79571">
        <ele>173.8</ele>
        <time>2015-06-19T11:57:16.000Z</time>
      </trkpt>
      <trkpt lat="48.71883" lon="1.79562">
        <ele>173</ele>
        <time>2015-06-19T11:57:24.000Z</time>
      </trkpt>
      <trkpt lat="48.71875" lon="1.79554">
        <ele>172.5</ele>
        <time>2015-06-19T11:57:30.000Z</time>
      </trkpt>
      <trkpt lat="48.71867" lon="1.79542">
        <ele>172.2</ele>
        <time>2015-06-19T11:57:37.000Z</time>
      </trkpt>
      <trkpt lat="48.7186" lon="1.79539">
        <ele>171.9</ele>
        <time>2015-06-19T11:57:41.000Z</time>
      </trkpt>
      <trkpt lat="48.71845" lon="1.79527">
        <ele>170.8</ele>
        <time>2015-06-19T11:57:51.000Z</time>
      </trkpt>
      <trkpt lat="48.71832" lon="1.79519">
        <ele>169.6</ele>
        <time>2015-06-19T11:57:59.000Z</time>
      </trkpt>
      <trkpt lat="48.71819" lon="1.7951">
        <ele>168.6</ele>
        <time>2015-06-19T11:58:08.000Z</time>
      </trkpt>
      <trkpt lat="48.7181" lon="1.79507">
        <ele>168.2</ele>
        <time>2015-06-19T11:58:13.000Z</time>
      </trkpt>
      <trkpt lat="48.718" lon="1.79499">
        <ele>167.8</ele>
        <time>2015-06-19T11:58:20.000Z</time>
      </trkpt>
      <trkpt lat="48.71789" lon="1.79493">
        <ele>167.4</ele>
        <time>2015-06-19T11:58:27.000Z</time>
      </trkpt>
      <trkpt lat="48.71776" lon="1.79486">
        <ele>167.5</ele>
        <time>2015-06-19T11:58:34.000Z</time>
      </trkpt>
      <trkpt lat="48.71764" lon="1.79477">
        <ele>167.9</ele>
        <time>2015-06-19T11:58:41.000Z</time>
      </trkpt>
      <trkpt lat="48.7175" lon="1.79469">
        <ele>168.2</ele>
        <time>2015-06-19T11:58:50.000Z</time>
      </trkpt>
      <trkpt lat="48.7174" lon="1.7946">
        <ele>169</ele>
        <time>2015-06-19T11:58:57.000Z</time>
      </trkpt>
      <trkpt lat="48.71728" lon="1.7945">
        <ele>169.7</ele>
        <time>2015-06-19T11:59:05.000Z</time>
      </trkpt>
      <trkpt lat="48.71715" lon="1.79441">
        <ele>170.3</ele>
        <time>2015-06-19T11:59:13.000Z</time>
      </trkpt>
      <trkpt lat="48.71702" lon="1.79436">
        <ele>170.7</ele>
        <time>2015-06-19T11:59:20.000Z</time>
      </trkpt>
      <trkpt lat="48.71701" lon="1.79435">
        <ele>170.8</ele>
        <time>2015-06-19T11:59:21.000Z</time>
      </trkpt>
      <trkpt lat="48.71691" lon="1.79428">
        <ele>171</ele>
        <time>2015-06-19T11:59:27.000Z</time>
      </trkpt>
      <trkpt lat="48.71678" lon="1.79417">
        <ele>171</ele>
        <time>2015-06-19T11:59:36.000Z</time>
      </trkpt>
      <trkpt lat="48.71667" lon="1.7941">
        <ele>171.2</ele>
        <time>2015-06-19T11:59:44.000Z</time>
      </trkpt>
      <trkpt lat="48.71654" lon="1.794">
        <ele>171.8</ele>
        <time>2015-06-19T11:59:53.000Z</time>
      </trkpt>
      <trkpt lat="48.71643" lon="1.79391">
        <ele>172</ele>
        <time>2015-06-19T12:00:01.000Z</time>
      </trkpt>
      <trkpt lat="48.71634" lon="1.79384">
        <ele>172.2</ele>
        <time>2015-06-19T12:00:07.000Z</time>
      </trkpt>
      <trkpt lat="48.71622" lon="1.79375">
        <ele>172.6</ele>
        <time>2015-06-19T12:00:15.000Z</time>
      </trkpt>
      <trkpt lat="48.71611" lon="1.79369">
        <ele>173</ele>
        <time>2015-06-19T12:00:22.000Z</time>
      </trkpt>
      <trkpt lat="48.71598" lon="1.7936">
        <ele>173</ele>
        <time>2015-06-19T12:00:31.000Z</time>
      </trkpt>
      <trkpt lat="48.7159" lon="1.79355">
        <ele>173.2</ele>
        <time>2015-06-19T12:00:36.000Z</time>
      </trkpt>
      <trkpt lat="48.71578" lon="1.79346">
        <ele>173.7</ele>
        <time>2015-06-19T12:00:44.000Z</time>
      </trkpt>
      <trkpt lat="48.71566" lon="1.79337">
        <ele>174.5</ele>
        <time>2015-06-19T12:00:52.000Z</time>
      </trkpt>
      <trkpt lat="48.71551" lon="1.79325">
        <ele>175</ele>
        <time>2015-06-19T12:01:03.000Z</time>
      </trkpt>
      <trkpt lat="48.7154" lon="1.79316">
        <ele>175</ele>
        <time>2015-06-19T12:01:11.000Z</time>
      </trkpt>
      <trkpt lat="48.71533" lon="1.79307">
        <ele>175</ele>
        <time>2015-06-19T12:01:16.000Z</time>
      </trkpt>
      <trkpt lat="48.7153" lon="1.79288">
        <ele>175.6</ele>
        <time>2015-06-19T12:01:24.000Z</time>
      </trkpt>
      <trkpt lat="48.71535" lon="1.79272">
        <ele>175.7</ele>
        <time>2015-06-19T12:01:29.000Z</time>
      </trkpt>
      <trkpt lat="48.71544" lon="1.79243">
        <ele>175.4</ele>
        <time>2015-06-19T12:01:35.000Z</time>
      </trkpt>
      <trkpt lat="48.71556" lon="1.79207">
        <ele>175</ele>
        <time>2015-06-19T12:01:42.000Z</time>
      </trkpt>
      <trkpt lat="48.71566" lon="1.79172">
        <ele>175</ele>
        <time>2015-06-19T12:01:47.000Z</time>
      </trkpt>
      <trkpt lat="48.71574" lon="1.79141">
        <ele>175</ele>
        <time>2015-06-19T12:01:51.000Z</time>
      </trkpt>
      <trkpt lat="48.71585" lon="1.79103">
        <ele>174.9</ele>
        <time>2015-06-19T12:01:56.000Z</time>
      </trkpt>
      <trkpt lat="48.71591" lon="1.79088">
        <ele>174.7</ele>
        <time>2015-06-19T12:01:58.000Z</time>
      </trkpt>
      <trkpt lat="48.716" lon="1.7906">
        <ele>174.4</ele>
        <time>2015-06-19T12:02:02.000Z</time>
      </trkpt>
      <trkpt lat="48.7161" lon="1.79026">
        <ele>174</ele>
        <time>2015-06-19T12:02:07.000Z</time>
      </trkpt>
      <trkpt lat="48.71615" lon="1.79009">
        <ele>174</ele>
        <time>2015-06-19T12:02:10.000Z</time>
      </trkpt>
      <trkpt lat="48.71625" lon="1.78972">
        <ele>174</ele>
        <time>2015-06-19T12:02:16.000Z</time>
      </trkpt>
      <trkpt lat="48.71636" lon="1.78937">
        <ele>175</ele>
        <time>2015-06-19T12:02:21.000Z</time>
      </trkpt>
      <trkpt lat="48.71641" lon="1.78921">
        <ele>174.9</ele>
        <time>2015-06-19T12:02:23.000Z</time>
      </trkpt>
      <trkpt lat="48.71648" lon="1.78894">
        <ele>174.9</ele>
        <time>2015-06-19T12:02:27.000Z</time>
      </trkpt>
      <trkpt lat="48.71659" lon="1.78866">
        <ele>175</ele>
        <time>2015-06-19T12:02:31.000Z</time>
      </trkpt>
      <trkpt lat="48.71671" lon="1.7883">
        <ele>174.9</ele>
        <time>2015-06-19T12:02:36.000Z</time>
      </trkpt>
      <trkpt lat="48.71683" lon="1.78802">
        <ele>175</ele>
        <time>2015-06-19T12:02:41.000Z</time>
      </trkpt>
      <trkpt lat="48.71686" lon="1.78797">
        <ele>175</ele>
        <time>2015-06-19T12:02:42.000Z</time>
      </trkpt>
      <trkpt lat="48.71693" lon="1.78775">
        <ele>175</ele>
        <time>2015-06-19T12:02:45.000Z</time>
      </trkpt>
      <trkpt lat="48.71697" lon="1.78756">
        <ele>174.9</ele>
        <time>2015-06-19T12:02:48.000Z</time>
      </trkpt>
      <trkpt lat="48.71703" lon="1.78735">
        <ele>174.7</ele>
        <time>2015-06-19T12:02:52.000Z</time>
      </trkpt>
      <trkpt lat="48.71705" lon="1.78723">
        <ele>174.6</ele>
        <time>2015-06-19T12:02:54.000Z</time>
      </trkpt>
      <trkpt lat="48.71714" lon="1.78696">
        <ele>174.3</ele>
        <time>2015-06-19T12:02:59.000Z</time>
      </trkpt>
      <trkpt lat="48.71725" lon="1.78654">
        <ele>174.4</ele>
        <time>2015-06-19T12:03:07.000Z</time>
      </trkpt>
      <trkpt lat="48.71731" lon="1.78631">
        <ele>174.7</ele>
        <time>2015-06-19T12:03:13.000Z</time>
      </trkpt>
      <trkpt lat="48.71736" lon="1.78617">
        <ele>174.5</ele>
        <time>2015-06-19T12:03:19.000Z</time>
      </trkpt>
      <trkpt lat="48.71737" lon="1.78615">
        <ele>174.5</ele>
        <time>2015-06-19T12:03:20.000Z</time>
      </trkpt>
      <trkpt lat="48.71742" lon="1.78599">
        <ele>174.6</ele>
        <time>2015-06-19T12:03:28.000Z</time>
      </trkpt>
      <trkpt lat="48.71741" lon="1.78599">
        <ele>174.6</ele>
        <time>2015-06-19T12:03:30.000Z</time>
      </trkpt>
      <trkpt lat="48.71741" lon="1.78593">
        <ele>174.8</ele>
        <time>2015-06-19T12:03:35.000Z</time>
      </trkpt>
      <trkpt lat="48.71738" lon="1.78575">
        <ele>175</ele>
        <time>2015-06-19T12:03:41.000Z</time>
      </trkpt>
      <trkpt lat="48.71735" lon="1.78567">
        <ele>175</ele>
        <time>2015-06-19T12:03:45.000Z</time>
      </trkpt>
      <trkpt lat="48.71737" lon="1.78565">
        <ele>175</ele>
        <time>2015-06-19T12:03:50.000Z</time>
      </trkpt>
      <trkpt lat="48.71733" lon="1.78559">
        <ele>175</ele>
        <time>2015-06-19T12:03:56.000Z</time>
      </trkpt>
      <trkpt lat="48.71725" lon="1.78545">
        <ele>175</ele>
        <time>2015-06-19T12:04:03.000Z</time>
      </trkpt>
      <trkpt lat="48.71715" lon="1.78533">
        <ele>175.3</ele>
        <time>2015-06-19T12:04:11.000Z</time>
      </trkpt>
      <trkpt lat="48.71705" lon="1.78523">
        <ele>175.6</ele>
        <time>2015-06-19T12:04:18.000Z</time>
      </trkpt>
      <trkpt lat="48.71694" lon="1.78514">
        <ele>176</ele>
        <time>2015-06-19T12:04:26.000Z</time>
      </trkpt>
      <trkpt lat="48.71682" lon="1.78505">
        <ele>176</ele>
        <time>2015-06-19T12:04:34.000Z</time>
      </trkpt>
      <trkpt lat="48.71674" lon="1.78497">
        <ele>176.1</ele>
        <time>2015-06-19T12:04:40.000Z</time>
      </trkpt>
      <trkpt lat="48.71668" lon="1.78485">
        <ele>176.5</ele>
        <time>2015-06-19T12:04:46.000Z</time>
      </trkpt>
      <trkpt lat="48.71661" lon="1.78468">
        <ele>177</ele>
        <time>2015-06-19T12:04:53.000Z</time>
      </trkpt>
      <trkpt lat="48.71655" lon="1.78447">
        <ele>177</ele>
        <time>2015-06-19T12:05:01.000Z</time>
      </trkpt>
      <trkpt lat="48.71655" lon="1.78443">
        <ele>177</ele>
        <time>2015-06-19T12:05:03.000Z</time>
      </trkpt>
      <trkpt lat="48.71651" lon="1.78427">
        <ele>177</ele>
        <time>2015-06-19T12:05:09.000Z</time>
      </trkpt>
      <trkpt lat="48.71649" lon="1.78414">
        <ele>177</ele>
        <time>2015-06-19T12:05:14.000Z</time>
      </trkpt>
      <trkpt lat="48.71646" lon="1.7839">
        <ele>177</ele>
        <time>2015-06-19T12:05:23.000Z</time>
      </trkpt>
      <trkpt lat="48.71641" lon="1.7837">
        <ele>176.4</ele>
        <time>2015-06-19T12:05:31.000Z</time>
      </trkpt>
      <trkpt lat="48.71638" lon="1.78361">
        <ele>176</ele>
        <time>2015-06-19T12:05:36.000Z</time>
      </trkpt>
      <trkpt lat="48.71629" lon="1.78347">
        <ele>176.2</ele>
        <time>2015-06-19T12:05:44.000Z</time>
      </trkpt>
      <trkpt lat="48.71618" lon="1.78341">
        <ele>176.2</ele>
        <time>2015-06-19T12:05:51.000Z</time>
      </trkpt>
      <trkpt lat="48.71605" lon="1.78337">
        <ele>176.1</ele>
        <time>2015-06-19T12:06:00.000Z</time>
      </trkpt>
      <trkpt lat="48.71596" lon="1.78332">
        <ele>176</ele>
        <time>2015-06-19T12:06:06.000Z</time>
      </trkpt>
      <trkpt lat="48.71587" lon="1.78328">
        <ele>176</ele>
        <time>2015-06-19T12:06:12.000Z</time>
      </trkpt>
      <trkpt lat="48.71582" lon="1.78326">
        <ele>176</ele>
        <time>2015-06-19T12:06:15.000Z</time>
      </trkpt>
      <trkpt lat="48.71576" lon="1.78322">
        <ele>176</ele>
        <time>2015-06-19T12:06:19.000Z</time>
      </trkpt>
      <trkpt lat="48.7157" lon="1.78318">
        <ele>176</ele>
        <time>2015-06-19T12:06:23.000Z</time>
      </trkpt>
      <trkpt lat="48.71563" lon="1.78314">
        <ele>176</ele>
        <time>2015-06-19T12:06:28.000Z</time>
      </trkpt>
      <trkpt lat="48.71548" lon="1.78306">
        <ele>176</ele>
        <time>2015-06-19T12:06:37.000Z</time>
      </trkpt>
      <trkpt lat="48.71535" lon="1.78296">
        <ele>175.7</ele>
        <time>2015-06-19T12:06:46.000Z</time>
      </trkpt>
      <trkpt lat="48.71522" lon="1.78287">
        <ele>175.3</ele>
        <time>2015-06-19T12:06:54.000Z</time>
      </trkpt>
      <trkpt lat="48.71508" lon="1.78285">
        <ele>175.1</ele>
        <time>2015-06-19T12:07:02.000Z</time>
      </trkpt>
      <trkpt lat="48.71492" lon="1.78287">
        <ele>175</ele>
        <time>2015-06-19T12:07:10.000Z</time>
      </trkpt>
      <trkpt lat="48.71479" lon="1.78281">
        <ele>175</ele>
        <time>2015-06-19T12:07:18.000Z</time>
      </trkpt>
      <trkpt lat="48.71465" lon="1.78273">
        <ele>174.6</ele>
        <time>2015-06-19T12:07:27.000Z</time>
      </trkpt>
      <trkpt lat="48.71452" lon="1.78267">
        <ele>174.2</ele>
        <time>2015-06-19T12:07:35.000Z</time>
      </trkpt>
      <trkpt lat="48.71439" lon="1.78265">
        <ele>173.9</ele>
        <time>2015-06-19T12:07:43.000Z</time>
      </trkpt>
      <trkpt lat="48.71429" lon="1.78263">
        <ele>173.7</ele>
        <time>2015-06-19T12:07:49.000Z</time>
      </trkpt>
      <trkpt lat="48.71428" lon="1.78263">
        <ele>173.7</ele>
        <time>2015-06-19T12:07:52.000Z</time>
      </trkpt>
      <trkpt lat="48.71421" lon="1.7826">
        <ele>173.5</ele>
        <time>2015-06-19T12:08:02.000Z</time>
      </trkpt>
      <trkpt lat="48.71412" lon="1.78255">
        <ele>173</ele>
        <time>2015-06-19T12:08:07.000Z</time>
      </trkpt>
      <trkpt lat="48.71404" lon="1.7825">
        <ele>172.5</ele>
        <time>2015-06-19T12:08:13.000Z</time>
      </trkpt>
      <trkpt lat="48.71391" lon="1.78246">
        <ele>172.1</ele>
        <time>2015-06-19T12:08:21.000Z</time>
      </trkpt>
      <trkpt lat="48.71379" lon="1.78243">
        <ele>171.6</ele>
        <time>2015-06-19T12:08:28.000Z</time>
      </trkpt>
      <trkpt lat="48.71365" lon="1.78236">
        <ele>171.1</ele>
        <time>2015-06-19T12:08:33.000Z</time>
      </trkpt>
      <trkpt lat="48.71349" lon="1.78233">
        <ele>170.6</ele>
        <time>2015-06-19T12:08:38.000Z</time>
      </trkpt>
      <trkpt lat="48.71335" lon="1.78228">
        <ele>170.1</ele>
        <time>2015-06-19T12:08:42.000Z</time>
      </trkpt>
      <trkpt lat="48.7132" lon="1.78214">
        <ele>168.9</ele>
        <time>2015-06-19T12:08:47.000Z</time>
      </trkpt>
      <trkpt lat="48.71307" lon="1.78209">
        <ele>168.1</ele>
        <time>2015-06-19T12:08:51.000Z</time>
      </trkpt>
      <trkpt lat="48.71285" lon="1.782">
        <ele>166.7</ele>
        <time>2015-06-19T12:08:57.000Z</time>
      </trkpt>
      <trkpt lat="48.71271" lon="1.7819">
        <ele>165.8</ele>
        <time>2015-06-19T12:09:01.000Z</time>
      </trkpt>
      <trkpt lat="48.71257" lon="1.78177">
        <ele>165.3</ele>
        <time>2015-06-19T12:09:05.000Z</time>
      </trkpt>
      <trkpt lat="48.71243" lon="1.78159">
        <ele>165</ele>
        <time>2015-06-19T12:09:10.000Z</time>
      </trkpt>
      <trkpt lat="48.71238" lon="1.78152">
        <ele>165</ele>
        <time>2015-06-19T12:09:12.000Z</time>
      </trkpt>
      <trkpt lat="48.71216" lon="1.78139">
        <ele>164.8</ele>
        <time>2015-06-19T12:09:18.000Z</time>
      </trkpt>
      <trkpt lat="48.71201" lon="1.78126">
        <ele>164.1</ele>
        <time>2015-06-19T12:09:23.000Z</time>
      </trkpt>
      <trkpt lat="48.71189" lon="1.78111">
        <ele>164</ele>
        <time>2015-06-19T12:09:28.000Z</time>
      </trkpt>
      <trkpt lat="48.71171" lon="1.78099">
        <ele>164</ele>
        <time>2015-06-19T12:09:34.000Z</time>
      </trkpt>
      <trkpt lat="48.71168" lon="1.78096">
        <ele>164</ele>
        <time>2015-06-19T12:09:35.000Z</time>
      </trkpt>
      <trkpt lat="48.71155" lon="1.78069">
        <ele>164</ele>
        <time>2015-06-19T12:09:41.000Z</time>
      </trkpt>
      <trkpt lat="48.71147" lon="1.78047">
        <ele>164</ele>
        <time>2015-06-19T12:09:46.000Z</time>
      </trkpt>
      <trkpt lat="48.71136" lon="1.78017">
        <ele>163.9</ele>
        <time>2015-06-19T12:09:52.000Z</time>
      </trkpt>
      <trkpt lat="48.71131" lon="1.78004">
        <ele>163.2</ele>
        <time>2015-06-19T12:09:55.000Z</time>
      </trkpt>
      <trkpt lat="48.71131" lon="1.77982">
        <ele>162.8</ele>
        <time>2015-06-19T12:10:00.000Z</time>
      </trkpt>
      <trkpt lat="48.71136" lon="1.77959">
        <ele>163.5</ele>
        <time>2015-06-19T12:10:05.000Z</time>
      </trkpt>
      <trkpt lat="48.71129" lon="1.77934">
        <ele>162.2</ele>
        <time>2015-06-19T12:10:10.000Z</time>
      </trkpt>
      <trkpt lat="48.71121" lon="1.779">
        <ele>161.7</ele>
        <time>2015-06-19T12:10:16.000Z</time>
      </trkpt>
      <trkpt lat="48.71116" lon="1.77873">
        <ele>162.7</ele>
        <time>2015-06-19T12:10:22.000Z</time>
      </trkpt>
      <trkpt lat="48.71111" lon="1.77846">
        <ele>162.5</ele>
        <time>2015-06-19T12:10:27.000Z</time>
      </trkpt>
      <trkpt lat="48.71109" lon="1.77835">
        <ele>162</ele>
        <time>2015-06-19T12:10:30.000Z</time>
      </trkpt>
      <trkpt lat="48.71108" lon="1.7783">
        <ele>161.7</ele>
        <time>2015-06-19T12:10:35.000Z</time>
      </trkpt>
      <trkpt lat="48.71106" lon="1.77816">
        <ele>161.2</ele>
        <time>2015-06-19T12:10:40.000Z</time>
      </trkpt>
      <trkpt lat="48.71105" lon="1.77801">
        <ele>160.6</ele>
        <time>2015-06-19T12:10:46.000Z</time>
      </trkpt>
      <trkpt lat="48.71104" lon="1.77799">
        <ele>160.6</ele>
        <time>2015-06-19T12:10:47.000Z</time>
      </trkpt>
      <trkpt lat="48.71101" lon="1.7779">
        <ele>160.3</ele>
        <time>2015-06-19T12:10:51.000Z</time>
      </trkpt>
      <trkpt lat="48.71097" lon="1.77772">
        <ele>159.9</ele>
        <time>2015-06-19T12:10:59.000Z</time>
      </trkpt>
      <trkpt lat="48.71095" lon="1.77763">
        <ele>159.8</ele>
        <time>2015-06-19T12:11:03.000Z</time>
      </trkpt>
      <trkpt lat="48.71093" lon="1.77757">
        <ele>159.7</ele>
        <time>2015-06-19T12:11:06.000Z</time>
      </trkpt>
      <trkpt lat="48.71089" lon="1.77747">
        <ele>159.8</ele>
        <time>2015-06-19T12:11:11.000Z</time>
      </trkpt>
      <trkpt lat="48.71084" lon="1.77732">
        <ele>160</ele>
        <time>2015-06-19T12:11:18.000Z</time>
      </trkpt>
      <trkpt lat="48.71081" lon="1.77723">
        <ele>160.1</ele>
        <time>2015-06-19T12:11:23.000Z</time>
      </trkpt>
      <trkpt lat="48.71073" lon="1.7771">
        <ele>160.4</ele>
        <time>2015-06-19T12:11:29.000Z</time>
      </trkpt>
      <trkpt lat="48.71069" lon="1.77699">
        <ele>160.5</ele>
        <time>2015-06-19T12:11:34.000Z</time>
      </trkpt>
      <trkpt lat="48.71064" lon="1.77687">
        <ele>160.7</ele>
        <time>2015-06-19T12:11:40.000Z</time>
      </trkpt>
      <trkpt lat="48.71058" lon="1.7767">
        <ele>160.9</ele>
        <time>2015-06-19T12:11:47.000Z</time>
      </trkpt>
      <trkpt lat="48.71047" lon="1.77647">
        <ele>161.8</ele>
        <time>2015-06-19T12:11:57.000Z</time>
      </trkpt>
      <trkpt lat="48.71043" lon="1.77636">
        <ele>162</ele>
        <time>2015-06-19T12:12:02.000Z</time>
      </trkpt>
      <trkpt lat="48.71036" lon="1.77621">
        <ele>162</ele>
        <time>2015-06-19T12:12:09.000Z</time>
      </trkpt>
      <trkpt lat="48.71029" lon="1.77603">
        <ele>162.3</ele>
        <time>2015-06-19T12:12:17.000Z</time>
      </trkpt>
      <trkpt lat="48.71022" lon="1.77584">
        <ele>163.2</ele>
        <time>2015-06-19T12:12:25.000Z</time>
      </trkpt>
      <trkpt lat="48.71014" lon="1.77564">
        <ele>163.5</ele>
        <time>2015-06-19T12:12:34.000Z</time>
      </trkpt>
      <trkpt lat="48.71009" lon="1.7755">
        <ele>163.7</ele>
        <time>2015-06-19T12:12:40.000Z</time>
      </trkpt>
      <trkpt lat="48.71002" lon="1.77533">
        <ele>163.9</ele>
        <time>2015-06-19T12:12:48.000Z</time>
      </trkpt>
      <trkpt lat="48.70997" lon="1.77521">
        <ele>164.3</ele>
        <time>2015-06-19T12:12:54.000Z</time>
      </trkpt>
      <trkpt lat="48.70989" lon="1.77504">
        <ele>165.2</ele>
        <time>2015-06-19T12:13:03.000Z</time>
      </trkpt>
      <trkpt lat="48.70983" lon="1.7749">
        <ele>165.6</ele>
        <time>2015-06-19T12:13:10.000Z</time>
      </trkpt>
      <trkpt lat="48.70977" lon="1.77481">
        <ele>165.8</ele>
        <time>2015-06-19T12:13:15.000Z</time>
      </trkpt>
      <trkpt lat="48.70968" lon="1.77459">
        <ele>166.2</ele>
        <time>2015-06-19T12:13:25.000Z</time>
      </trkpt>
      <trkpt lat="48.70962" lon="1.77448">
        <ele>166.4</ele>
        <time>2015-06-19T12:13:30.000Z</time>
      </trkpt>
      <trkpt lat="48.70955" lon="1.77429">
        <ele>166.6</ele>
        <time>2015-06-19T12:13:38.000Z</time>
      </trkpt>
      <trkpt lat="48.70948" lon="1.77415">
        <ele>166.9</ele>
        <time>2015-06-19T12:13:45.000Z</time>
      </trkpt>
      <trkpt lat="48.70942" lon="1.77404">
        <ele>167.1</ele>
        <time>2015-06-19T12:13:51.000Z</time>
      </trkpt>
      <trkpt lat="48.70935" lon="1.77391">
        <ele>167.3</ele>
        <time>2015-06-19T12:13:57.000Z</time>
      </trkpt>
      <trkpt lat="48.70929" lon="1.77379">
        <ele>167.6</ele>
        <time>2015-06-19T12:14:03.000Z</time>
      </trkpt>
      <trkpt lat="48.7092" lon="1.77363">
        <ele>167.9</ele>
        <time>2015-06-19T12:14:11.000Z</time>
      </trkpt>
      <trkpt lat="48.70912" lon="1.77348">
        <ele>168.2</ele>
        <time>2015-06-19T12:14:19.000Z</time>
      </trkpt>
      <trkpt lat="48.70902" lon="1.77323">
        <ele>168.5</ele>
        <time>2015-06-19T12:14:30.000Z</time>
      </trkpt>
      <trkpt lat="48.709" lon="1.77318">
        <ele>168.6</ele>
        <time>2015-06-19T12:14:32.000Z</time>
      </trkpt>
      <trkpt lat="48.70893" lon="1.773">
        <ele>168.8</ele>
        <time>2015-06-19T12:14:40.000Z</time>
      </trkpt>
      <trkpt lat="48.70886" lon="1.77279">
        <ele>169.1</ele>
        <time>2015-06-19T12:14:49.000Z</time>
      </trkpt>
      <trkpt lat="48.7088" lon="1.77263">
        <ele>168.8</ele>
        <time>2015-06-19T12:14:57.000Z</time>
      </trkpt>
      <trkpt lat="48.7088" lon="1.77261">
        <ele>168.7</ele>
        <time>2015-06-19T12:14:58.000Z</time>
      </trkpt>
      <trkpt lat="48.70876" lon="1.77252">
        <ele>168.5</ele>
        <time>2015-06-19T12:15:03.000Z</time>
      </trkpt>
      <trkpt lat="48.70872" lon="1.77251">
        <ele>168.6</ele>
        <time>2015-06-19T12:15:06.000Z</time>
      </trkpt>
      <trkpt lat="48.70861" lon="1.77251">
        <ele>169</ele>
        <time>2015-06-19T12:15:13.000Z</time>
      </trkpt>
      <trkpt lat="48.70852" lon="1.77251">
        <ele>169.3</ele>
        <time>2015-06-19T12:15:19.000Z</time>
      </trkpt>
      <trkpt lat="48.70842" lon="1.77249">
        <ele>169.7</ele>
        <time>2015-06-19T12:15:25.000Z</time>
      </trkpt>
      <trkpt lat="48.70831" lon="1.77248">
        <ele>170</ele>
        <time>2015-06-19T12:15:32.000Z</time>
      </trkpt>
      <trkpt lat="48.70819" lon="1.77247">
        <ele>170</ele>
        <time>2015-06-19T12:15:39.000Z</time>
      </trkpt>
      <trkpt lat="48.7081" lon="1.77247">
        <ele>170.1</ele>
        <time>2015-06-19T12:15:45.000Z</time>
      </trkpt>
      <trkpt lat="48.708" lon="1.77247">
        <ele>170.3</ele>
        <time>2015-06-19T12:15:51.000Z</time>
      </trkpt>
      <trkpt lat="48.7079" lon="1.77247">
        <ele>170.7</ele>
        <time>2015-06-19T12:15:57.000Z</time>
      </trkpt>
      <trkpt lat="48.70776" lon="1.77247">
        <ele>171.2</ele>
        <time>2015-06-19T12:16:05.000Z</time>
      </trkpt>
      <trkpt lat="48.70762" lon="1.77247">
        <ele>171.7</ele>
        <time>2015-06-19T12:16:13.000Z</time>
      </trkpt>
      <trkpt lat="48.70754" lon="1.77248">
        <ele>171.9</ele>
        <time>2015-06-19T12:16:19.000Z</time>
      </trkpt>
      <trkpt lat="48.70745" lon="1.7725">
        <ele>172.2</ele>
        <time>2015-06-19T12:16:25.000Z</time>
      </trkpt>
      <trkpt lat="48.70733" lon="1.77252">
        <ele>172.6</ele>
        <time>2015-06-19T12:16:32.000Z</time>
      </trkpt>
      <trkpt lat="48.70725" lon="1.77254">
        <ele>172.9</ele>
        <time>2015-06-19T12:16:37.000Z</time>
      </trkpt>
      <trkpt lat="48.70716" lon="1.77255">
        <ele>173.2</ele>
        <time>2015-06-19T12:16:42.000Z</time>
      </trkpt>
      <trkpt lat="48.70712" lon="1.77255">
        <ele>173.4</ele>
        <time>2015-06-19T12:16:45.000Z</time>
      </trkpt>
      <trkpt lat="48.707" lon="1.77254">
        <ele>173.8</ele>
        <time>2015-06-19T12:16:52.000Z</time>
      </trkpt>
      <trkpt lat="48.7069" lon="1.77251">
        <ele>174</ele>
        <time>2015-06-19T12:16:58.000Z</time>
      </trkpt>
      <trkpt lat="48.70675" lon="1.77249">
        <ele>174</ele>
        <time>2015-06-19T12:17:06.000Z</time>
      </trkpt>
      <trkpt lat="48.70665" lon="1.77252">
        <ele>174.2</ele>
        <time>2015-06-19T12:17:12.000Z</time>
      </trkpt>
      <trkpt lat="48.70653" lon="1.77251">
        <ele>174.5</ele>
        <time>2015-06-19T12:17:19.000Z</time>
      </trkpt>
      <trkpt lat="48.70641" lon="1.7725">
        <ele>174.9</ele>
        <time>2015-06-19T12:17:26.000Z</time>
      </trkpt>
      <trkpt lat="48.70632" lon="1.7725">
        <ele>175</ele>
        <time>2015-06-19T12:17:32.000Z</time>
      </trkpt>
      <trkpt lat="48.70629" lon="1.77249">
        <ele>175</ele>
        <time>2015-06-19T12:17:34.000Z</time>
      </trkpt>
      <trkpt lat="48.70615" lon="1.77248">
        <ele>175</ele>
        <time>2015-06-19T12:17:42.000Z</time>
      </trkpt>
      <trkpt lat="48.70604" lon="1.77244">
        <ele>175.2</ele>
        <time>2015-06-19T12:17:48.000Z</time>
      </trkpt>
      <trkpt lat="48.70594" lon="1.77242">
        <ele>175.6</ele>
        <time>2015-06-19T12:17:54.000Z</time>
      </trkpt>
      <trkpt lat="48.70588" lon="1.77241">
        <ele>175.8</ele>
        <time>2015-06-19T12:17:59.000Z</time>
      </trkpt>
      <trkpt lat="48.70578" lon="1.7724">
        <ele>176</ele>
        <time>2015-06-19T12:18:05.000Z</time>
      </trkpt>
      <trkpt lat="48.70569" lon="1.7724">
        <ele>176</ele>
        <time>2015-06-19T12:18:11.000Z</time>
      </trkpt>
      <trkpt lat="48.70554" lon="1.77238">
        <ele>176</ele>
        <time>2015-06-19T12:18:19.000Z</time>
      </trkpt>
      <trkpt lat="48.70545" lon="1.77236">
        <ele>176</ele>
        <time>2015-06-19T12:18:24.000Z</time>
      </trkpt>
      <trkpt lat="48.70537" lon="1.77236">
        <ele>176</ele>
        <time>2015-06-19T12:18:29.000Z</time>
      </trkpt>
      <trkpt lat="48.70525" lon="1.77237">
        <ele>176</ele>
        <time>2015-06-19T12:18:36.000Z</time>
      </trkpt>
      <trkpt lat="48.70515" lon="1.77235">
        <ele>176.2</ele>
        <time>2015-06-19T12:18:43.000Z</time>
      </trkpt>
      <trkpt lat="48.70507" lon="1.77233">
        <ele>176.3</ele>
        <time>2015-06-19T12:18:49.000Z</time>
      </trkpt>
      <trkpt lat="48.70492" lon="1.77233">
        <ele>176.4</ele>
        <time>2015-06-19T12:18:57.000Z</time>
      </trkpt>
      <trkpt lat="48.70477" lon="1.77231">
        <ele>176.6</ele>
        <time>2015-06-19T12:19:06.000Z</time>
      </trkpt>
      <trkpt lat="48.70465" lon="1.77229">
        <ele>176.8</ele>
        <time>2015-06-19T12:19:13.000Z</time>
      </trkpt>
      <trkpt lat="48.70453" lon="1.77232">
        <ele>176.9</ele>
        <time>2015-06-19T12:19:20.000Z</time>
      </trkpt>
      <trkpt lat="48.7044" lon="1.77239">
        <ele>177</ele>
        <time>2015-06-19T12:19:28.000Z</time>
      </trkpt>
      <trkpt lat="48.70428" lon="1.77244">
        <ele>177</ele>
        <time>2015-06-19T12:19:36.000Z</time>
      </trkpt>
      <trkpt lat="48.70419" lon="1.7725">
        <ele>177</ele>
        <time>2015-06-19T12:19:43.000Z</time>
      </trkpt>
      <trkpt lat="48.70408" lon="1.7726">
        <ele>177</ele>
        <time>2015-06-19T12:19:51.000Z</time>
      </trkpt>
      <trkpt lat="48.70403" lon="1.77263">
        <ele>177</ele>
        <time>2015-06-19T12:19:55.000Z</time>
      </trkpt>
      <trkpt lat="48.70397" lon="1.7727">
        <ele>177</ele>
        <time>2015-06-19T12:19:59.000Z</time>
      </trkpt>
      <trkpt lat="48.70381" lon="1.77285">
        <ele>177</ele>
        <time>2015-06-19T12:20:08.000Z</time>
      </trkpt>
      <trkpt lat="48.70379" lon="1.77288">
        <ele>177</ele>
        <time>2015-06-19T12:20:10.000Z</time>
      </trkpt>
      <trkpt lat="48.70372" lon="1.77287">
        <ele>177</ele>
        <time>2015-06-19T12:20:15.000Z</time>
      </trkpt>
      <trkpt lat="48.70369" lon="1.77276">
        <ele>177</ele>
        <time>2015-06-19T12:20:20.000Z</time>
      </trkpt>
      <trkpt lat="48.70365" lon="1.77251">
        <ele>177</ele>
        <time>2015-06-19T12:20:30.000Z</time>
      </trkpt>
      <trkpt lat="48.70364" lon="1.77231">
        <ele>177</ele>
        <time>2015-06-19T12:20:38.000Z</time>
      </trkpt>
      <trkpt lat="48.70363" lon="1.77216">
        <ele>177</ele>
        <time>2015-06-19T12:20:44.000Z</time>
      </trkpt>
      <trkpt lat="48.70362" lon="1.77202">
        <ele>177</ele>
        <time>2015-06-19T12:20:49.000Z</time>
      </trkpt>
      <trkpt lat="48.70361" lon="1.77185">
        <ele>177</ele>
        <time>2015-06-19T12:20:56.000Z</time>
      </trkpt>
      <trkpt lat="48.70357" lon="1.77161">
        <ele>177</ele>
        <time>2015-06-19T12:21:05.000Z</time>
      </trkpt>
      <trkpt lat="48.70354" lon="1.77138">
        <ele>177</ele>
        <time>2015-06-19T12:21:13.000Z</time>
      </trkpt>
      <trkpt lat="48.70352" lon="1.7712">
        <ele>177</ele>
        <time>2015-06-19T12:21:20.000Z</time>
      </trkpt>
      <trkpt lat="48.7035" lon="1.77096">
        <ele>177</ele>
        <time>2015-06-19T12:21:29.000Z</time>
      </trkpt>
      <trkpt lat="48.70349" lon="1.77083">
        <ele>177</ele>
        <time>2015-06-19T12:21:35.000Z</time>
      </trkpt>
      <trkpt lat="48.70348" lon="1.7707">
        <ele>176.7</ele>
        <time>2015-06-19T12:21:41.000Z</time>
      </trkpt>
      <trkpt lat="48.70346" lon="1.77053">
        <ele>176.5</ele>
        <time>2015-06-19T12:21:49.000Z</time>
      </trkpt>
      <trkpt lat="48.70344" lon="1.77034">
        <ele>176.1</ele>
        <time>2015-06-19T12:21:56.000Z</time>
      </trkpt>
      <trkpt lat="48.70343" lon="1.77014">
        <ele>176.3</ele>
        <time>2015-06-19T12:22:04.000Z</time>
      </trkpt>
      <trkpt lat="48.7034" lon="1.76994">
        <ele>176.8</ele>
        <time>2015-06-19T12:22:12.000Z</time>
      </trkpt>
      <trkpt lat="48.70339" lon="1.76978">
        <ele>177</ele>
        <time>2015-06-19T12:22:19.000Z</time>
      </trkpt>
      <trkpt lat="48.70338" lon="1.7697">
        <ele>177</ele>
        <time>2015-06-19T12:22:25.000Z</time>
      </trkpt>
      <trkpt lat="48.70337" lon="1.76961">
        <ele>177</ele>
        <time>2015-06-19T12:22:31.000Z</time>
      </trkpt>
      <trkpt lat="48.70336" lon="1.76959">
        <ele>177</ele>
        <time>2015-06-19T12:22:35.000Z</time>
      </trkpt>
      <trkpt lat="48.70337" lon="1.7695">
        <ele>177</ele>
        <time>2015-06-19T12:22:47.000Z</time>
      </trkpt>
      <trkpt lat="48.70334" lon="1.76928">
        <ele>176.4</ele>
        <time>2015-06-19T12:22:55.000Z</time>
      </trkpt>
      <trkpt lat="48.70334" lon="1.76915">
        <ele>176</ele>
        <time>2015-06-19T12:23:01.000Z</time>
      </trkpt>
      <trkpt lat="48.70335" lon="1.76901">
        <ele>176</ele>
        <time>2015-06-19T12:23:07.000Z</time>
      </trkpt>
      <trkpt lat="48.70334" lon="1.76887">
        <ele>176</ele>
        <time>2015-06-19T12:23:13.000Z</time>
      </trkpt>
      <trkpt lat="48.70332" lon="1.76866">
        <ele>176</ele>
        <time>2015-06-19T12:23:21.000Z</time>
      </trkpt>
      <trkpt lat="48.70332" lon="1.76835">
        <ele>175.1</ele>
        <time>2015-06-19T12:23:33.000Z</time>
      </trkpt>
      <trkpt lat="48.70332" lon="1.76814">
        <ele>175</ele>
        <time>2015-06-19T12:23:41.000Z</time>
      </trkpt>
      <trkpt lat="48.70331" lon="1.76791">
        <ele>174.5</ele>
        <time>2015-06-19T12:23:50.000Z</time>
      </trkpt>
      <trkpt lat="48.70331" lon="1.7677">
        <ele>174</ele>
        <time>2015-06-19T12:23:58.000Z</time>
      </trkpt>
      <trkpt lat="48.70329" lon="1.76747">
        <ele>173.9</ele>
        <time>2015-06-19T12:24:07.000Z</time>
      </trkpt>
      <trkpt lat="48.70327" lon="1.76731">
        <ele>173.3</ele>
        <time>2015-06-19T12:24:14.000Z</time>
      </trkpt>
      <trkpt lat="48.70325" lon="1.76714">
        <ele>172.7</ele>
        <time>2015-06-19T12:24:21.000Z</time>
      </trkpt>
      <trkpt lat="48.70324" lon="1.7669">
        <ele>171.9</ele>
        <time>2015-06-19T12:24:30.000Z</time>
      </trkpt>
      <trkpt lat="48.70322" lon="1.76669">
        <ele>171.6</ele>
        <time>2015-06-19T12:24:38.000Z</time>
      </trkpt>
      <trkpt lat="48.70323" lon="1.7665">
        <ele>171</ele>
        <time>2015-06-19T12:24:46.000Z</time>
      </trkpt>
      <trkpt lat="48.70324" lon="1.76647">
        <ele>170.9</ele>
        <time>2015-06-19T12:24:47.000Z</time>
      </trkpt>
      <trkpt lat="48.70328" lon="1.76635">
        <ele>170.8</ele>
        <time>2015-06-19T12:24:53.000Z</time>
      </trkpt>
      <trkpt lat="48.70335" lon="1.76628">
        <ele>171.1</ele>
        <time>2015-06-19T12:24:59.000Z</time>
      </trkpt>
      <trkpt lat="48.70339" lon="1.76625">
        <ele>171.3</ele>
        <time>2015-06-19T12:25:03.000Z</time>
      </trkpt>
      <trkpt lat="48.70346" lon="1.76619">
        <ele>171.6</ele>
        <time>2015-06-19T12:25:08.000Z</time>
      </trkpt>
      <trkpt lat="48.70352" lon="1.76615">
        <ele>171.8</ele>
        <time>2015-06-19T12:25:13.000Z</time>
      </trkpt>
      <trkpt lat="48.70359" lon="1.76613">
        <ele>172</ele>
        <time>2015-06-19T12:25:18.000Z</time>
      </trkpt>
      <trkpt lat="48.70366" lon="1.76611">
        <ele>172.2</ele>
        <time>2015-06-19T12:25:23.000Z</time>
      </trkpt>
      <trkpt lat="48.70374" lon="1.76607">
        <ele>172.5</ele>
        <time>2015-06-19T12:25:29.000Z</time>
      </trkpt>
      <trkpt lat="48.70385" lon="1.76603">
        <ele>172.8</ele>
        <time>2015-06-19T12:25:36.000Z</time>
      </trkpt>
      <trkpt lat="48.70395" lon="1.76596">
        <ele>173.1</ele>
        <time>2015-06-19T12:25:41.000Z</time>
      </trkpt>
      <trkpt lat="48.70403" lon="1.76592">
        <ele>173.2</ele>
        <time>2015-06-19T12:25:46.000Z</time>
      </trkpt>
      <trkpt lat="48.70407" lon="1.76591">
        <ele>173.2</ele>
        <time>2015-06-19T12:25:49.000Z</time>
      </trkpt>
      <trkpt lat="48.70417" lon="1.76586">
        <ele>173.1</ele>
        <time>2015-06-19T12:25:56.000Z</time>
      </trkpt>
      <trkpt lat="48.70426" lon="1.7658">
        <ele>173.3</ele>
        <time>2015-06-19T12:26:03.000Z</time>
      </trkpt>
      <trkpt lat="48.70431" lon="1.76575">
        <ele>173.4</ele>
        <time>2015-06-19T12:26:06.000Z</time>
      </trkpt>
      <trkpt lat="48.70433" lon="1.76573">
        <ele>173.4</ele>
        <time>2015-06-19T12:26:07.000Z</time>
      </trkpt>
      <trkpt lat="48.70433" lon="1.76571">
        <ele>173.3</ele>
        <time>2015-06-19T12:26:10.000Z</time>
      </trkpt>
      <trkpt lat="48.70437" lon="1.76558">
        <ele>173.1</ele>
        <time>2015-06-19T12:26:14.000Z</time>
      </trkpt>
      <trkpt lat="48.70438" lon="1.7655">
        <ele>172.8</ele>
        <time>2015-06-19T12:26:17.000Z</time>
      </trkpt>
      <trkpt lat="48.70439" lon="1.76538">
        <ele>172.4</ele>
        <time>2015-06-19T12:26:23.000Z</time>
      </trkpt>
      <trkpt lat="48.7044" lon="1.76536">
        <ele>172.3</ele>
        <time>2015-06-19T12:26:24.000Z</time>
      </trkpt>
      <trkpt lat="48.70446" lon="1.76521">
        <ele>172</ele>
        <time>2015-06-19T12:26:31.000Z</time>
      </trkpt>
      <trkpt lat="48.70446" lon="1.7652">
        <ele>172</ele>
        <time>2015-06-19T12:26:32.000Z</time>
      </trkpt>
      <trkpt lat="48.70451" lon="1.76504">
        <ele>172</ele>
        <time>2015-06-19T12:26:40.000Z</time>
      </trkpt>
      <trkpt lat="48.70455" lon="1.76489">
        <ele>171.6</ele>
        <time>2015-06-19T12:26:46.000Z</time>
      </trkpt>
      <trkpt lat="48.70459" lon="1.76476">
        <ele>171.2</ele>
        <time>2015-06-19T12:26:52.000Z</time>
      </trkpt>
      <trkpt lat="48.70462" lon="1.76461">
        <ele>170.6</ele>
        <time>2015-06-19T12:26:59.000Z</time>
      </trkpt>
      <trkpt lat="48.70462" lon="1.76458">
        <ele>170.5</ele>
        <time>2015-06-19T12:27:00.000Z</time>
      </trkpt>
      <trkpt lat="48.70465" lon="1.7644">
        <ele>170</ele>
        <time>2015-06-19T12:27:08.000Z</time>
      </trkpt>
      <trkpt lat="48.70466" lon="1.76433">
        <ele>169.9</ele>
        <time>2015-06-19T12:27:11.000Z</time>
      </trkpt>
      <trkpt lat="48.70462" lon="1.76411">
        <ele>169.5</ele>
        <time>2015-06-19T12:27:19.000Z</time>
      </trkpt>
      <trkpt lat="48.70461" lon="1.76409">
        <ele>169.3</ele>
        <time>2015-06-19T12:27:20.000Z</time>
      </trkpt>
      <trkpt lat="48.70454" lon="1.76397">
        <ele>168.6</ele>
        <time>2015-06-19T12:27:26.000Z</time>
      </trkpt>
      <trkpt lat="48.70452" lon="1.76382">
        <ele>168.3</ele>
        <time>2015-06-19T12:27:32.000Z</time>
      </trkpt>
      <trkpt lat="48.7045" lon="1.76369">
        <ele>168.2</ele>
        <time>2015-06-19T12:27:37.000Z</time>
      </trkpt>
      <trkpt lat="48.70447" lon="1.76347">
        <ele>168.1</ele>
        <time>2015-06-19T12:27:45.000Z</time>
      </trkpt>
      <trkpt lat="48.70445" lon="1.76335">
        <ele>168</ele>
        <time>2015-06-19T12:27:50.000Z</time>
      </trkpt>
      <trkpt lat="48.70443" lon="1.76328">
        <ele>167.9</ele>
        <time>2015-06-19T12:27:53.000Z</time>
      </trkpt>
      <trkpt lat="48.70442" lon="1.76319">
        <ele>167.9</ele>
        <time>2015-06-19T12:27:57.000Z</time>
      </trkpt>
      <trkpt lat="48.70443" lon="1.76303">
        <ele>168</ele>
        <time>2015-06-19T12:28:03.000Z</time>
      </trkpt>
      <trkpt lat="48.70444" lon="1.76295">
        <ele>168.3</ele>
        <time>2015-06-19T12:28:07.000Z</time>
      </trkpt>
      <trkpt lat="48.70446" lon="1.76282">
        <ele>168.9</ele>
        <time>2015-06-19T12:28:12.000Z</time>
      </trkpt>
      <trkpt lat="48.7045" lon="1.76272">
        <ele>169</ele>
        <time>2015-06-19T12:28:19.000Z</time>
      </trkpt>
      <trkpt lat="48.70453" lon="1.76262">
        <ele>168.9</ele>
        <time>2015-06-19T12:28:23.000Z</time>
      </trkpt>
      <trkpt lat="48.70456" lon="1.76245">
        <ele>168.6</ele>
        <time>2015-06-19T12:28:30.000Z</time>
      </trkpt>
      <trkpt lat="48.70459" lon="1.76233">
        <ele>168.4</ele>
        <time>2015-06-19T12:28:35.000Z</time>
      </trkpt>
      <trkpt lat="48.70459" lon="1.76223">
        <ele>168.1</ele>
        <time>2015-06-19T12:28:40.000Z</time>
      </trkpt>
      <trkpt lat="48.70458" lon="1.76206">
        <ele>167.7</ele>
        <time>2015-06-19T12:28:47.000Z</time>
      </trkpt>
      <trkpt lat="48.70453" lon="1.7619">
        <ele>167.3</ele>
        <time>2015-06-19T12:28:53.000Z</time>
      </trkpt>
      <trkpt lat="48.70452" lon="1.76185">
        <ele>167.3</ele>
        <time>2015-06-19T12:28:56.000Z</time>
      </trkpt>
      <trkpt lat="48.70451" lon="1.76166">
        <ele>167.2</ele>
        <time>2015-06-19T12:29:03.000Z</time>
      </trkpt>
      <trkpt lat="48.70451" lon="1.76154">
        <ele>167.3</ele>
        <time>2015-06-19T12:29:08.000Z</time>
      </trkpt>
      <trkpt lat="48.70453" lon="1.76139">
        <ele>167.3</ele>
        <time>2015-06-19T12:29:14.000Z</time>
      </trkpt>
      <trkpt lat="48.70455" lon="1.76131">
        <ele>167.6</ele>
        <time>2015-06-19T12:29:18.000Z</time>
      </trkpt>
      <trkpt lat="48.70459" lon="1.76118">
        <ele>167.9</ele>
        <time>2015-06-19T12:29:24.000Z</time>
      </trkpt>
      <trkpt lat="48.70464" lon="1.76103">
        <ele>168</ele>
        <time>2015-06-19T12:29:31.000Z</time>
      </trkpt>
      <trkpt lat="48.70465" lon="1.76092">
        <ele>168</ele>
        <time>2015-06-19T12:29:37.000Z</time>
      </trkpt>
      <trkpt lat="48.70467" lon="1.7608">
        <ele>168.1</ele>
        <time>2015-06-19T12:29:43.000Z</time>
      </trkpt>
      <trkpt lat="48.70471" lon="1.76054">
        <ele>169</ele>
        <time>2015-06-19T12:29:51.000Z</time>
      </trkpt>
      <trkpt lat="48.70475" lon="1.76039">
        <ele>169</ele>
        <time>2015-06-19T12:29:55.000Z</time>
      </trkpt>
      <trkpt lat="48.70483" lon="1.7602">
        <ele>169.2</ele>
        <time>2015-06-19T12:30:01.000Z</time>
      </trkpt>
      <trkpt lat="48.70484" lon="1.7601">
        <ele>169.4</ele>
        <time>2015-06-19T12:30:06.000Z</time>
      </trkpt>
      <trkpt lat="48.7049" lon="1.75994">
        <ele>169.5</ele>
        <time>2015-06-19T12:30:13.000Z</time>
      </trkpt>
      <trkpt lat="48.70497" lon="1.75978">
        <ele>169.8</ele>
        <time>2015-06-19T12:30:21.000Z</time>
      </trkpt>
      <trkpt lat="48.70497" lon="1.75977">
        <ele>169.9</ele>
        <time>2015-06-19T12:30:22.000Z</time>
      </trkpt>
      <trkpt lat="48.70502" lon="1.75962">
        <ele>170</ele>
        <time>2015-06-19T12:30:30.000Z</time>
      </trkpt>
      <trkpt lat="48.70508" lon="1.75953">
        <ele>169.9</ele>
        <time>2015-06-19T12:30:35.000Z</time>
      </trkpt>
      <trkpt lat="48.70515" lon="1.75941">
        <ele>170.1</ele>
        <time>2015-06-19T12:30:42.000Z</time>
      </trkpt>
      <trkpt lat="48.70523" lon="1.75926">
        <ele>170.1</ele>
        <time>2015-06-19T12:30:49.000Z</time>
      </trkpt>
      <trkpt lat="48.70531" lon="1.75909">
        <ele>170.3</ele>
        <time>2015-06-19T12:30:57.000Z</time>
      </trkpt>
      <trkpt lat="48.70533" lon="1.75899">
        <ele>170.6</ele>
        <time>2015-06-19T12:31:02.000Z</time>
      </trkpt>
      <trkpt lat="48.70541" lon="1.75885">
        <ele>171</ele>
        <time>2015-06-19T12:31:10.000Z</time>
      </trkpt>
      <trkpt lat="48.70544" lon="1.75875">
        <ele>171</ele>
        <time>2015-06-19T12:31:15.000Z</time>
      </trkpt>
      <trkpt lat="48.7055" lon="1.7586">
        <ele>171</ele>
        <time>2015-06-19T12:31:22.000Z</time>
      </trkpt>
      <trkpt lat="48.70553" lon="1.75852">
        <ele>171</ele>
        <time>2015-06-19T12:31:26.000Z</time>
      </trkpt>
      <trkpt lat="48.70561" lon="1.75835">
        <ele>171</ele>
        <time>2015-06-19T12:31:35.000Z</time>
      </trkpt>
      <trkpt lat="48.70566" lon="1.75826">
        <ele>171.3</ele>
        <time>2015-06-19T12:31:40.000Z</time>
      </trkpt>
      <trkpt lat="48.70569" lon="1.75817">
        <ele>171.6</ele>
        <time>2015-06-19T12:31:44.000Z</time>
      </trkpt>
      <trkpt lat="48.70571" lon="1.75814">
        <ele>171.7</ele>
        <time>2015-06-19T12:31:46.000Z</time>
      </trkpt>
      <trkpt lat="48.70576" lon="1.75803">
        <ele>172</ele>
        <time>2015-06-19T12:31:52.000Z</time>
      </trkpt>
      <trkpt lat="48.70582" lon="1.75794">
        <ele>172</ele>
        <time>2015-06-19T12:31:57.000Z</time>
      </trkpt>
      <trkpt lat="48.70587" lon="1.75781">
        <ele>172</ele>
        <time>2015-06-19T12:32:04.000Z</time>
      </trkpt>
      <trkpt lat="48.70591" lon="1.75775">
        <ele>172</ele>
        <time>2015-06-19T12:32:08.000Z</time>
      </trkpt>
      <trkpt lat="48.70597" lon="1.75766">
        <ele>172</ele>
        <time>2015-06-19T12:32:14.000Z</time>
      </trkpt>
      <trkpt lat="48.70605" lon="1.75757">
        <ele>172</ele>
        <time>2015-06-19T12:32:22.000Z</time>
      </trkpt>
      <trkpt lat="48.70607" lon="1.75755">
        <ele>172</ele>
        <time>2015-06-19T12:32:24.000Z</time>
      </trkpt>
      <trkpt lat="48.70614" lon="1.75742">
        <ele>172</ele>
        <time>2015-06-19T12:32:32.000Z</time>
      </trkpt>
      <trkpt lat="48.7062" lon="1.75733">
        <ele>172</ele>
        <time>2015-06-19T12:32:38.000Z</time>
      </trkpt>
      <trkpt lat="48.70629" lon="1.75717">
        <ele>172</ele>
        <time>2015-06-19T12:32:47.000Z</time>
      </trkpt>
      <trkpt lat="48.70635" lon="1.75706">
        <ele>172</ele>
        <time>2015-06-19T12:32:53.000Z</time>
      </trkpt>
      <trkpt lat="48.70642" lon="1.75693">
        <ele>172</ele>
        <time>2015-06-19T12:33:00.000Z</time>
      </trkpt>
      <trkpt lat="48.70643" lon="1.7569">
        <ele>172.1</ele>
        <time>2015-06-19T12:33:02.000Z</time>
      </trkpt>
      <trkpt lat="48.70648" lon="1.75685">
        <ele>172.2</ele>
        <time>2015-06-19T12:33:07.000Z</time>
      </trkpt>
      <trkpt lat="48.7065" lon="1.75683">
        <ele>172.2</ele>
        <time>2015-06-19T12:33:12.000Z</time>
      </trkpt>
      <trkpt lat="48.70655" lon="1.75681">
        <ele>172.2</ele>
        <time>2015-06-19T12:33:19.000Z</time>
      </trkpt>
      <trkpt lat="48.70667" lon="1.75688">
        <ele>172</ele>
        <time>2015-06-19T12:33:26.000Z</time>
      </trkpt>
      <trkpt lat="48.70675" lon="1.75699">
        <ele>172</ele>
        <time>2015-06-19T12:33:32.000Z</time>
      </trkpt>
      <trkpt lat="48.7069" lon="1.75715">
        <ele>172.6</ele>
        <time>2015-06-19T12:33:38.000Z</time>
      </trkpt>
      <trkpt lat="48.70702" lon="1.75732">
        <ele>172.6</ele>
        <time>2015-06-19T12:33:43.000Z</time>
      </trkpt>
      <trkpt lat="48.7072" lon="1.75756">
        <ele>172.9</ele>
        <time>2015-06-19T12:33:50.000Z</time>
      </trkpt>
      <trkpt lat="48.70735" lon="1.75781">
        <ele>173</ele>
        <time>2015-06-19T12:33:56.000Z</time>
      </trkpt>
      <trkpt lat="48.70749" lon="1.75806">
        <ele>173</ele>
        <time>2015-06-19T12:34:03.000Z</time>
      </trkpt>
      <trkpt lat="48.70759" lon="1.75822">
        <ele>173.3</ele>
        <time>2015-06-19T12:34:09.000Z</time>
      </trkpt>
      <trkpt lat="48.70767" lon="1.75833">
        <ele>173.6</ele>
        <time>2015-06-19T12:34:16.000Z</time>
      </trkpt>
      <trkpt lat="48.70774" lon="1.75842">
        <ele>173.9</ele>
        <time>2015-06-19T12:34:23.000Z</time>
      </trkpt>
      <trkpt lat="48.70781" lon="1.75852">
        <ele>174</ele>
        <time>2015-06-19T12:34:30.000Z</time>
      </trkpt>
      <trkpt lat="48.70791" lon="1.75862">
        <ele>174</ele>
        <time>2015-06-19T12:34:38.000Z</time>
      </trkpt>
      <trkpt lat="48.70794" lon="1.75863">
        <ele>174</ele>
        <time>2015-06-19T12:34:43.000Z</time>
      </trkpt>
      <trkpt lat="48.70801" lon="1.75843">
        <ele>174</ele>
        <time>2015-06-19T12:36:55.000Z</time>
      </trkpt>
      <trkpt lat="48.70798" lon="1.75854">
        <ele>174</ele>
        <time>2015-06-19T12:36:57.000Z</time>
      </trkpt>
      <trkpt lat="48.70793" lon="1.7586">
        <ele>174</ele>
        <time>2015-06-19T12:37:02.000Z</time>
      </trkpt>
      <trkpt lat="48.70789" lon="1.75862">
        <ele>174</ele>
        <time>2015-06-19T12:37:08.000Z</time>
      </trkpt>
      <trkpt lat="48.70791" lon="1.75857">
        <ele>174</ele>
        <time>2015-06-19T12:37:13.000Z</time>
      </trkpt>
      <trkpt lat="48.70795" lon="1.75856">
        <ele>174</ele>
        <time>2015-06-19T12:37:18.000Z</time>
      </trkpt>
      <trkpt lat="48.70792" lon="1.75856">
        <ele>174</ele>
        <time>2015-06-19T12:37:22.000Z</time>
      </trkpt>
      <trkpt lat="48.70793" lon="1.75856">
        <ele>174</ele>
        <time>2015-06-19T12:37:27.000Z</time>
      </trkpt>
      <trkpt lat="48.70804" lon="1.75818">
        <ele>174</ele>
        <time>2015-06-19T12:49:50.000Z</time>
      </trkpt>
      <trkpt lat="48.70806" lon="1.75816">
        <ele>174</ele>
        <time>2015-06-19T12:49:52.000Z</time>
      </trkpt>
    </trkseg>
  </trk>
</gpx>